<?xml version="1.0" encoding="UTF-8" standalone="no" ?>
<gpx xmlns="http://www.topografix.com/GPX/1/1" xmlns:xsi="http://www.w3.org/2001/XMLSchema-instance" xsi:schemaLocation="http://www.topografix.com/GPX/1/1 http://www.topografix.com/GPX/1/1/gpx.xsd" version="1.1" creator="VisuGPX - https://www.visugpx.com">
  <metadata>
    <name>Autour de &quot;La Route Napoléon à Cheval ©&quot; - Hautes Alpes - Entre villages et saveurs du terroir </name>
    <desc><![CDATA[Découvertes des villages perchés, d'un patrimoine unique et de produits du terroir rythmeront votre chevauchée entre Alpes et Provence.

Pour avoir les dernières modifications : http://www.buech-rando.com/
Pour plus d'informations, contactez l'Espace Rando des Pays du Buëch : 04 92 67 19 26]]></desc>
  </metadata>
  <trk>
    <name><![CDATA[6913136-Entre villages et saveurs du terroir]]></name>
    <trkseg>
      <trkpt lat="44.35069" lon="5.78485">
        <ele>741</ele>
        <time>2018-05-16T12:44:49Z</time>
      </trkpt>
      <trkpt lat="44.35071" lon="5.78475">
        <ele>742</ele>
        <time>2018-05-16T12:45:49Z</time>
      </trkpt>
      <trkpt lat="44.35081" lon="5.78457">
        <ele>742</ele>
        <time>2018-05-16T12:46:49Z</time>
      </trkpt>
      <trkpt lat="44.35072" lon="5.78309">
        <ele>744</ele>
        <time>2018-05-16T12:47:49Z</time>
      </trkpt>
      <trkpt lat="44.35049" lon="5.78176">
        <ele>739</ele>
        <time>2018-05-16T12:48:49Z</time>
      </trkpt>
      <trkpt lat="44.34969" lon="5.78152">
        <ele>726</ele>
        <time>2018-05-16T12:49:49Z</time>
      </trkpt>
      <trkpt lat="44.34962" lon="5.78149">
        <ele>725</ele>
        <time>2018-05-16T12:50:49Z</time>
      </trkpt>
      <trkpt lat="44.34839" lon="5.78066">
        <ele>703</ele>
        <time>2018-05-16T12:51:49Z</time>
      </trkpt>
      <trkpt lat="44.34868" lon="5.78137">
        <ele>713</ele>
        <time>2018-05-16T12:52:49Z</time>
      </trkpt>
      <trkpt lat="44.34749" lon="5.78051">
        <ele>699</ele>
        <time>2018-05-16T12:53:49Z</time>
      </trkpt>
      <trkpt lat="44.34743" lon="5.78048">
        <ele>700</ele>
        <time>2018-05-16T12:54:49Z</time>
      </trkpt>
      <trkpt lat="44.34696" lon="5.77882">
        <ele>681</ele>
        <time>2018-05-16T12:55:49Z</time>
      </trkpt>
      <trkpt lat="44.34603" lon="5.77826">
        <ele>674</ele>
        <time>2018-05-16T12:56:49Z</time>
      </trkpt>
      <trkpt lat="44.34599" lon="5.77816">
        <ele>674</ele>
        <time>2018-05-16T12:57:49Z</time>
      </trkpt>
      <trkpt lat="44.34522" lon="5.77683">
        <ele>653</ele>
        <time>2018-05-16T12:58:49Z</time>
      </trkpt>
      <trkpt lat="44.3442" lon="5.77655">
        <ele>636</ele>
        <time>2018-05-16T12:59:49Z</time>
      </trkpt>
      <trkpt lat="44.34411" lon="5.77657">
        <ele>637</ele>
        <time>2018-05-16T13:00:49Z</time>
      </trkpt>
      <trkpt lat="44.34402" lon="5.77657">
        <ele>638</ele>
        <time>2018-05-16T13:01:49Z</time>
      </trkpt>
      <trkpt lat="44.34398" lon="5.77616">
        <ele>627</ele>
        <time>2018-05-16T13:02:49Z</time>
      </trkpt>
      <trkpt lat="44.34493" lon="5.77612">
        <ele>631</ele>
        <time>2018-05-16T13:03:49Z</time>
      </trkpt>
      <trkpt lat="44.34502" lon="5.77613">
        <ele>632</ele>
        <time>2018-05-16T13:04:49Z</time>
      </trkpt>
      <trkpt lat="44.34636" lon="5.77571">
        <ele>623</ele>
        <time>2018-05-16T13:05:49Z</time>
      </trkpt>
      <trkpt lat="44.34645" lon="5.77568">
        <ele>623</ele>
        <time>2018-05-16T13:06:49Z</time>
      </trkpt>
      <trkpt lat="44.34628" lon="5.77454">
        <ele>608</ele>
        <time>2018-05-16T13:07:49Z</time>
      </trkpt>
      <trkpt lat="44.34624" lon="5.77454">
        <ele>608</ele>
        <time>2018-05-16T13:08:49Z</time>
      </trkpt>
      <trkpt lat="44.34598" lon="5.77478">
        <ele>607</ele>
        <time>2018-05-16T13:09:49Z</time>
      </trkpt>
      <trkpt lat="44.34589" lon="5.77483">
        <ele>607</ele>
        <time>2018-05-16T13:10:49Z</time>
      </trkpt>
      <trkpt lat="44.34537" lon="5.77511">
        <ele>608</ele>
        <time>2018-05-16T13:11:49Z</time>
      </trkpt>
      <trkpt lat="44.34532" lon="5.77514">
        <ele>609</ele>
        <time>2018-05-16T13:12:49Z</time>
      </trkpt>
      <trkpt lat="44.34499" lon="5.7749">
        <ele>604</ele>
        <time>2018-05-16T13:13:49Z</time>
      </trkpt>
      <trkpt lat="44.34431" lon="5.77449">
        <ele>597</ele>
        <time>2018-05-16T13:14:49Z</time>
      </trkpt>
      <trkpt lat="44.34418" lon="5.77413">
        <ele>594</ele>
        <time>2018-05-16T13:15:49Z</time>
      </trkpt>
      <trkpt lat="44.34493" lon="5.77311">
        <ele>594</ele>
        <time>2018-05-16T13:16:49Z</time>
      </trkpt>
      <trkpt lat="44.34547" lon="5.7718">
        <ele>594</ele>
        <time>2018-05-16T13:17:49Z</time>
      </trkpt>
      <trkpt lat="44.34571" lon="5.77137">
        <ele>596</ele>
        <time>2018-05-16T13:18:49Z</time>
      </trkpt>
      <trkpt lat="44.34578" lon="5.77131">
        <ele>597</ele>
        <time>2018-05-16T13:19:49Z</time>
      </trkpt>
      <trkpt lat="44.34506" lon="5.77042">
        <ele>589</ele>
        <time>2018-05-16T13:20:49Z</time>
      </trkpt>
      <trkpt lat="44.34397" lon="5.76939">
        <ele>592</ele>
        <time>2018-05-16T13:21:49Z</time>
      </trkpt>
      <trkpt lat="44.34332" lon="5.76784">
        <ele>594</ele>
        <time>2018-05-16T13:22:49Z</time>
      </trkpt>
      <trkpt lat="44.3436" lon="5.76764">
        <ele>593</ele>
        <time>2018-05-16T13:23:49Z</time>
      </trkpt>
      <trkpt lat="44.34262" lon="5.76447">
        <ele>594</ele>
        <time>2018-05-16T13:24:49Z</time>
      </trkpt>
      <trkpt lat="44.34304" lon="5.76177">
        <ele>600</ele>
        <time>2018-05-16T13:25:49Z</time>
      </trkpt>
      <trkpt lat="44.3417" lon="5.76153">
        <ele>607</ele>
        <time>2018-05-16T13:26:49Z</time>
      </trkpt>
      <trkpt lat="44.3425" lon="5.76099">
        <ele>609</ele>
        <time>2018-05-16T13:27:49Z</time>
      </trkpt>
      <trkpt lat="44.34255" lon="5.7609">
        <ele>610</ele>
        <time>2018-05-16T13:28:49Z</time>
      </trkpt>
      <trkpt lat="44.3423" lon="5.76104">
        <ele>609</ele>
        <time>2018-05-16T13:29:49Z</time>
      </trkpt>
      <trkpt lat="44.3418" lon="5.75963">
        <ele>619</ele>
        <time>2018-05-16T13:30:49Z</time>
      </trkpt>
      <trkpt lat="44.34137" lon="5.75766">
        <ele>644</ele>
        <time>2018-05-16T13:31:49Z</time>
      </trkpt>
      <trkpt lat="44.34121" lon="5.75693">
        <ele>651</ele>
        <time>2018-05-16T13:32:49Z</time>
      </trkpt>
      <trkpt lat="44.34113" lon="5.75579">
        <ele>655</ele>
        <time>2018-05-16T13:33:49Z</time>
      </trkpt>
      <trkpt lat="44.34129" lon="5.75511">
        <ele>656</ele>
        <time>2018-05-16T13:34:49Z</time>
      </trkpt>
      <trkpt lat="44.34207" lon="5.75234">
        <ele>649</ele>
        <time>2018-05-16T13:35:49Z</time>
      </trkpt>
      <trkpt lat="44.3418" lon="5.75088">
        <ele>659</ele>
        <time>2018-05-16T13:36:49Z</time>
      </trkpt>
      <trkpt lat="44.34138" lon="5.74994">
        <ele>663</ele>
        <time>2018-05-16T13:37:49Z</time>
      </trkpt>
      <trkpt lat="44.34249" lon="5.74982">
        <ele>659</ele>
        <time>2018-05-16T13:38:49Z</time>
      </trkpt>
      <trkpt lat="44.34309" lon="5.74864">
        <ele>658</ele>
        <time>2018-05-16T13:39:49Z</time>
      </trkpt>
      <trkpt lat="44.34338" lon="5.74655">
        <ele>657</ele>
        <time>2018-05-16T13:40:49Z</time>
      </trkpt>
      <trkpt lat="44.34371" lon="5.74811">
        <ele>646</ele>
        <time>2018-05-16T13:41:49Z</time>
      </trkpt>
      <trkpt lat="44.34396" lon="5.74653">
        <ele>641</ele>
        <time>2018-05-16T13:42:49Z</time>
      </trkpt>
      <trkpt lat="44.34462" lon="5.74776">
        <ele>624</ele>
        <time>2018-05-16T13:43:49Z</time>
      </trkpt>
      <trkpt lat="44.34518" lon="5.74428">
        <ele>628</ele>
        <time>2018-05-16T13:44:49Z</time>
      </trkpt>
      <trkpt lat="44.34521" lon="5.74419">
        <ele>629</ele>
        <time>2018-05-16T13:45:49Z</time>
      </trkpt>
      <trkpt lat="44.34526" lon="5.7441">
        <ele>629</ele>
        <time>2018-05-16T13:46:49Z</time>
      </trkpt>
      <trkpt lat="44.34618" lon="5.74258">
        <ele>631</ele>
        <time>2018-05-16T13:47:49Z</time>
      </trkpt>
      <trkpt lat="44.34729" lon="5.74234">
        <ele>623</ele>
        <time>2018-05-16T13:48:49Z</time>
      </trkpt>
      <trkpt lat="44.34815" lon="5.74082">
        <ele>626</ele>
        <time>2018-05-16T13:49:49Z</time>
      </trkpt>
      <trkpt lat="44.34865" lon="5.73925">
        <ele>630</ele>
        <time>2018-05-16T13:50:49Z</time>
      </trkpt>
      <trkpt lat="44.34889" lon="5.73789">
        <ele>632</ele>
        <time>2018-05-16T13:51:49Z</time>
      </trkpt>
      <trkpt lat="44.34918" lon="5.73599">
        <ele>640</ele>
        <time>2018-05-16T13:52:49Z</time>
      </trkpt>
      <trkpt lat="44.3489" lon="5.73532">
        <ele>650</ele>
        <time>2018-05-16T13:53:49Z</time>
      </trkpt>
      <trkpt lat="44.3487" lon="5.73551">
        <ele>652</ele>
        <time>2018-05-16T13:54:49Z</time>
      </trkpt>
      <trkpt lat="44.34825" lon="5.73598">
        <ele>656</ele>
        <time>2018-05-16T13:55:49Z</time>
      </trkpt>
      <trkpt lat="44.34769" lon="5.736">
        <ele>661</ele>
        <time>2018-05-16T13:56:49Z</time>
      </trkpt>
      <trkpt lat="44.34704" lon="5.73592">
        <ele>667</ele>
        <time>2018-05-16T13:57:49Z</time>
      </trkpt>
      <trkpt lat="44.34687" lon="5.73579">
        <ele>669</ele>
        <time>2018-05-16T13:58:49Z</time>
      </trkpt>
      <trkpt lat="44.34677" lon="5.73579">
        <ele>670</ele>
        <time>2018-05-16T13:59:49Z</time>
      </trkpt>
      <trkpt lat="44.34659" lon="5.73594">
        <ele>671</ele>
        <time>2018-05-16T14:00:49Z</time>
      </trkpt>
      <trkpt lat="44.34655" lon="5.73607">
        <ele>671</ele>
        <time>2018-05-16T14:01:49Z</time>
      </trkpt>
      <trkpt lat="44.34638" lon="5.73611">
        <ele>675</ele>
        <time>2018-05-16T14:02:49Z</time>
      </trkpt>
      <trkpt lat="44.34634" lon="5.73592">
        <ele>677</ele>
        <time>2018-05-16T14:03:49Z</time>
      </trkpt>
      <trkpt lat="44.34612" lon="5.73581">
        <ele>683</ele>
        <time>2018-05-16T14:04:49Z</time>
      </trkpt>
      <trkpt lat="44.34591" lon="5.73583">
        <ele>688</ele>
        <time>2018-05-16T14:05:49Z</time>
      </trkpt>
      <trkpt lat="44.34582" lon="5.7357">
        <ele>692</ele>
        <time>2018-05-16T14:06:49Z</time>
      </trkpt>
      <trkpt lat="44.34578" lon="5.73542">
        <ele>695</ele>
        <time>2018-05-16T14:07:49Z</time>
      </trkpt>
      <trkpt lat="44.34586" lon="5.73516">
        <ele>697</ele>
        <time>2018-05-16T14:08:49Z</time>
      </trkpt>
      <trkpt lat="44.34578" lon="5.73478">
        <ele>703</ele>
        <time>2018-05-16T14:09:49Z</time>
      </trkpt>
      <trkpt lat="44.34546" lon="5.73422">
        <ele>717</ele>
        <time>2018-05-16T14:10:49Z</time>
      </trkpt>
      <trkpt lat="44.34518" lon="5.73401">
        <ele>729</ele>
        <time>2018-05-16T14:11:49Z</time>
      </trkpt>
      <trkpt lat="44.34509" lon="5.73396">
        <ele>733</ele>
        <time>2018-05-16T14:12:49Z</time>
      </trkpt>
      <trkpt lat="44.34475" lon="5.73401">
        <ele>739</ele>
        <time>2018-05-16T14:13:49Z</time>
      </trkpt>
      <trkpt lat="44.3444" lon="5.73437">
        <ele>736</ele>
        <time>2018-05-16T14:14:49Z</time>
      </trkpt>
      <trkpt lat="44.34406" lon="5.73443">
        <ele>737</ele>
        <time>2018-05-16T14:15:49Z</time>
      </trkpt>
      <trkpt lat="44.34312" lon="5.73347">
        <ele>750</ele>
        <time>2018-05-16T14:16:49Z</time>
      </trkpt>
      <trkpt lat="44.34258" lon="5.73233">
        <ele>760</ele>
        <time>2018-05-16T14:17:49Z</time>
      </trkpt>
      <trkpt lat="44.34224" lon="5.73195">
        <ele>763</ele>
        <time>2018-05-16T14:18:49Z</time>
      </trkpt>
      <trkpt lat="44.34213" lon="5.73188">
        <ele>764</ele>
        <time>2018-05-16T14:19:49Z</time>
      </trkpt>
      <trkpt lat="44.34192" lon="5.73192">
        <ele>760</ele>
        <time>2018-05-16T14:20:49Z</time>
      </trkpt>
      <trkpt lat="44.34149" lon="5.73214">
        <ele>752</ele>
        <time>2018-05-16T14:21:49Z</time>
      </trkpt>
      <trkpt lat="44.34138" lon="5.73203">
        <ele>754</ele>
        <time>2018-05-16T14:22:49Z</time>
      </trkpt>
      <trkpt lat="44.34119" lon="5.73207">
        <ele>753</ele>
        <time>2018-05-16T14:23:49Z</time>
      </trkpt>
      <trkpt lat="44.34108" lon="5.73229">
        <ele>749</ele>
        <time>2018-05-16T14:24:49Z</time>
      </trkpt>
      <trkpt lat="44.34127" lon="5.73207">
        <ele>753</ele>
        <time>2018-05-16T14:25:49Z</time>
      </trkpt>
      <trkpt lat="44.34136" lon="5.73212">
        <ele>753</ele>
        <time>2018-05-16T14:26:49Z</time>
      </trkpt>
      <trkpt lat="44.34136" lon="5.73205">
        <ele>754</ele>
        <time>2018-05-16T14:27:49Z</time>
      </trkpt>
      <trkpt lat="44.34123" lon="5.73205">
        <ele>754</ele>
        <time>2018-05-16T14:28:49Z</time>
      </trkpt>
      <trkpt lat="44.3411" lon="5.73197">
        <ele>755</ele>
        <time>2018-05-16T14:29:49Z</time>
      </trkpt>
      <trkpt lat="44.34059" lon="5.73154">
        <ele>758</ele>
        <time>2018-05-16T14:30:49Z</time>
      </trkpt>
      <trkpt lat="44.34052" lon="5.73141">
        <ele>760</ele>
        <time>2018-05-16T14:31:49Z</time>
      </trkpt>
      <trkpt lat="44.34046" lon="5.73111">
        <ele>764</ele>
        <time>2018-05-16T14:32:49Z</time>
      </trkpt>
      <trkpt lat="44.34046" lon="5.73055">
        <ele>776</ele>
        <time>2018-05-16T14:33:49Z</time>
      </trkpt>
      <trkpt lat="44.34022" lon="5.72995">
        <ele>787</ele>
        <time>2018-05-16T14:34:49Z</time>
      </trkpt>
      <trkpt lat="44.34016" lon="5.72954">
        <ele>796</ele>
        <time>2018-05-16T14:35:49Z</time>
      </trkpt>
      <trkpt lat="44.33998" lon="5.72922">
        <ele>801</ele>
        <time>2018-05-16T14:36:49Z</time>
      </trkpt>
      <trkpt lat="44.33958" lon="5.72868">
        <ele>815</ele>
        <time>2018-05-16T14:37:49Z</time>
      </trkpt>
      <trkpt lat="44.33966" lon="5.72858">
        <ele>819</ele>
        <time>2018-05-16T14:38:49Z</time>
      </trkpt>
      <trkpt lat="44.33943" lon="5.72821">
        <ele>830</ele>
        <time>2018-05-16T14:39:49Z</time>
      </trkpt>
      <trkpt lat="44.3393" lon="5.72787">
        <ele>842</ele>
        <time>2018-05-16T14:40:49Z</time>
      </trkpt>
      <trkpt lat="44.33913" lon="5.72789">
        <ele>840</ele>
        <time>2018-05-16T14:41:49Z</time>
      </trkpt>
      <trkpt lat="44.33917" lon="5.72765">
        <ele>849</ele>
        <time>2018-05-16T14:42:49Z</time>
      </trkpt>
      <trkpt lat="44.33887" lon="5.72793">
        <ele>838</ele>
        <time>2018-05-16T14:43:49Z</time>
      </trkpt>
      <trkpt lat="44.33863" lon="5.72791">
        <ele>839</ele>
        <time>2018-05-16T14:44:49Z</time>
      </trkpt>
      <trkpt lat="44.33829" lon="5.72765">
        <ele>850</ele>
        <time>2018-05-16T14:45:49Z</time>
      </trkpt>
      <trkpt lat="44.33788" lon="5.72742">
        <ele>855</ele>
        <time>2018-05-16T14:46:49Z</time>
      </trkpt>
      <trkpt lat="44.33741" lon="5.7272">
        <ele>856</ele>
        <time>2018-05-16T14:47:49Z</time>
      </trkpt>
      <trkpt lat="44.33709" lon="5.72712">
        <ele>851</ele>
        <time>2018-05-16T14:48:49Z</time>
      </trkpt>
      <trkpt lat="44.33692" lon="5.72714">
        <ele>847</ele>
        <time>2018-05-16T14:49:49Z</time>
      </trkpt>
      <trkpt lat="44.33659" lon="5.72692">
        <ele>847</ele>
        <time>2018-05-16T14:50:49Z</time>
      </trkpt>
      <trkpt lat="44.33636" lon="5.72684">
        <ele>847</ele>
        <time>2018-05-16T14:51:49Z</time>
      </trkpt>
      <trkpt lat="44.33614" lon="5.72744">
        <ele>830</ele>
        <time>2018-05-16T14:52:49Z</time>
      </trkpt>
      <trkpt lat="44.33593" lon="5.72765">
        <ele>823</ele>
        <time>2018-05-16T14:53:49Z</time>
      </trkpt>
      <trkpt lat="44.3358" lon="5.72757">
        <ele>825</ele>
        <time>2018-05-16T14:54:49Z</time>
      </trkpt>
      <trkpt lat="44.33561" lon="5.72722">
        <ele>833</ele>
        <time>2018-05-16T14:55:49Z</time>
      </trkpt>
      <trkpt lat="44.3352" lon="5.72716">
        <ele>834</ele>
        <time>2018-05-16T14:56:49Z</time>
      </trkpt>
      <trkpt lat="44.33507" lon="5.72699">
        <ele>838</ele>
        <time>2018-05-16T14:57:49Z</time>
      </trkpt>
      <trkpt lat="44.3349" lon="5.72692">
        <ele>838</ele>
        <time>2018-05-16T14:58:49Z</time>
      </trkpt>
      <trkpt lat="44.33449" lon="5.72626">
        <ele>843</ele>
        <time>2018-05-16T14:59:49Z</time>
      </trkpt>
      <trkpt lat="44.33426" lon="5.72635">
        <ele>838</ele>
        <time>2018-05-16T15:00:49Z</time>
      </trkpt>
      <trkpt lat="44.33404" lon="5.7263">
        <ele>834</ele>
        <time>2018-05-16T15:01:49Z</time>
      </trkpt>
      <trkpt lat="44.33393" lon="5.72607">
        <ele>835</ele>
        <time>2018-05-16T15:02:49Z</time>
      </trkpt>
      <trkpt lat="44.3338" lon="5.726">
        <ele>833</ele>
        <time>2018-05-16T15:03:49Z</time>
      </trkpt>
      <trkpt lat="44.33363" lon="5.72568">
        <ele>833</ele>
        <time>2018-05-16T15:04:49Z</time>
      </trkpt>
      <trkpt lat="44.33325" lon="5.72559">
        <ele>829</ele>
        <time>2018-05-16T15:05:49Z</time>
      </trkpt>
      <trkpt lat="44.33327" lon="5.72566">
        <ele>828</ele>
        <time>2018-05-16T15:06:49Z</time>
      </trkpt>
      <trkpt lat="44.33282" lon="5.72604">
        <ele>819</ele>
        <time>2018-05-16T15:07:49Z</time>
      </trkpt>
      <trkpt lat="44.33207" lon="5.72574">
        <ele>817</ele>
        <time>2018-05-16T15:08:49Z</time>
      </trkpt>
      <trkpt lat="44.33181" lon="5.72572">
        <ele>814</ele>
        <time>2018-05-16T15:09:49Z</time>
      </trkpt>
      <trkpt lat="44.33155" lon="5.72583">
        <ele>809</ele>
        <time>2018-05-16T15:10:49Z</time>
      </trkpt>
      <trkpt lat="44.3314" lon="5.72604">
        <ele>802</ele>
        <time>2018-05-16T15:11:49Z</time>
      </trkpt>
      <trkpt lat="44.33091" lon="5.72637">
        <ele>790</ele>
        <time>2018-05-16T15:12:49Z</time>
      </trkpt>
      <trkpt lat="44.33067" lon="5.72643">
        <ele>786</ele>
        <time>2018-05-16T15:13:49Z</time>
      </trkpt>
      <trkpt lat="44.33016" lon="5.7269">
        <ele>770</ele>
        <time>2018-05-16T15:14:49Z</time>
      </trkpt>
      <trkpt lat="44.33003" lon="5.72695">
        <ele>768</ele>
        <time>2018-05-16T15:15:49Z</time>
      </trkpt>
      <trkpt lat="44.32994" lon="5.72686">
        <ele>769</ele>
        <time>2018-05-16T15:16:49Z</time>
      </trkpt>
      <trkpt lat="44.32986" lon="5.72647">
        <ele>773</ele>
        <time>2018-05-16T15:17:49Z</time>
      </trkpt>
      <trkpt lat="44.32977" lon="5.72658">
        <ele>770</ele>
        <time>2018-05-16T15:18:49Z</time>
      </trkpt>
      <trkpt lat="44.32968" lon="5.72714">
        <ele>758</ele>
        <time>2018-05-16T15:19:49Z</time>
      </trkpt>
      <trkpt lat="44.32958" lon="5.72746">
        <ele>753</ele>
        <time>2018-05-16T15:20:49Z</time>
      </trkpt>
      <trkpt lat="44.32949" lon="5.72761">
        <ele>750</ele>
        <time>2018-05-16T15:21:49Z</time>
      </trkpt>
      <trkpt lat="44.32915" lon="5.72815">
        <ele>748</ele>
        <time>2018-05-16T15:22:49Z</time>
      </trkpt>
      <trkpt lat="44.32853" lon="5.72898">
        <ele>737</ele>
        <time>2018-05-16T15:23:49Z</time>
      </trkpt>
      <trkpt lat="44.32831" lon="5.72944">
        <ele>739</ele>
        <time>2018-05-16T15:24:49Z</time>
      </trkpt>
      <trkpt lat="44.32793" lon="5.73004">
        <ele>733</ele>
        <time>2018-05-16T15:25:49Z</time>
      </trkpt>
      <trkpt lat="44.32762" lon="5.73092">
        <ele>730</ele>
        <time>2018-05-16T15:26:49Z</time>
      </trkpt>
      <trkpt lat="44.32726" lon="5.73149">
        <ele>726</ele>
        <time>2018-05-16T15:27:49Z</time>
      </trkpt>
      <trkpt lat="44.32713" lon="5.73149">
        <ele>724</ele>
        <time>2018-05-16T15:28:49Z</time>
      </trkpt>
      <trkpt lat="44.327" lon="5.73141">
        <ele>721</ele>
        <time>2018-05-16T15:29:49Z</time>
      </trkpt>
      <trkpt lat="44.32679" lon="5.73115">
        <ele>718</ele>
        <time>2018-05-16T15:30:49Z</time>
      </trkpt>
      <trkpt lat="44.32664" lon="5.73102">
        <ele>716</ele>
        <time>2018-05-16T15:31:49Z</time>
      </trkpt>
      <trkpt lat="44.32651" lon="5.73104">
        <ele>716</ele>
        <time>2018-05-16T15:32:49Z</time>
      </trkpt>
      <trkpt lat="44.32612" lon="5.73126">
        <ele>715</ele>
        <time>2018-05-16T15:33:49Z</time>
      </trkpt>
      <trkpt lat="44.32591" lon="5.73152">
        <ele>713</ele>
        <time>2018-05-16T15:34:49Z</time>
      </trkpt>
      <trkpt lat="44.3258" lon="5.73186">
        <ele>709</ele>
        <time>2018-05-16T15:35:49Z</time>
      </trkpt>
      <trkpt lat="44.32541" lon="5.73263">
        <ele>698</ele>
        <time>2018-05-16T15:36:49Z</time>
      </trkpt>
      <trkpt lat="44.3252" lon="5.73285">
        <ele>694</ele>
        <time>2018-05-16T15:37:49Z</time>
      </trkpt>
      <trkpt lat="44.32492" lon="5.73285">
        <ele>692</ele>
        <time>2018-05-16T15:38:49Z</time>
      </trkpt>
      <trkpt lat="44.32456" lon="5.73302">
        <ele>682</ele>
        <time>2018-05-16T15:39:49Z</time>
      </trkpt>
      <trkpt lat="44.32434" lon="5.73289">
        <ele>681</ele>
        <time>2018-05-16T15:40:49Z</time>
      </trkpt>
      <trkpt lat="44.32391" lon="5.7324">
        <ele>679</ele>
        <time>2018-05-16T15:41:49Z</time>
      </trkpt>
      <trkpt lat="44.32363" lon="5.73235">
        <ele>675</ele>
        <time>2018-05-16T15:42:49Z</time>
      </trkpt>
      <trkpt lat="44.3235" lon="5.7324">
        <ele>672</ele>
        <time>2018-05-16T15:43:49Z</time>
      </trkpt>
      <trkpt lat="44.3234" lon="5.7325">
        <ele>670</ele>
        <time>2018-05-16T15:44:49Z</time>
      </trkpt>
      <trkpt lat="44.32335" lon="5.7327">
        <ele>668</ele>
        <time>2018-05-16T15:45:49Z</time>
      </trkpt>
      <trkpt lat="44.32346" lon="5.733">
        <ele>667</ele>
        <time>2018-05-16T15:46:49Z</time>
      </trkpt>
      <trkpt lat="44.32361" lon="5.73295">
        <ele>669</ele>
        <time>2018-05-16T15:47:49Z</time>
      </trkpt>
      <trkpt lat="44.32366" lon="5.73304">
        <ele>669</ele>
        <time>2018-05-16T15:48:49Z</time>
      </trkpt>
      <trkpt lat="44.32325" lon="5.73325">
        <ele>662</ele>
        <time>2018-05-16T15:49:49Z</time>
      </trkpt>
      <trkpt lat="44.32299" lon="5.73328">
        <ele>659</ele>
        <time>2018-05-16T15:50:49Z</time>
      </trkpt>
      <trkpt lat="44.32267" lon="5.73293">
        <ele>656</ele>
        <time>2018-05-16T15:51:49Z</time>
      </trkpt>
      <trkpt lat="44.32239" lon="5.73287">
        <ele>653</ele>
        <time>2018-05-16T15:52:49Z</time>
      </trkpt>
      <trkpt lat="44.32179" lon="5.73323">
        <ele>647</ele>
        <time>2018-05-16T15:53:49Z</time>
      </trkpt>
      <trkpt lat="44.32114" lon="5.73377">
        <ele>643</ele>
        <time>2018-05-16T15:54:49Z</time>
      </trkpt>
      <trkpt lat="44.32095" lon="5.73362">
        <ele>642</ele>
        <time>2018-05-16T15:55:49Z</time>
      </trkpt>
      <trkpt lat="44.32033" lon="5.73338">
        <ele>638</ele>
        <time>2018-05-16T15:56:49Z</time>
      </trkpt>
      <trkpt lat="44.3202" lon="5.73343">
        <ele>637</ele>
        <time>2018-05-16T15:57:49Z</time>
      </trkpt>
      <trkpt lat="44.31941" lon="5.73396">
        <ele>632</ele>
        <time>2018-05-16T15:58:49Z</time>
      </trkpt>
      <trkpt lat="44.31859" lon="5.73529">
        <ele>628</ele>
        <time>2018-05-16T15:59:49Z</time>
      </trkpt>
      <trkpt lat="44.31795" lon="5.73609">
        <ele>631</ele>
        <time>2018-05-16T16:00:49Z</time>
      </trkpt>
      <trkpt lat="44.3178" lon="5.73572">
        <ele>632</ele>
        <time>2018-05-16T16:01:49Z</time>
      </trkpt>
      <trkpt lat="44.31782" lon="5.73542">
        <ele>632</ele>
        <time>2018-05-16T16:02:49Z</time>
      </trkpt>
      <trkpt lat="44.31775" lon="5.73572">
        <ele>633</ele>
        <time>2018-05-16T16:03:49Z</time>
      </trkpt>
      <trkpt lat="44.3179" lon="5.73583">
        <ele>631</ele>
        <time>2018-05-16T16:04:49Z</time>
      </trkpt>
      <trkpt lat="44.3179" lon="5.73589">
        <ele>631</ele>
        <time>2018-05-16T16:05:49Z</time>
      </trkpt>
      <trkpt lat="44.31778" lon="5.73654">
        <ele>633</ele>
        <time>2018-05-16T16:06:49Z</time>
      </trkpt>
      <trkpt lat="44.3178" lon="5.7374">
        <ele>634</ele>
        <time>2018-05-16T16:07:49Z</time>
      </trkpt>
      <trkpt lat="44.31756" lon="5.73744">
        <ele>636</ele>
        <time>2018-05-16T16:08:49Z</time>
      </trkpt>
      <trkpt lat="44.31713" lon="5.73731">
        <ele>640</ele>
        <time>2018-05-16T16:09:49Z</time>
      </trkpt>
      <trkpt lat="44.31675" lon="5.73707">
        <ele>643</ele>
        <time>2018-05-16T16:10:49Z</time>
      </trkpt>
      <trkpt lat="44.31602" lon="5.73579">
        <ele>646</ele>
        <time>2018-05-16T16:11:49Z</time>
      </trkpt>
      <trkpt lat="44.31567" lon="5.73469">
        <ele>651</ele>
        <time>2018-05-16T16:12:49Z</time>
      </trkpt>
      <trkpt lat="44.31539" lon="5.73332">
        <ele>654</ele>
        <time>2018-05-16T16:13:49Z</time>
      </trkpt>
      <trkpt lat="44.31505" lon="5.73242">
        <ele>659</ele>
        <time>2018-05-16T16:14:49Z</time>
      </trkpt>
      <trkpt lat="44.31464" lon="5.73188">
        <ele>662</ele>
        <time>2018-05-16T16:15:49Z</time>
      </trkpt>
      <trkpt lat="44.31346" lon="5.73072">
        <ele>672</ele>
        <time>2018-05-16T16:16:49Z</time>
      </trkpt>
      <trkpt lat="44.31235" lon="5.72924">
        <ele>675</ele>
        <time>2018-05-16T16:17:49Z</time>
      </trkpt>
      <trkpt lat="44.31211" lon="5.72862">
        <ele>675</ele>
        <time>2018-05-16T16:18:49Z</time>
      </trkpt>
      <trkpt lat="44.31205" lon="5.72763">
        <ele>677</ele>
        <time>2018-05-16T16:19:49Z</time>
      </trkpt>
      <trkpt lat="44.312" lon="5.72759">
        <ele>678</ele>
        <time>2018-05-16T16:20:49Z</time>
      </trkpt>
      <trkpt lat="44.31196" lon="5.72765">
        <ele>678</ele>
        <time>2018-05-16T16:21:49Z</time>
      </trkpt>
      <trkpt lat="44.31203" lon="5.72757">
        <ele>678</ele>
        <time>2018-05-16T16:22:49Z</time>
      </trkpt>
      <trkpt lat="44.31205" lon="5.72761">
        <ele>677</ele>
        <time>2018-05-16T16:23:49Z</time>
      </trkpt>
      <trkpt lat="44.31194" lon="5.72748">
        <ele>679</ele>
        <time>2018-05-16T16:24:49Z</time>
      </trkpt>
      <trkpt lat="44.31187" lon="5.72714">
        <ele>677</ele>
        <time>2018-05-16T16:25:49Z</time>
      </trkpt>
      <trkpt lat="44.3114" lon="5.72619">
        <ele>676</ele>
        <time>2018-05-16T16:26:49Z</time>
      </trkpt>
      <trkpt lat="44.31134" lon="5.72562">
        <ele>675</ele>
        <time>2018-05-16T16:27:49Z</time>
      </trkpt>
      <trkpt lat="44.31145" lon="5.72403">
        <ele>675</ele>
        <time>2018-05-16T16:28:49Z</time>
      </trkpt>
      <trkpt lat="44.31175" lon="5.72313">
        <ele>673</ele>
        <time>2018-05-16T16:29:49Z</time>
      </trkpt>
      <trkpt lat="44.31183" lon="5.72295">
        <ele>672</ele>
        <time>2018-05-16T16:30:49Z</time>
      </trkpt>
      <trkpt lat="44.3128" lon="5.72182">
        <ele>664</ele>
        <time>2018-05-16T16:31:49Z</time>
      </trkpt>
      <trkpt lat="44.31303" lon="5.7213">
        <ele>664</ele>
        <time>2018-05-16T16:32:49Z</time>
      </trkpt>
      <trkpt lat="44.31306" lon="5.72111">
        <ele>664</ele>
        <time>2018-05-16T16:33:49Z</time>
      </trkpt>
      <trkpt lat="44.3128" lon="5.72059">
        <ele>666</ele>
        <time>2018-05-16T16:34:49Z</time>
      </trkpt>
      <trkpt lat="44.3128" lon="5.72042">
        <ele>666</ele>
        <time>2018-05-16T16:35:49Z</time>
      </trkpt>
      <trkpt lat="44.31283" lon="5.72032">
        <ele>667</ele>
        <time>2018-05-16T16:36:49Z</time>
      </trkpt>
      <trkpt lat="44.31295" lon="5.71986">
        <ele>667</ele>
        <time>2018-05-16T16:37:49Z</time>
      </trkpt>
      <trkpt lat="44.31273" lon="5.71985">
        <ele>670</ele>
        <time>2018-05-16T16:38:49Z</time>
      </trkpt>
      <trkpt lat="44.31266" lon="5.71978">
        <ele>671</ele>
        <time>2018-05-16T16:39:49Z</time>
      </trkpt>
      <trkpt lat="44.3122" lon="5.72022">
        <ele>672</ele>
        <time>2018-05-16T16:40:49Z</time>
      </trkpt>
      <trkpt lat="44.31182" lon="5.72001">
        <ele>676</ele>
        <time>2018-05-16T16:41:49Z</time>
      </trkpt>
      <trkpt lat="44.31158" lon="5.71843">
        <ele>684</ele>
        <time>2018-05-16T16:42:49Z</time>
      </trkpt>
      <trkpt lat="44.31115" lon="5.71718">
        <ele>687</ele>
        <time>2018-05-16T16:43:49Z</time>
      </trkpt>
      <trkpt lat="44.31006" lon="5.71721">
        <ele>693</ele>
        <time>2018-05-16T16:44:49Z</time>
      </trkpt>
      <trkpt lat="44.30997" lon="5.71724">
        <ele>695</ele>
        <time>2018-05-16T16:45:49Z</time>
      </trkpt>
      <trkpt lat="44.30984" lon="5.71729">
        <ele>697</ele>
        <time>2018-05-16T16:46:49Z</time>
      </trkpt>
      <trkpt lat="44.30936" lon="5.71582">
        <ele>709</ele>
        <time>2018-05-16T16:47:49Z</time>
      </trkpt>
      <trkpt lat="44.30897" lon="5.71398">
        <ele>723</ele>
        <time>2018-05-16T16:48:49Z</time>
      </trkpt>
      <trkpt lat="44.30893" lon="5.71226">
        <ele>744</ele>
        <time>2018-05-16T16:49:49Z</time>
      </trkpt>
      <trkpt lat="44.30912" lon="5.7112">
        <ele>755</ele>
        <time>2018-05-16T16:50:49Z</time>
      </trkpt>
      <trkpt lat="44.30911" lon="5.71111">
        <ele>756</ele>
        <time>2018-05-16T16:51:49Z</time>
      </trkpt>
      <trkpt lat="44.30924" lon="5.71096">
        <ele>755</ele>
        <time>2018-05-16T16:52:49Z</time>
      </trkpt>
      <trkpt lat="44.3091" lon="5.70982">
        <ele>755</ele>
        <time>2018-05-16T16:53:49Z</time>
      </trkpt>
      <trkpt lat="44.30944" lon="5.70972">
        <ele>749</ele>
        <time>2018-05-16T16:54:49Z</time>
      </trkpt>
      <trkpt lat="44.3101" lon="5.708">
        <ele>740</ele>
        <time>2018-05-16T16:55:49Z</time>
      </trkpt>
      <trkpt lat="44.3099" lon="5.70718">
        <ele>750</ele>
        <time>2018-05-16T16:56:49Z</time>
      </trkpt>
      <trkpt lat="44.31073" lon="5.70569">
        <ele>737</ele>
        <time>2018-05-16T16:57:49Z</time>
      </trkpt>
      <trkpt lat="44.31037" lon="5.70225">
        <ele>731</ele>
        <time>2018-05-16T16:58:49Z</time>
      </trkpt>
      <trkpt lat="44.31006" lon="5.7012">
        <ele>742</ele>
        <time>2018-05-16T16:59:49Z</time>
      </trkpt>
      <trkpt lat="44.31077" lon="5.70024">
        <ele>721</ele>
        <time>2018-05-16T17:00:49Z</time>
      </trkpt>
      <trkpt lat="44.31086" lon="5.69956">
        <ele>717</ele>
        <time>2018-05-16T17:01:49Z</time>
      </trkpt>
      <trkpt lat="44.31086" lon="5.69943">
        <ele>717</ele>
        <time>2018-05-16T17:02:49Z</time>
      </trkpt>
      <trkpt lat="44.3111" lon="5.69687">
        <ele>702</ele>
        <time>2018-05-16T17:03:49Z</time>
      </trkpt>
      <trkpt lat="44.31173" lon="5.69541">
        <ele>690</ele>
        <time>2018-05-16T17:04:49Z</time>
      </trkpt>
      <trkpt lat="44.31164" lon="5.696">
        <ele>691</ele>
        <time>2018-05-16T17:05:49Z</time>
      </trkpt>
      <trkpt lat="44.31177" lon="5.69629">
        <ele>689</ele>
        <time>2018-05-16T17:06:49Z</time>
      </trkpt>
      <trkpt lat="44.31186" lon="5.69538">
        <ele>688</ele>
        <time>2018-05-16T17:07:49Z</time>
      </trkpt>
      <trkpt lat="44.31244" lon="5.69482">
        <ele>683</ele>
        <time>2018-05-16T17:08:49Z</time>
      </trkpt>
      <trkpt lat="44.31358" lon="5.69455">
        <ele>693</ele>
        <time>2018-05-16T17:09:49Z</time>
      </trkpt>
      <trkpt lat="44.31359" lon="5.69459">
        <ele>693</ele>
        <time>2018-05-16T17:10:49Z</time>
      </trkpt>
      <trkpt lat="44.31357" lon="5.69351">
        <ele>687</ele>
        <time>2018-05-16T17:11:49Z</time>
      </trkpt>
      <trkpt lat="44.31353" lon="5.6933">
        <ele>686</ele>
        <time>2018-05-16T17:12:49Z</time>
      </trkpt>
      <trkpt lat="44.31355" lon="5.69291">
        <ele>687</ele>
        <time>2018-05-16T17:13:49Z</time>
      </trkpt>
      <trkpt lat="44.3134" lon="5.69248">
        <ele>688</ele>
        <time>2018-05-16T17:14:49Z</time>
      </trkpt>
      <trkpt lat="44.31308" lon="5.69214">
        <ele>689</ele>
        <time>2018-05-16T17:15:49Z</time>
      </trkpt>
      <trkpt lat="44.3129" lon="5.69182">
        <ele>690</ele>
        <time>2018-05-16T17:16:49Z</time>
      </trkpt>
      <trkpt lat="44.3128" lon="5.69145">
        <ele>691</ele>
        <time>2018-05-16T17:17:49Z</time>
      </trkpt>
      <trkpt lat="44.3128" lon="5.69036">
        <ele>697</ele>
        <time>2018-05-16T17:18:49Z</time>
      </trkpt>
      <trkpt lat="44.31282" lon="5.69017">
        <ele>698</ele>
        <time>2018-05-16T17:19:49Z</time>
      </trkpt>
      <trkpt lat="44.31299" lon="5.68944">
        <ele>705</ele>
        <time>2018-05-16T17:20:49Z</time>
      </trkpt>
      <trkpt lat="44.3131" lon="5.68929">
        <ele>702</ele>
        <time>2018-05-16T17:21:49Z</time>
      </trkpt>
      <trkpt lat="44.31336" lon="5.68909">
        <ele>692</ele>
        <time>2018-05-16T17:22:49Z</time>
      </trkpt>
      <trkpt lat="44.31348" lon="5.68899">
        <ele>695</ele>
        <time>2018-05-16T17:23:49Z</time>
      </trkpt>
      <trkpt lat="44.3137" lon="5.68901">
        <ele>698</ele>
        <time>2018-05-16T17:24:49Z</time>
      </trkpt>
      <trkpt lat="44.31381" lon="5.68884">
        <ele>698</ele>
        <time>2018-05-16T17:25:49Z</time>
      </trkpt>
      <trkpt lat="44.31434" lon="5.68845">
        <ele>698</ele>
        <time>2018-05-16T17:26:49Z</time>
      </trkpt>
      <trkpt lat="44.31456" lon="5.68817">
        <ele>702</ele>
        <time>2018-05-16T17:27:49Z</time>
      </trkpt>
      <trkpt lat="44.31479" lon="5.68757">
        <ele>704</ele>
        <time>2018-05-16T17:28:49Z</time>
      </trkpt>
      <trkpt lat="44.31492" lon="5.68671">
        <ele>703</ele>
        <time>2018-05-16T17:29:49Z</time>
      </trkpt>
      <trkpt lat="44.31486" lon="5.68611">
        <ele>701</ele>
        <time>2018-05-16T17:30:49Z</time>
      </trkpt>
      <trkpt lat="44.31496" lon="5.68523">
        <ele>701</ele>
        <time>2018-05-16T17:31:49Z</time>
      </trkpt>
      <trkpt lat="44.31494" lon="5.685">
        <ele>702</ele>
        <time>2018-05-16T17:32:49Z</time>
      </trkpt>
      <trkpt lat="44.3149" lon="5.68478">
        <ele>703</ele>
        <time>2018-05-16T17:33:49Z</time>
      </trkpt>
      <trkpt lat="44.3143" lon="5.68354">
        <ele>701</ele>
        <time>2018-05-16T17:34:49Z</time>
      </trkpt>
      <trkpt lat="44.31409" lon="5.68296">
        <ele>703</ele>
        <time>2018-05-16T17:35:49Z</time>
      </trkpt>
      <trkpt lat="44.31396" lon="5.68234">
        <ele>705</ele>
        <time>2018-05-16T17:36:49Z</time>
      </trkpt>
      <trkpt lat="44.31402" lon="5.68148">
        <ele>704</ele>
        <time>2018-05-16T17:37:49Z</time>
      </trkpt>
      <trkpt lat="44.31406" lon="5.68128">
        <ele>704</ele>
        <time>2018-05-16T17:38:49Z</time>
      </trkpt>
      <trkpt lat="44.31428" lon="5.68107">
        <ele>707</ele>
        <time>2018-05-16T17:39:49Z</time>
      </trkpt>
      <trkpt lat="44.31539" lon="5.67882">
        <ele>714</ele>
        <time>2018-05-16T17:40:49Z</time>
      </trkpt>
      <trkpt lat="44.31559" lon="5.67856">
        <ele>716</ele>
        <time>2018-05-16T17:41:49Z</time>
      </trkpt>
      <trkpt lat="44.31647" lon="5.67654">
        <ele>735</ele>
        <time>2018-05-16T17:42:49Z</time>
      </trkpt>
      <trkpt lat="44.31652" lon="5.67636">
        <ele>735</ele>
        <time>2018-05-16T17:43:49Z</time>
      </trkpt>
      <trkpt lat="44.31646" lon="5.67811">
        <ele>744</ele>
        <time>2018-05-16T17:44:49Z</time>
      </trkpt>
      <trkpt lat="44.3165" lon="5.6783">
        <ele>746</ele>
        <time>2018-05-16T17:45:49Z</time>
      </trkpt>
      <trkpt lat="44.31723" lon="5.67652">
        <ele>773</ele>
        <time>2018-05-16T17:46:49Z</time>
      </trkpt>
      <trkpt lat="44.31727" lon="5.67816">
        <ele>784</ele>
        <time>2018-05-16T17:47:49Z</time>
      </trkpt>
      <trkpt lat="44.31815" lon="5.67576">
        <ele>802</ele>
        <time>2018-05-16T17:48:49Z</time>
      </trkpt>
      <trkpt lat="44.31905" lon="5.67588">
        <ele>814</ele>
        <time>2018-05-16T17:49:49Z</time>
      </trkpt>
      <trkpt lat="44.321" lon="5.67537">
        <ele>823</ele>
        <time>2018-05-16T17:50:49Z</time>
      </trkpt>
      <trkpt lat="44.32171" lon="5.67579">
        <ele>841</ele>
        <time>2018-05-16T17:51:49Z</time>
      </trkpt>
      <trkpt lat="44.32184" lon="5.67604">
        <ele>851</ele>
        <time>2018-05-16T17:52:49Z</time>
      </trkpt>
      <trkpt lat="44.32231" lon="5.67513">
        <ele>841</ele>
        <time>2018-05-16T17:53:49Z</time>
      </trkpt>
      <trkpt lat="44.32245" lon="5.67508">
        <ele>843</ele>
        <time>2018-05-16T17:54:49Z</time>
      </trkpt>
      <trkpt lat="44.32356" lon="5.67546">
        <ele>862</ele>
        <time>2018-05-16T17:55:49Z</time>
      </trkpt>
      <trkpt lat="44.32186" lon="5.67686">
        <ele>878</ele>
        <time>2018-05-16T17:56:49Z</time>
      </trkpt>
      <trkpt lat="44.32595" lon="5.67848">
        <ele>916</ele>
        <time>2018-05-16T17:57:49Z</time>
      </trkpt>
      <trkpt lat="44.32191" lon="5.67956">
        <ele>954</ele>
        <time>2018-05-16T17:58:49Z</time>
      </trkpt>
      <trkpt lat="44.32177" lon="5.67961">
        <ele>957</ele>
        <time>2018-05-16T17:59:49Z</time>
      </trkpt>
      <trkpt lat="44.32602" lon="5.682">
        <ele>993</ele>
        <time>2018-05-16T18:00:49Z</time>
      </trkpt>
      <trkpt lat="44.32734" lon="5.68289">
        <ele>1004</ele>
        <time>2018-05-16T18:01:49Z</time>
      </trkpt>
      <trkpt lat="44.32743" lon="5.68308">
        <ele>1009</ele>
        <time>2018-05-16T18:02:49Z</time>
      </trkpt>
      <trkpt lat="44.32915" lon="5.68275">
        <ele>1024</ele>
        <time>2018-05-16T18:03:49Z</time>
      </trkpt>
      <trkpt lat="44.33076" lon="5.68309">
        <ele>1037</ele>
        <time>2018-05-16T18:04:49Z</time>
      </trkpt>
      <trkpt lat="44.33093" lon="5.68317">
        <ele>1039</ele>
        <time>2018-05-16T18:05:49Z</time>
      </trkpt>
      <trkpt lat="44.33315" lon="5.6828">
        <ele>1049</ele>
        <time>2018-05-16T18:06:49Z</time>
      </trkpt>
      <trkpt lat="44.33475" lon="5.68509">
        <ele>1098</ele>
        <time>2018-05-16T18:07:49Z</time>
      </trkpt>
      <trkpt lat="44.33493" lon="5.6834">
        <ele>1081</ele>
        <time>2018-05-16T18:08:49Z</time>
      </trkpt>
      <trkpt lat="44.33626" lon="5.68135">
        <ele>1096</ele>
        <time>2018-05-16T18:09:49Z</time>
      </trkpt>
      <trkpt lat="44.33694" lon="5.67794">
        <ele>1106</ele>
        <time>2018-05-16T18:10:49Z</time>
      </trkpt>
      <trkpt lat="44.33913" lon="5.67563">
        <ele>1127</ele>
        <time>2018-05-16T18:11:49Z</time>
      </trkpt>
      <trkpt lat="44.34075" lon="5.67403">
        <ele>1149</ele>
        <time>2018-05-16T18:12:49Z</time>
      </trkpt>
      <trkpt lat="44.34155" lon="5.67439">
        <ele>1135</ele>
        <time>2018-05-16T18:13:49Z</time>
      </trkpt>
      <trkpt lat="44.34149" lon="5.67363">
        <ele>1146</ele>
        <time>2018-05-16T18:14:49Z</time>
      </trkpt>
      <trkpt lat="44.33919" lon="5.67375">
        <ele>1169</ele>
        <time>2018-05-16T18:15:49Z</time>
      </trkpt>
      <trkpt lat="44.33901" lon="5.67374">
        <ele>1166</ele>
        <time>2018-05-16T18:16:49Z</time>
      </trkpt>
      <trkpt lat="44.33811" lon="5.67218">
        <ele>1185</ele>
        <time>2018-05-16T18:17:49Z</time>
      </trkpt>
      <trkpt lat="44.33803" lon="5.67199">
        <ele>1190</ele>
        <time>2018-05-16T18:18:49Z</time>
      </trkpt>
      <trkpt lat="44.33646" lon="5.67177">
        <ele>1196</ele>
        <time>2018-05-16T18:19:49Z</time>
      </trkpt>
      <trkpt lat="44.33624" lon="5.67157">
        <ele>1197</ele>
        <time>2018-05-16T18:20:49Z</time>
      </trkpt>
      <trkpt lat="44.33613" lon="5.66623">
        <ele>1196</ele>
        <time>2018-05-16T18:21:49Z</time>
      </trkpt>
      <trkpt lat="44.33614" lon="5.66592">
        <ele>1196</ele>
        <time>2018-05-16T18:22:49Z</time>
      </trkpt>
      <trkpt lat="44.3359" lon="5.6634">
        <ele>1202</ele>
        <time>2018-05-16T18:23:49Z</time>
      </trkpt>
      <trkpt lat="44.33586" lon="5.66321">
        <ele>1201</ele>
        <time>2018-05-16T18:24:49Z</time>
      </trkpt>
      <trkpt lat="44.33604" lon="5.66046">
        <ele>1189</ele>
        <time>2018-05-16T18:25:49Z</time>
      </trkpt>
      <trkpt lat="44.33652" lon="5.65792">
        <ele>1178</ele>
        <time>2018-05-16T18:26:49Z</time>
      </trkpt>
      <trkpt lat="44.3346" lon="5.65442">
        <ele>1123</ele>
        <time>2018-05-16T18:27:49Z</time>
      </trkpt>
      <trkpt lat="44.33993" lon="5.6521">
        <ele>1085</ele>
        <time>2018-05-16T18:28:49Z</time>
      </trkpt>
      <trkpt lat="44.34008" lon="5.65192">
        <ele>1082</ele>
        <time>2018-05-16T18:29:49Z</time>
      </trkpt>
      <trkpt lat="44.34028" lon="5.65157">
        <ele>1080</ele>
        <time>2018-05-16T18:30:49Z</time>
      </trkpt>
      <trkpt lat="44.34033" lon="5.65163">
        <ele>1081</ele>
        <time>2018-05-16T18:31:49Z</time>
      </trkpt>
      <trkpt lat="44.34033" lon="5.65157">
        <ele>1081</ele>
        <time>2018-05-16T18:32:49Z</time>
      </trkpt>
      <trkpt lat="44.34031" lon="5.65161">
        <ele>1081</ele>
        <time>2018-05-16T18:33:49Z</time>
      </trkpt>
      <trkpt lat="44.34033" lon="5.65161">
        <ele>1081</ele>
        <time>2018-05-16T18:34:49Z</time>
      </trkpt>
      <trkpt lat="44.34035" lon="5.65131">
        <ele>1081</ele>
        <time>2018-05-16T18:35:49Z</time>
      </trkpt>
      <trkpt lat="44.34052" lon="5.65094">
        <ele>1085</ele>
        <time>2018-05-16T18:36:49Z</time>
      </trkpt>
      <trkpt lat="44.3405" lon="5.64996">
        <ele>1090</ele>
        <time>2018-05-16T18:37:49Z</time>
      </trkpt>
      <trkpt lat="44.34046" lon="5.64976">
        <ele>1093</ele>
        <time>2018-05-16T18:38:49Z</time>
      </trkpt>
      <trkpt lat="44.34037" lon="5.64959">
        <ele>1092</ele>
        <time>2018-05-16T18:39:49Z</time>
      </trkpt>
      <trkpt lat="44.34003" lon="5.64929">
        <ele>1082</ele>
        <time>2018-05-16T18:40:49Z</time>
      </trkpt>
      <trkpt lat="44.33981" lon="5.64903">
        <ele>1077</ele>
        <time>2018-05-16T18:41:49Z</time>
      </trkpt>
      <trkpt lat="44.33971" lon="5.64811">
        <ele>1083</ele>
        <time>2018-05-16T18:42:49Z</time>
      </trkpt>
      <trkpt lat="44.33947" lon="5.64745">
        <ele>1078</ele>
        <time>2018-05-16T18:43:49Z</time>
      </trkpt>
      <trkpt lat="44.33947" lon="5.64684">
        <ele>1087</ele>
        <time>2018-05-16T18:44:49Z</time>
      </trkpt>
      <trkpt lat="44.33943" lon="5.64661">
        <ele>1090</ele>
        <time>2018-05-16T18:45:49Z</time>
      </trkpt>
      <trkpt lat="44.33932" lon="5.64646">
        <ele>1090</ele>
        <time>2018-05-16T18:46:49Z</time>
      </trkpt>
      <trkpt lat="44.33906" lon="5.6465">
        <ele>1082</ele>
        <time>2018-05-16T18:47:49Z</time>
      </trkpt>
      <trkpt lat="44.33861" lon="5.64639">
        <ele>1084</ele>
        <time>2018-05-16T18:48:49Z</time>
      </trkpt>
      <trkpt lat="44.33848" lon="5.64646">
        <ele>1081</ele>
        <time>2018-05-16T18:49:49Z</time>
      </trkpt>
      <trkpt lat="44.33825" lon="5.64663">
        <ele>1074</ele>
        <time>2018-05-16T18:50:49Z</time>
      </trkpt>
      <trkpt lat="44.33788" lon="5.64676">
        <ele>1067</ele>
        <time>2018-05-16T18:51:49Z</time>
      </trkpt>
      <trkpt lat="44.33775" lon="5.64674">
        <ele>1066</ele>
        <time>2018-05-16T18:52:49Z</time>
      </trkpt>
      <trkpt lat="44.33732" lon="5.6465">
        <ele>1068</ele>
        <time>2018-05-16T18:53:49Z</time>
      </trkpt>
      <trkpt lat="44.33704" lon="5.64648">
        <ele>1065</ele>
        <time>2018-05-16T18:54:49Z</time>
      </trkpt>
      <trkpt lat="44.33698" lon="5.64652">
        <ele>1065</ele>
        <time>2018-05-16T18:55:49Z</time>
      </trkpt>
      <trkpt lat="44.33696" lon="5.64646">
        <ele>1065</ele>
        <time>2018-05-16T18:56:49Z</time>
      </trkpt>
      <trkpt lat="44.337" lon="5.64644">
        <ele>1065</ele>
        <time>2018-05-16T18:57:49Z</time>
      </trkpt>
      <trkpt lat="44.33702" lon="5.64633">
        <ele>1067</ele>
        <time>2018-05-16T18:58:49Z</time>
      </trkpt>
      <trkpt lat="44.33717" lon="5.64618">
        <ele>1070</ele>
        <time>2018-05-16T18:59:49Z</time>
      </trkpt>
      <trkpt lat="44.33735" lon="5.64571">
        <ele>1081</ele>
        <time>2018-05-16T19:00:49Z</time>
      </trkpt>
      <trkpt lat="44.33732" lon="5.64515">
        <ele>1086</ele>
        <time>2018-05-16T19:01:49Z</time>
      </trkpt>
      <trkpt lat="44.33724" lon="5.64478">
        <ele>1082</ele>
        <time>2018-05-16T19:02:49Z</time>
      </trkpt>
      <trkpt lat="44.33728" lon="5.64466">
        <ele>1081</ele>
        <time>2018-05-16T19:03:49Z</time>
      </trkpt>
      <trkpt lat="44.33745" lon="5.64446">
        <ele>1084</ele>
        <time>2018-05-16T19:04:49Z</time>
      </trkpt>
      <trkpt lat="44.33765" lon="5.64438">
        <ele>1094</ele>
        <time>2018-05-16T19:05:49Z</time>
      </trkpt>
      <trkpt lat="44.33773" lon="5.64427">
        <ele>1098</ele>
        <time>2018-05-16T19:06:49Z</time>
      </trkpt>
      <trkpt lat="44.33775" lon="5.64416">
        <ele>1098</ele>
        <time>2018-05-16T19:07:49Z</time>
      </trkpt>
      <trkpt lat="44.33786" lon="5.64405">
        <ele>1105</ele>
        <time>2018-05-16T19:08:49Z</time>
      </trkpt>
      <trkpt lat="44.33803" lon="5.6438">
        <ele>1113</ele>
        <time>2018-05-16T19:09:49Z</time>
      </trkpt>
      <trkpt lat="44.33805" lon="5.64369">
        <ele>1114</ele>
        <time>2018-05-16T19:10:49Z</time>
      </trkpt>
      <trkpt lat="44.3381" lon="5.64343">
        <ele>1115</ele>
        <time>2018-05-16T19:11:49Z</time>
      </trkpt>
      <trkpt lat="44.33805" lon="5.64328">
        <ele>1110</ele>
        <time>2018-05-16T19:12:49Z</time>
      </trkpt>
      <trkpt lat="44.33807" lon="5.64315">
        <ele>1111</ele>
        <time>2018-05-16T19:13:49Z</time>
      </trkpt>
      <trkpt lat="44.33801" lon="5.64268">
        <ele>1105</ele>
        <time>2018-05-16T19:14:49Z</time>
      </trkpt>
      <trkpt lat="44.33807" lon="5.64232">
        <ele>1105</ele>
        <time>2018-05-16T19:15:49Z</time>
      </trkpt>
      <trkpt lat="44.33818" lon="5.64208">
        <ele>1108</ele>
        <time>2018-05-16T19:16:49Z</time>
      </trkpt>
      <trkpt lat="44.33868" lon="5.64161">
        <ele>1121</ele>
        <time>2018-05-16T19:17:49Z</time>
      </trkpt>
      <trkpt lat="44.339" lon="5.64118">
        <ele>1118</ele>
        <time>2018-05-16T19:18:49Z</time>
      </trkpt>
      <trkpt lat="44.33917" lon="5.64107">
        <ele>1120</ele>
        <time>2018-05-16T19:19:49Z</time>
      </trkpt>
      <trkpt lat="44.33941" lon="5.64101">
        <ele>1127</ele>
        <time>2018-05-16T19:20:49Z</time>
      </trkpt>
      <trkpt lat="44.33964" lon="5.64088">
        <ele>1131</ele>
        <time>2018-05-16T19:21:49Z</time>
      </trkpt>
      <trkpt lat="44.33986" lon="5.64039">
        <ele>1131</ele>
        <time>2018-05-16T19:22:49Z</time>
      </trkpt>
      <trkpt lat="44.33998" lon="5.64021">
        <ele>1135</ele>
        <time>2018-05-16T19:23:49Z</time>
      </trkpt>
      <trkpt lat="44.33988" lon="5.64002">
        <ele>1127</ele>
        <time>2018-05-16T19:24:49Z</time>
      </trkpt>
      <trkpt lat="44.33979" lon="5.63972">
        <ele>1121</ele>
        <time>2018-05-16T19:25:49Z</time>
      </trkpt>
      <trkpt lat="44.33977" lon="5.6394">
        <ele>1119</ele>
        <time>2018-05-16T19:26:49Z</time>
      </trkpt>
      <trkpt lat="44.33981" lon="5.63912">
        <ele>1122</ele>
        <time>2018-05-16T19:27:49Z</time>
      </trkpt>
      <trkpt lat="44.34003" lon="5.63871">
        <ele>1128</ele>
        <time>2018-05-16T19:28:49Z</time>
      </trkpt>
      <trkpt lat="44.34016" lon="5.63858">
        <ele>1132</ele>
        <time>2018-05-16T19:29:49Z</time>
      </trkpt>
      <trkpt lat="44.34039" lon="5.63848">
        <ele>1143</ele>
        <time>2018-05-16T19:30:49Z</time>
      </trkpt>
      <trkpt lat="44.3405" lon="5.63835">
        <ele>1146</ele>
        <time>2018-05-16T19:31:49Z</time>
      </trkpt>
      <trkpt lat="44.34054" lon="5.63809">
        <ele>1146</ele>
        <time>2018-05-16T19:32:49Z</time>
      </trkpt>
      <trkpt lat="44.3405" lon="5.63764">
        <ele>1141</ele>
        <time>2018-05-16T19:33:49Z</time>
      </trkpt>
      <trkpt lat="44.34052" lon="5.63749">
        <ele>1141</ele>
        <time>2018-05-16T19:34:49Z</time>
      </trkpt>
      <trkpt lat="44.34039" lon="5.63685">
        <ele>1139</ele>
        <time>2018-05-16T19:35:49Z</time>
      </trkpt>
      <trkpt lat="44.34037" lon="5.63669">
        <ele>1140</ele>
        <time>2018-05-16T19:36:49Z</time>
      </trkpt>
      <trkpt lat="44.34026" lon="5.63629">
        <ele>1140</ele>
        <time>2018-05-16T19:37:49Z</time>
      </trkpt>
      <trkpt lat="44.34022" lon="5.63603">
        <ele>1142</ele>
        <time>2018-05-16T19:38:49Z</time>
      </trkpt>
      <trkpt lat="44.34016" lon="5.6359">
        <ele>1142</ele>
        <time>2018-05-16T19:39:49Z</time>
      </trkpt>
      <trkpt lat="44.34009" lon="5.63543">
        <ele>1145</ele>
        <time>2018-05-16T19:40:49Z</time>
      </trkpt>
      <trkpt lat="44.34003" lon="5.63528">
        <ele>1145</ele>
        <time>2018-05-16T19:41:49Z</time>
      </trkpt>
      <trkpt lat="44.33981" lon="5.63491">
        <ele>1140</ele>
        <time>2018-05-16T19:42:49Z</time>
      </trkpt>
      <trkpt lat="44.33977" lon="5.63468">
        <ele>1140</ele>
        <time>2018-05-16T19:43:49Z</time>
      </trkpt>
      <trkpt lat="44.33977" lon="5.63474">
        <ele>1140</ele>
        <time>2018-05-16T19:44:49Z</time>
      </trkpt>
      <trkpt lat="44.33983" lon="5.63406">
        <ele>1149</ele>
        <time>2018-05-16T19:45:49Z</time>
      </trkpt>
      <trkpt lat="44.33981" lon="5.6338">
        <ele>1149</ele>
        <time>2018-05-16T19:46:49Z</time>
      </trkpt>
      <trkpt lat="44.33979" lon="5.63373">
        <ele>1149</ele>
        <time>2018-05-16T19:47:49Z</time>
      </trkpt>
      <trkpt lat="44.33968" lon="5.63363">
        <ele>1147</ele>
        <time>2018-05-16T19:48:49Z</time>
      </trkpt>
      <trkpt lat="44.33956" lon="5.63356">
        <ele>1146</ele>
        <time>2018-05-16T19:49:49Z</time>
      </trkpt>
      <trkpt lat="44.33964" lon="5.63365">
        <ele>1147</ele>
        <time>2018-05-16T19:50:49Z</time>
      </trkpt>
      <trkpt lat="44.33981" lon="5.63376">
        <ele>1149</ele>
        <time>2018-05-16T19:51:49Z</time>
      </trkpt>
      <trkpt lat="44.33986" lon="5.63371">
        <ele>1151</ele>
        <time>2018-05-16T19:52:49Z</time>
      </trkpt>
      <trkpt lat="44.33996" lon="5.63367">
        <ele>1152</ele>
        <time>2018-05-16T19:53:49Z</time>
      </trkpt>
      <trkpt lat="44.34013" lon="5.6335">
        <ele>1151</ele>
        <time>2018-05-16T19:54:49Z</time>
      </trkpt>
      <trkpt lat="44.34046" lon="5.63328">
        <ele>1146</ele>
        <time>2018-05-16T19:55:49Z</time>
      </trkpt>
      <trkpt lat="44.34059" lon="5.63322">
        <ele>1144</ele>
        <time>2018-05-16T19:56:49Z</time>
      </trkpt>
      <trkpt lat="44.34067" lon="5.63324">
        <ele>1143</ele>
        <time>2018-05-16T19:57:49Z</time>
      </trkpt>
      <trkpt lat="44.3408" lon="5.6332">
        <ele>1141</ele>
        <time>2018-05-16T19:58:49Z</time>
      </trkpt>
      <trkpt lat="44.34101" lon="5.6329">
        <ele>1134</ele>
        <time>2018-05-16T19:59:49Z</time>
      </trkpt>
      <trkpt lat="44.34147" lon="5.63242">
        <ele>1122</ele>
        <time>2018-05-16T20:00:49Z</time>
      </trkpt>
      <trkpt lat="44.34179" lon="5.63174">
        <ele>1109</ele>
        <time>2018-05-16T20:01:49Z</time>
      </trkpt>
      <trkpt lat="44.34187" lon="5.63167">
        <ele>1108</ele>
        <time>2018-05-16T20:02:49Z</time>
      </trkpt>
      <trkpt lat="44.34219" lon="5.63127">
        <ele>1099</ele>
        <time>2018-05-16T20:03:49Z</time>
      </trkpt>
      <trkpt lat="44.34237" lon="5.63103">
        <ele>1094</ele>
        <time>2018-05-16T20:04:49Z</time>
      </trkpt>
      <trkpt lat="44.34273" lon="5.63082">
        <ele>1089</ele>
        <time>2018-05-16T20:05:49Z</time>
      </trkpt>
      <trkpt lat="44.34305" lon="5.63056">
        <ele>1084</ele>
        <time>2018-05-16T20:06:49Z</time>
      </trkpt>
      <trkpt lat="44.34333" lon="5.62972">
        <ele>1070</ele>
        <time>2018-05-16T20:07:49Z</time>
      </trkpt>
      <trkpt lat="44.34363" lon="5.62942">
        <ele>1063</ele>
        <time>2018-05-16T20:08:49Z</time>
      </trkpt>
      <trkpt lat="44.34378" lon="5.62914">
        <ele>1059</ele>
        <time>2018-05-16T20:09:49Z</time>
      </trkpt>
      <trkpt lat="44.34428" lon="5.62852">
        <ele>1053</ele>
        <time>2018-05-16T20:10:49Z</time>
      </trkpt>
      <trkpt lat="44.34445" lon="5.62826">
        <ele>1049</ele>
        <time>2018-05-16T20:11:49Z</time>
      </trkpt>
      <trkpt lat="44.34496" lon="5.62773">
        <ele>1046</ele>
        <time>2018-05-16T20:12:49Z</time>
      </trkpt>
      <trkpt lat="44.3452" lon="5.62738">
        <ele>1041</ele>
        <time>2018-05-16T20:13:49Z</time>
      </trkpt>
      <trkpt lat="44.34541" lon="5.627">
        <ele>1035</ele>
        <time>2018-05-16T20:14:49Z</time>
      </trkpt>
      <trkpt lat="44.34558" lon="5.6268">
        <ele>1033</ele>
        <time>2018-05-16T20:15:49Z</time>
      </trkpt>
      <trkpt lat="44.34571" lon="5.62655">
        <ele>1031</ele>
        <time>2018-05-16T20:16:49Z</time>
      </trkpt>
      <trkpt lat="44.34591" lon="5.62633">
        <ele>1027</ele>
        <time>2018-05-16T20:17:49Z</time>
      </trkpt>
      <trkpt lat="44.34642" lon="5.62554">
        <ele>1014</ele>
        <time>2018-05-16T20:18:49Z</time>
      </trkpt>
      <trkpt lat="44.34687" lon="5.62502">
        <ele>1005</ele>
        <time>2018-05-16T20:19:49Z</time>
      </trkpt>
      <trkpt lat="44.34754" lon="5.62386">
        <ele>981</ele>
        <time>2018-05-16T20:20:49Z</time>
      </trkpt>
      <trkpt lat="44.34792" lon="5.62331">
        <ele>971</ele>
        <time>2018-05-16T20:21:49Z</time>
      </trkpt>
      <trkpt lat="44.34825" lon="5.62264">
        <ele>960</ele>
        <time>2018-05-16T20:22:49Z</time>
      </trkpt>
      <trkpt lat="44.34837" lon="5.62238">
        <ele>956</ele>
        <time>2018-05-16T20:23:49Z</time>
      </trkpt>
      <trkpt lat="44.34861" lon="5.62208">
        <ele>949</ele>
        <time>2018-05-16T20:24:49Z</time>
      </trkpt>
      <trkpt lat="44.34917" lon="5.62142">
        <ele>939</ele>
        <time>2018-05-16T20:25:49Z</time>
      </trkpt>
      <trkpt lat="44.34928" lon="5.62133">
        <ele>936</ele>
        <time>2018-05-16T20:26:49Z</time>
      </trkpt>
      <trkpt lat="44.34975" lon="5.62101">
        <ele>926</ele>
        <time>2018-05-16T20:27:49Z</time>
      </trkpt>
      <trkpt lat="44.34996" lon="5.62084">
        <ele>922</ele>
        <time>2018-05-16T20:28:49Z</time>
      </trkpt>
      <trkpt lat="44.35031" lon="5.62062">
        <ele>914</ele>
        <time>2018-05-16T20:29:49Z</time>
      </trkpt>
      <trkpt lat="44.35069" lon="5.62026">
        <ele>906</ele>
        <time>2018-05-16T20:30:49Z</time>
      </trkpt>
      <trkpt lat="44.35091" lon="5.62013">
        <ele>903</ele>
        <time>2018-05-16T20:31:49Z</time>
      </trkpt>
      <trkpt lat="44.35123" lon="5.62004">
        <ele>898</ele>
        <time>2018-05-16T20:32:49Z</time>
      </trkpt>
      <trkpt lat="44.35136" lon="5.62004">
        <ele>896</ele>
        <time>2018-05-16T20:33:49Z</time>
      </trkpt>
      <trkpt lat="44.35157" lon="5.62017">
        <ele>893</ele>
        <time>2018-05-16T20:34:49Z</time>
      </trkpt>
      <trkpt lat="44.35204" lon="5.62019">
        <ele>883</ele>
        <time>2018-05-16T20:35:49Z</time>
      </trkpt>
      <trkpt lat="44.35215" lon="5.62017">
        <ele>881</ele>
        <time>2018-05-16T20:36:49Z</time>
      </trkpt>
      <trkpt lat="44.35226" lon="5.62013">
        <ele>878</ele>
        <time>2018-05-16T20:37:49Z</time>
      </trkpt>
      <trkpt lat="44.35264" lon="5.61968">
        <ele>872</ele>
        <time>2018-05-16T20:38:49Z</time>
      </trkpt>
      <trkpt lat="44.35322" lon="5.6194">
        <ele>862</ele>
        <time>2018-05-16T20:39:49Z</time>
      </trkpt>
      <trkpt lat="44.35359" lon="5.6191">
        <ele>857</ele>
        <time>2018-05-16T20:40:49Z</time>
      </trkpt>
      <trkpt lat="44.3537" lon="5.61876">
        <ele>853</ele>
        <time>2018-05-16T20:41:49Z</time>
      </trkpt>
      <trkpt lat="44.35355" lon="5.61809">
        <ele>853</ele>
        <time>2018-05-16T20:42:49Z</time>
      </trkpt>
      <trkpt lat="44.35348" lon="5.61758">
        <ele>850</ele>
        <time>2018-05-16T20:43:49Z</time>
      </trkpt>
      <trkpt lat="44.35352" lon="5.61723">
        <ele>847</ele>
        <time>2018-05-16T20:44:49Z</time>
      </trkpt>
      <trkpt lat="44.35359" lon="5.61706">
        <ele>845</ele>
        <time>2018-05-16T20:45:49Z</time>
      </trkpt>
      <trkpt lat="44.35367" lon="5.61698">
        <ele>843</ele>
        <time>2018-05-16T20:46:49Z</time>
      </trkpt>
      <trkpt lat="44.35393" lon="5.61691">
        <ele>838</ele>
        <time>2018-05-16T20:47:49Z</time>
      </trkpt>
      <trkpt lat="44.35417" lon="5.61676">
        <ele>835</ele>
        <time>2018-05-16T20:48:49Z</time>
      </trkpt>
      <trkpt lat="44.35438" lon="5.61657">
        <ele>829</ele>
        <time>2018-05-16T20:49:49Z</time>
      </trkpt>
      <trkpt lat="44.35455" lon="5.61633">
        <ele>823</ele>
        <time>2018-05-16T20:50:49Z</time>
      </trkpt>
      <trkpt lat="44.35458" lon="5.61616">
        <ele>821</ele>
        <time>2018-05-16T20:51:49Z</time>
      </trkpt>
      <trkpt lat="44.35443" lon="5.61588">
        <ele>823</ele>
        <time>2018-05-16T20:52:49Z</time>
      </trkpt>
      <trkpt lat="44.35421" lon="5.61562">
        <ele>824</ele>
        <time>2018-05-16T20:53:49Z</time>
      </trkpt>
      <trkpt lat="44.35417" lon="5.61549">
        <ele>823</ele>
        <time>2018-05-16T20:54:49Z</time>
      </trkpt>
      <trkpt lat="44.35425" lon="5.61552">
        <ele>822</ele>
        <time>2018-05-16T20:55:49Z</time>
      </trkpt>
      <trkpt lat="44.35445" lon="5.61571">
        <ele>820</ele>
        <time>2018-05-16T20:56:49Z</time>
      </trkpt>
      <trkpt lat="44.35473" lon="5.61584">
        <ele>816</ele>
        <time>2018-05-16T20:57:49Z</time>
      </trkpt>
      <trkpt lat="44.35524" lon="5.61592">
        <ele>806</ele>
        <time>2018-05-16T20:58:49Z</time>
      </trkpt>
      <trkpt lat="44.35528" lon="5.61607">
        <ele>806</ele>
        <time>2018-05-16T20:59:49Z</time>
      </trkpt>
      <trkpt lat="44.35511" lon="5.61695">
        <ele>812</ele>
        <time>2018-05-16T21:00:49Z</time>
      </trkpt>
      <trkpt lat="44.355" lon="5.6173">
        <ele>811</ele>
        <time>2018-05-16T21:01:49Z</time>
      </trkpt>
      <trkpt lat="44.35505" lon="5.61747">
        <ele>810</ele>
        <time>2018-05-16T21:02:49Z</time>
      </trkpt>
      <trkpt lat="44.35518" lon="5.61758">
        <ele>810</ele>
        <time>2018-05-16T21:03:49Z</time>
      </trkpt>
      <trkpt lat="44.35526" lon="5.6174">
        <ele>810</ele>
        <time>2018-05-16T21:04:49Z</time>
      </trkpt>
      <trkpt lat="44.35524" lon="5.61728">
        <ele>810</ele>
        <time>2018-05-16T21:05:49Z</time>
      </trkpt>
      <trkpt lat="44.35531" lon="5.6171">
        <ele>810</ele>
        <time>2018-05-16T21:06:49Z</time>
      </trkpt>
      <trkpt lat="44.3555" lon="5.6168">
        <ele>808</ele>
        <time>2018-05-16T21:07:49Z</time>
      </trkpt>
      <trkpt lat="44.35567" lon="5.61631">
        <ele>802</ele>
        <time>2018-05-16T21:08:49Z</time>
      </trkpt>
      <trkpt lat="44.35571" lon="5.61588">
        <ele>798</ele>
        <time>2018-05-16T21:09:49Z</time>
      </trkpt>
      <trkpt lat="44.35567" lon="5.61571">
        <ele>798</ele>
        <time>2018-05-16T21:10:49Z</time>
      </trkpt>
      <trkpt lat="44.35571" lon="5.61554">
        <ele>797</ele>
        <time>2018-05-16T21:11:49Z</time>
      </trkpt>
      <trkpt lat="44.35582" lon="5.61541">
        <ele>795</ele>
        <time>2018-05-16T21:12:49Z</time>
      </trkpt>
      <trkpt lat="44.35593" lon="5.61532">
        <ele>796</ele>
        <time>2018-05-16T21:13:49Z</time>
      </trkpt>
      <trkpt lat="44.35661" lon="5.61468">
        <ele>796</ele>
        <time>2018-05-16T21:14:49Z</time>
      </trkpt>
      <trkpt lat="44.35674" lon="5.61459">
        <ele>795</ele>
        <time>2018-05-16T21:15:49Z</time>
      </trkpt>
      <trkpt lat="44.35715" lon="5.61444">
        <ele>793</ele>
        <time>2018-05-16T21:16:49Z</time>
      </trkpt>
      <trkpt lat="44.35756" lon="5.61427">
        <ele>790</ele>
        <time>2018-05-16T21:17:49Z</time>
      </trkpt>
      <trkpt lat="44.35788" lon="5.61414">
        <ele>786</ele>
        <time>2018-05-16T21:18:49Z</time>
      </trkpt>
      <trkpt lat="44.35786" lon="5.61408">
        <ele>787</ele>
        <time>2018-05-16T21:19:49Z</time>
      </trkpt>
      <trkpt lat="44.35792" lon="5.61419">
        <ele>786</ele>
        <time>2018-05-16T21:20:49Z</time>
      </trkpt>
      <trkpt lat="44.35788" lon="5.61414">
        <ele>786</ele>
        <time>2018-05-16T21:21:49Z</time>
      </trkpt>
      <trkpt lat="44.35788" lon="5.61416">
        <ele>786</ele>
        <time>2018-05-16T21:22:49Z</time>
      </trkpt>
      <trkpt lat="44.35797" lon="5.61419">
        <ele>785</ele>
        <time>2018-05-16T21:23:49Z</time>
      </trkpt>
      <trkpt lat="44.35809" lon="5.61414">
        <ele>784</ele>
        <time>2018-05-16T21:24:49Z</time>
      </trkpt>
      <trkpt lat="44.3582" lon="5.61404">
        <ele>784</ele>
        <time>2018-05-16T21:25:49Z</time>
      </trkpt>
      <trkpt lat="44.35844" lon="5.61389">
        <ele>783</ele>
        <time>2018-05-16T21:26:49Z</time>
      </trkpt>
      <trkpt lat="44.35867" lon="5.61348">
        <ele>784</ele>
        <time>2018-05-16T21:27:49Z</time>
      </trkpt>
      <trkpt lat="44.35887" lon="5.61326">
        <ele>785</ele>
        <time>2018-05-16T21:28:49Z</time>
      </trkpt>
      <trkpt lat="44.35897" lon="5.61322">
        <ele>785</ele>
        <time>2018-05-16T21:29:49Z</time>
      </trkpt>
      <trkpt lat="44.35921" lon="5.61337">
        <ele>784</ele>
        <time>2018-05-16T21:30:49Z</time>
      </trkpt>
      <trkpt lat="44.35923" lon="5.61331">
        <ele>785</ele>
        <time>2018-05-16T21:31:49Z</time>
      </trkpt>
      <trkpt lat="44.35915" lon="5.61318">
        <ele>784</ele>
        <time>2018-05-16T21:32:49Z</time>
      </trkpt>
      <trkpt lat="44.3591" lon="5.61303">
        <ele>786</ele>
        <time>2018-05-16T21:33:49Z</time>
      </trkpt>
      <trkpt lat="44.35912" lon="5.61268">
        <ele>788</ele>
        <time>2018-05-16T21:34:49Z</time>
      </trkpt>
      <trkpt lat="44.35919" lon="5.61251">
        <ele>791</ele>
        <time>2018-05-16T21:35:49Z</time>
      </trkpt>
      <trkpt lat="44.35919" lon="5.61213">
        <ele>794</ele>
        <time>2018-05-16T21:36:49Z</time>
      </trkpt>
      <trkpt lat="44.35891" lon="5.61086">
        <ele>798</ele>
        <time>2018-05-16T21:37:49Z</time>
      </trkpt>
      <trkpt lat="44.35878" lon="5.60957">
        <ele>798</ele>
        <time>2018-05-16T21:38:49Z</time>
      </trkpt>
      <trkpt lat="44.35887" lon="5.6088">
        <ele>799</ele>
        <time>2018-05-16T21:39:49Z</time>
      </trkpt>
      <trkpt lat="44.35882" lon="5.60846">
        <ele>796</ele>
        <time>2018-05-16T21:40:49Z</time>
      </trkpt>
      <trkpt lat="44.35885" lon="5.60781">
        <ele>795</ele>
        <time>2018-05-16T21:41:49Z</time>
      </trkpt>
      <trkpt lat="44.35895" lon="5.60753">
        <ele>794</ele>
        <time>2018-05-16T21:42:49Z</time>
      </trkpt>
      <trkpt lat="44.35921" lon="5.60719">
        <ele>792</ele>
        <time>2018-05-16T21:43:49Z</time>
      </trkpt>
      <trkpt lat="44.3594" lon="5.60685">
        <ele>794</ele>
        <time>2018-05-16T21:44:49Z</time>
      </trkpt>
      <trkpt lat="44.35958" lon="5.6064">
        <ele>794</ele>
        <time>2018-05-16T21:45:49Z</time>
      </trkpt>
      <trkpt lat="44.35981" lon="5.60558">
        <ele>793</ele>
        <time>2018-05-16T21:46:49Z</time>
      </trkpt>
      <trkpt lat="44.35998" lon="5.60524">
        <ele>794</ele>
        <time>2018-05-16T21:47:49Z</time>
      </trkpt>
      <trkpt lat="44.35923" lon="5.60474">
        <ele>791</ele>
        <time>2018-05-16T21:48:49Z</time>
      </trkpt>
      <trkpt lat="44.35889" lon="5.60462">
        <ele>794</ele>
        <time>2018-05-16T21:49:49Z</time>
      </trkpt>
      <trkpt lat="44.35859" lon="5.60436">
        <ele>797</ele>
        <time>2018-05-16T21:50:49Z</time>
      </trkpt>
      <trkpt lat="44.35822" lon="5.60429">
        <ele>801</ele>
        <time>2018-05-16T21:51:49Z</time>
      </trkpt>
      <trkpt lat="44.3576" lon="5.60374">
        <ele>811</ele>
        <time>2018-05-16T21:52:49Z</time>
      </trkpt>
      <trkpt lat="44.35689" lon="5.60354">
        <ele>815</ele>
        <time>2018-05-16T21:53:49Z</time>
      </trkpt>
      <trkpt lat="44.35612" lon="5.60309">
        <ele>828</ele>
        <time>2018-05-16T21:54:49Z</time>
      </trkpt>
      <trkpt lat="44.35537" lon="5.60288">
        <ele>835</ele>
        <time>2018-05-16T21:55:49Z</time>
      </trkpt>
      <trkpt lat="44.35477" lon="5.60204">
        <ele>857</ele>
        <time>2018-05-16T21:56:49Z</time>
      </trkpt>
      <trkpt lat="44.35425" lon="5.60178">
        <ele>855</ele>
        <time>2018-05-16T21:57:49Z</time>
      </trkpt>
      <trkpt lat="44.35327" lon="5.60086">
        <ele>865</ele>
        <time>2018-05-16T21:58:49Z</time>
      </trkpt>
      <trkpt lat="44.35222" lon="5.59876">
        <ele>888</ele>
        <time>2018-05-16T21:59:49Z</time>
      </trkpt>
      <trkpt lat="44.35224" lon="5.59865">
        <ele>889</ele>
        <time>2018-05-16T22:00:49Z</time>
      </trkpt>
      <trkpt lat="44.35234" lon="5.59863">
        <ele>890</ele>
        <time>2018-05-16T22:01:49Z</time>
      </trkpt>
      <trkpt lat="44.35234" lon="5.59846">
        <ele>891</ele>
        <time>2018-05-16T22:02:49Z</time>
      </trkpt>
      <trkpt lat="44.35224" lon="5.59837">
        <ele>891</ele>
        <time>2018-05-16T22:03:49Z</time>
      </trkpt>
      <trkpt lat="44.35232" lon="5.59841">
        <ele>891</ele>
        <time>2018-05-16T22:04:49Z</time>
      </trkpt>
      <trkpt lat="44.35191" lon="5.59833">
        <ele>890</ele>
        <time>2018-05-16T22:05:49Z</time>
      </trkpt>
      <trkpt lat="44.35174" lon="5.59803">
        <ele>890</ele>
        <time>2018-05-16T22:06:49Z</time>
      </trkpt>
      <trkpt lat="44.35149" lon="5.59788">
        <ele>891</ele>
        <time>2018-05-16T22:07:49Z</time>
      </trkpt>
      <trkpt lat="44.35144" lon="5.59771">
        <ele>892</ele>
        <time>2018-05-16T22:08:49Z</time>
      </trkpt>
      <trkpt lat="44.35149" lon="5.59693">
        <ele>893</ele>
        <time>2018-05-16T22:09:49Z</time>
      </trkpt>
      <trkpt lat="44.3514" lon="5.59614">
        <ele>894</ele>
        <time>2018-05-16T22:10:49Z</time>
      </trkpt>
      <trkpt lat="44.35112" lon="5.59552">
        <ele>894</ele>
        <time>2018-05-16T22:11:49Z</time>
      </trkpt>
      <trkpt lat="44.3508" lon="5.59509">
        <ele>893</ele>
        <time>2018-05-16T22:12:49Z</time>
      </trkpt>
      <trkpt lat="44.35035" lon="5.59464">
        <ele>887</ele>
        <time>2018-05-16T22:13:49Z</time>
      </trkpt>
      <trkpt lat="44.35007" lon="5.59453">
        <ele>886</ele>
        <time>2018-05-16T22:14:49Z</time>
      </trkpt>
      <trkpt lat="44.34966" lon="5.5946">
        <ele>886</ele>
        <time>2018-05-16T22:15:49Z</time>
      </trkpt>
      <trkpt lat="44.3494" lon="5.59481">
        <ele>889</ele>
        <time>2018-05-16T22:16:49Z</time>
      </trkpt>
      <trkpt lat="44.3487" lon="5.59485">
        <ele>892</ele>
        <time>2018-05-16T22:17:49Z</time>
      </trkpt>
      <trkpt lat="44.34829" lon="5.59468">
        <ele>892</ele>
        <time>2018-05-16T22:18:49Z</time>
      </trkpt>
      <trkpt lat="44.34807" lon="5.59449">
        <ele>892</ele>
        <time>2018-05-16T22:19:49Z</time>
      </trkpt>
      <trkpt lat="44.34799" lon="5.59419">
        <ele>889</ele>
        <time>2018-05-16T22:20:49Z</time>
      </trkpt>
      <trkpt lat="44.34807" lon="5.5941">
        <ele>888</ele>
        <time>2018-05-16T22:21:49Z</time>
      </trkpt>
      <trkpt lat="44.34822" lon="5.59419">
        <ele>886</ele>
        <time>2018-05-16T22:22:49Z</time>
      </trkpt>
      <trkpt lat="44.3484" lon="5.59417">
        <ele>883</ele>
        <time>2018-05-16T22:23:49Z</time>
      </trkpt>
      <trkpt lat="44.34863" lon="5.59397">
        <ele>884</ele>
        <time>2018-05-16T22:24:49Z</time>
      </trkpt>
      <trkpt lat="44.34951" lon="5.5926">
        <ele>888</ele>
        <time>2018-05-16T22:25:49Z</time>
      </trkpt>
      <trkpt lat="44.34962" lon="5.59226">
        <ele>888</ele>
        <time>2018-05-16T22:26:49Z</time>
      </trkpt>
      <trkpt lat="44.3496" lon="5.59206">
        <ele>889</ele>
        <time>2018-05-16T22:27:49Z</time>
      </trkpt>
      <trkpt lat="44.34947" lon="5.59196">
        <ele>890</ele>
        <time>2018-05-16T22:28:49Z</time>
      </trkpt>
      <trkpt lat="44.34934" lon="5.59198">
        <ele>892</ele>
        <time>2018-05-16T22:29:49Z</time>
      </trkpt>
      <trkpt lat="44.3491" lon="5.59176">
        <ele>895</ele>
        <time>2018-05-16T22:30:49Z</time>
      </trkpt>
      <trkpt lat="44.34835" lon="5.59056">
        <ele>902</ele>
        <time>2018-05-16T22:31:49Z</time>
      </trkpt>
      <trkpt lat="44.34816" lon="5.5896">
        <ele>902</ele>
        <time>2018-05-16T22:32:49Z</time>
      </trkpt>
      <trkpt lat="44.3478" lon="5.58848">
        <ele>901</ele>
        <time>2018-05-16T22:33:49Z</time>
      </trkpt>
      <trkpt lat="44.34769" lon="5.58837">
        <ele>901</ele>
        <time>2018-05-16T22:34:49Z</time>
      </trkpt>
      <trkpt lat="44.34743" lon="5.58837">
        <ele>902</ele>
        <time>2018-05-16T22:35:49Z</time>
      </trkpt>
      <trkpt lat="44.34713" lon="5.58827">
        <ele>904</ele>
        <time>2018-05-16T22:36:49Z</time>
      </trkpt>
      <trkpt lat="44.34704" lon="5.58807">
        <ele>904</ele>
        <time>2018-05-16T22:37:49Z</time>
      </trkpt>
      <trkpt lat="44.347" lon="5.5873">
        <ele>901</ele>
        <time>2018-05-16T22:38:49Z</time>
      </trkpt>
      <trkpt lat="44.34685" lon="5.58696">
        <ele>903</ele>
        <time>2018-05-16T22:39:49Z</time>
      </trkpt>
      <trkpt lat="44.34627" lon="5.58612">
        <ele>909</ele>
        <time>2018-05-16T22:40:49Z</time>
      </trkpt>
      <trkpt lat="44.34612" lon="5.58541">
        <ele>908</ele>
        <time>2018-05-16T22:41:49Z</time>
      </trkpt>
      <trkpt lat="44.34546" lon="5.58502">
        <ele>913</ele>
        <time>2018-05-16T22:42:49Z</time>
      </trkpt>
      <trkpt lat="44.34511" lon="5.58445">
        <ele>914</ele>
        <time>2018-05-16T22:43:49Z</time>
      </trkpt>
      <trkpt lat="44.34501" lon="5.58395">
        <ele>909</ele>
        <time>2018-05-16T22:44:49Z</time>
      </trkpt>
      <trkpt lat="44.34509" lon="5.58333">
        <ele>898</ele>
        <time>2018-05-16T22:45:49Z</time>
      </trkpt>
      <trkpt lat="44.34505" lon="5.58307">
        <ele>892</ele>
        <time>2018-05-16T22:46:49Z</time>
      </trkpt>
      <trkpt lat="44.3449" lon="5.58245">
        <ele>880</ele>
        <time>2018-05-16T22:47:49Z</time>
      </trkpt>
      <trkpt lat="44.34471" lon="5.5823">
        <ele>885</ele>
        <time>2018-05-16T22:48:49Z</time>
      </trkpt>
      <trkpt lat="44.34481" lon="5.58221">
        <ele>882</ele>
        <time>2018-05-16T22:49:49Z</time>
      </trkpt>
      <trkpt lat="44.34528" lon="5.58215">
        <ele>872</ele>
        <time>2018-05-16T22:50:49Z</time>
      </trkpt>
      <trkpt lat="44.34546" lon="5.582">
        <ele>868</ele>
        <time>2018-05-16T22:51:49Z</time>
      </trkpt>
      <trkpt lat="44.34548" lon="5.58206">
        <ele>868</ele>
        <time>2018-05-16T22:52:49Z</time>
      </trkpt>
      <trkpt lat="44.34574" lon="5.58194">
        <ele>862</ele>
        <time>2018-05-16T22:53:49Z</time>
      </trkpt>
      <trkpt lat="44.34614" lon="5.58153">
        <ele>856</ele>
        <time>2018-05-16T22:54:49Z</time>
      </trkpt>
      <trkpt lat="44.34614" lon="5.58106">
        <ele>857</ele>
        <time>2018-05-16T22:55:49Z</time>
      </trkpt>
      <trkpt lat="44.34619" lon="5.58103">
        <ele>857</ele>
        <time>2018-05-16T22:56:49Z</time>
      </trkpt>
      <trkpt lat="44.34606" lon="5.58106">
        <ele>858</ele>
        <time>2018-05-16T22:57:49Z</time>
      </trkpt>
      <trkpt lat="44.34578" lon="5.58091">
        <ele>860</ele>
        <time>2018-05-16T22:58:49Z</time>
      </trkpt>
      <trkpt lat="44.34642" lon="5.58065">
        <ele>860</ele>
        <time>2018-05-16T22:59:49Z</time>
      </trkpt>
      <trkpt lat="44.34668" lon="5.58041">
        <ele>862</ele>
        <time>2018-05-16T23:00:49Z</time>
      </trkpt>
      <trkpt lat="44.34672" lon="5.58015">
        <ele>867</ele>
        <time>2018-05-16T23:01:49Z</time>
      </trkpt>
      <trkpt lat="44.347" lon="5.57962">
        <ele>871</ele>
        <time>2018-05-16T23:02:49Z</time>
      </trkpt>
      <trkpt lat="44.34722" lon="5.57869">
        <ele>889</ele>
        <time>2018-05-16T23:03:49Z</time>
      </trkpt>
      <trkpt lat="44.34762" lon="5.57807">
        <ele>894</ele>
        <time>2018-05-16T23:04:49Z</time>
      </trkpt>
      <trkpt lat="44.3476" lon="5.5776">
        <ele>904</ele>
        <time>2018-05-16T23:05:49Z</time>
      </trkpt>
      <trkpt lat="44.34764" lon="5.57747">
        <ele>906</ele>
        <time>2018-05-16T23:06:49Z</time>
      </trkpt>
      <trkpt lat="44.34782" lon="5.57726">
        <ele>907</ele>
        <time>2018-05-16T23:07:49Z</time>
      </trkpt>
      <trkpt lat="44.34814" lon="5.57704">
        <ele>906</ele>
        <time>2018-05-16T23:08:49Z</time>
      </trkpt>
      <trkpt lat="44.34829" lon="5.57681">
        <ele>907</ele>
        <time>2018-05-16T23:09:49Z</time>
      </trkpt>
      <trkpt lat="44.34852" lon="5.57676">
        <ele>905</ele>
        <time>2018-05-16T23:10:49Z</time>
      </trkpt>
      <trkpt lat="44.34898" lon="5.57651">
        <ele>900</ele>
        <time>2018-05-16T23:11:49Z</time>
      </trkpt>
      <trkpt lat="44.34915" lon="5.57625">
        <ele>899</ele>
        <time>2018-05-16T23:12:49Z</time>
      </trkpt>
      <trkpt lat="44.3496" lon="5.57584">
        <ele>895</ele>
        <time>2018-05-16T23:13:49Z</time>
      </trkpt>
      <trkpt lat="44.34934" lon="5.57423">
        <ele>895</ele>
        <time>2018-05-16T23:14:49Z</time>
      </trkpt>
      <trkpt lat="44.34917" lon="5.5738">
        <ele>894</ele>
        <time>2018-05-16T23:15:49Z</time>
      </trkpt>
      <trkpt lat="44.34902" lon="5.57372">
        <ele>895</ele>
        <time>2018-05-16T23:16:49Z</time>
      </trkpt>
      <trkpt lat="44.34887" lon="5.57415">
        <ele>900</ele>
        <time>2018-05-16T23:17:49Z</time>
      </trkpt>
      <trkpt lat="44.34855" lon="5.57421">
        <ele>905</ele>
        <time>2018-05-16T23:18:49Z</time>
      </trkpt>
      <trkpt lat="44.34822" lon="5.57395">
        <ele>907</ele>
        <time>2018-05-16T23:19:49Z</time>
      </trkpt>
      <trkpt lat="44.34818" lon="5.5738">
        <ele>906</ele>
        <time>2018-05-16T23:20:49Z</time>
      </trkpt>
      <trkpt lat="44.34829" lon="5.57361">
        <ele>904</ele>
        <time>2018-05-16T23:21:49Z</time>
      </trkpt>
      <trkpt lat="44.34863" lon="5.57337">
        <ele>897</ele>
        <time>2018-05-16T23:22:49Z</time>
      </trkpt>
      <trkpt lat="44.34876" lon="5.57271">
        <ele>894</ele>
        <time>2018-05-16T23:23:49Z</time>
      </trkpt>
      <trkpt lat="44.3494" lon="5.57221">
        <ele>887</ele>
        <time>2018-05-16T23:24:49Z</time>
      </trkpt>
      <trkpt lat="44.3497" lon="5.5714">
        <ele>888</ele>
        <time>2018-05-16T23:25:49Z</time>
      </trkpt>
      <trkpt lat="44.35007" lon="5.57082">
        <ele>883</ele>
        <time>2018-05-16T23:26:49Z</time>
      </trkpt>
      <trkpt lat="44.35026" lon="5.57039">
        <ele>880</ele>
        <time>2018-05-16T23:27:49Z</time>
      </trkpt>
      <trkpt lat="44.35048" lon="5.57026">
        <ele>877</ele>
        <time>2018-05-16T23:28:49Z</time>
      </trkpt>
      <trkpt lat="44.35078" lon="5.57022">
        <ele>872</ele>
        <time>2018-05-16T23:29:49Z</time>
      </trkpt>
      <trkpt lat="44.35088" lon="5.57">
        <ele>871</ele>
        <time>2018-05-16T23:30:49Z</time>
      </trkpt>
      <trkpt lat="44.35146" lon="5.57003">
        <ele>864</ele>
        <time>2018-05-16T23:31:49Z</time>
      </trkpt>
      <trkpt lat="44.35179" lon="5.56981">
        <ele>860</ele>
        <time>2018-05-16T23:32:49Z</time>
      </trkpt>
      <trkpt lat="44.35215" lon="5.56968">
        <ele>853</ele>
        <time>2018-05-16T23:33:49Z</time>
      </trkpt>
      <trkpt lat="44.35249" lon="5.56938">
        <ele>849</ele>
        <time>2018-05-16T23:34:49Z</time>
      </trkpt>
      <trkpt lat="44.35275" lon="5.56936">
        <ele>842</ele>
        <time>2018-05-16T23:35:49Z</time>
      </trkpt>
      <trkpt lat="44.35286" lon="5.56923">
        <ele>839</ele>
        <time>2018-05-16T23:36:49Z</time>
      </trkpt>
      <trkpt lat="44.35303" lon="5.56893">
        <ele>834</ele>
        <time>2018-05-16T23:37:49Z</time>
      </trkpt>
      <trkpt lat="44.35297" lon="5.56818">
        <ele>835</ele>
        <time>2018-05-16T23:38:49Z</time>
      </trkpt>
      <trkpt lat="44.35277" lon="5.56769">
        <ele>832</ele>
        <time>2018-05-16T23:39:49Z</time>
      </trkpt>
      <trkpt lat="44.35279" lon="5.56756">
        <ele>830</ele>
        <time>2018-05-16T23:40:49Z</time>
      </trkpt>
      <trkpt lat="44.3529" lon="5.56754">
        <ele>828</ele>
        <time>2018-05-16T23:41:49Z</time>
      </trkpt>
      <trkpt lat="44.35312" lon="5.56758">
        <ele>824</ele>
        <time>2018-05-16T23:42:49Z</time>
      </trkpt>
      <trkpt lat="44.35342" lon="5.56794">
        <ele>821</ele>
        <time>2018-05-16T23:43:49Z</time>
      </trkpt>
      <trkpt lat="44.35348" lon="5.56809">
        <ele>820</ele>
        <time>2018-05-16T23:44:49Z</time>
      </trkpt>
      <trkpt lat="44.35363" lon="5.56908">
        <ele>813</ele>
        <time>2018-05-16T23:45:49Z</time>
      </trkpt>
      <trkpt lat="44.35355" lon="5.56966">
        <ele>815</ele>
        <time>2018-05-16T23:46:49Z</time>
      </trkpt>
      <trkpt lat="44.35361" lon="5.56977">
        <ele>813</ele>
        <time>2018-05-16T23:47:49Z</time>
      </trkpt>
      <trkpt lat="44.35408" lon="5.56964">
        <ele>796</ele>
        <time>2018-05-16T23:48:49Z</time>
      </trkpt>
      <trkpt lat="44.35445" lon="5.56998">
        <ele>795</ele>
        <time>2018-05-16T23:49:49Z</time>
      </trkpt>
      <trkpt lat="44.3546" lon="5.57">
        <ele>794</ele>
        <time>2018-05-16T23:50:49Z</time>
      </trkpt>
      <trkpt lat="44.35466" lon="5.56985">
        <ele>795</ele>
        <time>2018-05-16T23:51:49Z</time>
      </trkpt>
      <trkpt lat="44.35455" lon="5.56955">
        <ele>794</ele>
        <time>2018-05-16T23:52:49Z</time>
      </trkpt>
      <trkpt lat="44.35462" lon="5.56906">
        <ele>794</ele>
        <time>2018-05-16T23:53:49Z</time>
      </trkpt>
      <trkpt lat="44.35458" lon="5.56848">
        <ele>792</ele>
        <time>2018-05-16T23:54:49Z</time>
      </trkpt>
      <trkpt lat="44.35477" lon="5.56801">
        <ele>791</ele>
        <time>2018-05-16T23:55:49Z</time>
      </trkpt>
      <trkpt lat="44.35492" lon="5.56747">
        <ele>788</ele>
        <time>2018-05-16T23:56:49Z</time>
      </trkpt>
      <trkpt lat="44.35541" lon="5.56625">
        <ele>790</ele>
        <time>2018-05-16T23:57:49Z</time>
      </trkpt>
      <trkpt lat="44.3555" lon="5.56554">
        <ele>786</ele>
        <time>2018-05-16T23:58:49Z</time>
      </trkpt>
      <trkpt lat="44.35582" lon="5.56539">
        <ele>794</ele>
        <time>2018-05-16T23:59:49Z</time>
      </trkpt>
      <trkpt lat="44.35606" lon="5.56513">
        <ele>797</ele>
        <time>2018-05-17T00:00:49Z</time>
      </trkpt>
      <trkpt lat="44.35608" lon="5.56413">
        <ele>789</ele>
        <time>2018-05-17T00:01:49Z</time>
      </trkpt>
      <trkpt lat="44.35612" lon="5.56397">
        <ele>788</ele>
        <time>2018-05-17T00:02:49Z</time>
      </trkpt>
      <trkpt lat="44.35623" lon="5.56385">
        <ele>789</ele>
        <time>2018-05-17T00:03:49Z</time>
      </trkpt>
      <trkpt lat="44.35666" lon="5.56367">
        <ele>797</ele>
        <time>2018-05-17T00:04:49Z</time>
      </trkpt>
      <trkpt lat="44.35672" lon="5.5635">
        <ele>796</ele>
        <time>2018-05-17T00:05:49Z</time>
      </trkpt>
      <trkpt lat="44.35666" lon="5.56294">
        <ele>788</ele>
        <time>2018-05-17T00:06:49Z</time>
      </trkpt>
      <trkpt lat="44.35676" lon="5.5626">
        <ele>786</ele>
        <time>2018-05-17T00:07:49Z</time>
      </trkpt>
      <trkpt lat="44.35711" lon="5.56226">
        <ele>787</ele>
        <time>2018-05-17T00:08:49Z</time>
      </trkpt>
      <trkpt lat="44.35752" lon="5.56217">
        <ele>792</ele>
        <time>2018-05-17T00:09:49Z</time>
      </trkpt>
      <trkpt lat="44.35769" lon="5.56166">
        <ele>786</ele>
        <time>2018-05-17T00:10:49Z</time>
      </trkpt>
      <trkpt lat="44.35927" lon="5.55947">
        <ele>772</ele>
        <time>2018-05-17T00:11:49Z</time>
      </trkpt>
      <trkpt lat="44.35966" lon="5.55827">
        <ele>762</ele>
        <time>2018-05-17T00:12:49Z</time>
      </trkpt>
      <trkpt lat="44.36048" lon="5.55719">
        <ele>760</ele>
        <time>2018-05-17T00:13:49Z</time>
      </trkpt>
      <trkpt lat="44.35975" lon="5.55722">
        <ele>751</ele>
        <time>2018-05-17T00:14:49Z</time>
      </trkpt>
      <trkpt lat="44.35955" lon="5.55737">
        <ele>750</ele>
        <time>2018-05-17T00:15:49Z</time>
      </trkpt>
      <trkpt lat="44.35906" lon="5.55685">
        <ele>739</ele>
        <time>2018-05-17T00:16:49Z</time>
      </trkpt>
      <trkpt lat="44.35874" lon="5.55664">
        <ele>736</ele>
        <time>2018-05-17T00:17:49Z</time>
      </trkpt>
      <trkpt lat="44.35867" lon="5.55636">
        <ele>735</ele>
        <time>2018-05-17T00:18:49Z</time>
      </trkpt>
      <trkpt lat="44.35893" lon="5.55586">
        <ele>733</ele>
        <time>2018-05-17T00:19:49Z</time>
      </trkpt>
      <trkpt lat="44.35865" lon="5.5555">
        <ele>733</ele>
        <time>2018-05-17T00:20:49Z</time>
      </trkpt>
      <trkpt lat="44.35906" lon="5.5546">
        <ele>729</ele>
        <time>2018-05-17T00:21:49Z</time>
      </trkpt>
      <trkpt lat="44.35925" lon="5.55453">
        <ele>728</ele>
        <time>2018-05-17T00:22:49Z</time>
      </trkpt>
      <trkpt lat="44.35925" lon="5.55419">
        <ele>727</ele>
        <time>2018-05-17T00:23:49Z</time>
      </trkpt>
      <trkpt lat="44.35919" lon="5.55417">
        <ele>727</ele>
        <time>2018-05-17T00:24:49Z</time>
      </trkpt>
      <trkpt lat="44.3593" lon="5.55406">
        <ele>727</ele>
        <time>2018-05-17T00:25:49Z</time>
      </trkpt>
      <trkpt lat="44.35943" lon="5.55374">
        <ele>728</ele>
        <time>2018-05-17T00:26:49Z</time>
      </trkpt>
      <trkpt lat="44.35934" lon="5.5537">
        <ele>729</ele>
        <time>2018-05-17T00:27:49Z</time>
      </trkpt>
      <trkpt lat="44.35925" lon="5.55322">
        <ele>732</ele>
        <time>2018-05-17T00:28:49Z</time>
      </trkpt>
      <trkpt lat="44.35934" lon="5.5537">
        <ele>729</ele>
        <time>2018-05-17T00:29:49Z</time>
      </trkpt>
      <trkpt lat="44.35932" lon="5.5538">
        <ele>728</ele>
        <time>2018-05-17T00:30:49Z</time>
      </trkpt>
      <trkpt lat="44.3593" lon="5.55365">
        <ele>729</ele>
        <time>2018-05-17T00:31:49Z</time>
      </trkpt>
      <trkpt lat="44.35932" lon="5.55374">
        <ele>729</ele>
        <time>2018-05-17T00:32:49Z</time>
      </trkpt>
      <trkpt lat="44.35938" lon="5.5537">
        <ele>728</ele>
        <time>2018-05-17T00:33:49Z</time>
      </trkpt>
      <trkpt lat="44.35949" lon="5.55348">
        <ele>728</ele>
        <time>2018-05-17T00:34:49Z</time>
      </trkpt>
      <trkpt lat="44.35953" lon="5.55318">
        <ele>729</ele>
        <time>2018-05-17T00:35:49Z</time>
      </trkpt>
      <trkpt lat="44.35983" lon="5.55237">
        <ele>730</ele>
        <time>2018-05-17T00:36:49Z</time>
      </trkpt>
      <trkpt lat="44.36018" lon="5.55172">
        <ele>732</ele>
        <time>2018-05-17T00:37:49Z</time>
      </trkpt>
      <trkpt lat="44.36056" lon="5.55082">
        <ele>738</ele>
        <time>2018-05-17T00:38:49Z</time>
      </trkpt>
      <trkpt lat="44.36112" lon="5.54996">
        <ele>746</ele>
        <time>2018-05-17T00:39:49Z</time>
      </trkpt>
      <trkpt lat="44.36133" lon="5.54977">
        <ele>745</ele>
        <time>2018-05-17T00:40:49Z</time>
      </trkpt>
      <trkpt lat="44.36166" lon="5.54919">
        <ele>747</ele>
        <time>2018-05-17T00:41:49Z</time>
      </trkpt>
      <trkpt lat="44.36177" lon="5.54925">
        <ele>746</ele>
        <time>2018-05-17T00:42:49Z</time>
      </trkpt>
      <trkpt lat="44.36192" lon="5.54694">
        <ele>735</ele>
        <time>2018-05-17T00:43:49Z</time>
      </trkpt>
      <trkpt lat="44.36218" lon="5.5442">
        <ele>716</ele>
        <time>2018-05-17T00:44:49Z</time>
      </trkpt>
      <trkpt lat="44.36024" lon="5.54289">
        <ele>732</ele>
        <time>2018-05-17T00:45:49Z</time>
      </trkpt>
      <trkpt lat="44.35895" lon="5.54238">
        <ele>742</ele>
        <time>2018-05-17T00:46:49Z</time>
      </trkpt>
      <trkpt lat="44.35893" lon="5.54222">
        <ele>743</ele>
        <time>2018-05-17T00:47:49Z</time>
      </trkpt>
      <trkpt lat="44.35903" lon="5.54189">
        <ele>743</ele>
        <time>2018-05-17T00:48:49Z</time>
      </trkpt>
      <trkpt lat="44.35904" lon="5.54177">
        <ele>743</ele>
        <time>2018-05-17T00:49:49Z</time>
      </trkpt>
      <trkpt lat="44.359" lon="5.54029">
        <ele>746</ele>
        <time>2018-05-17T00:50:49Z</time>
      </trkpt>
      <trkpt lat="44.35895" lon="5.54022">
        <ele>746</ele>
        <time>2018-05-17T00:51:49Z</time>
      </trkpt>
      <trkpt lat="44.3587" lon="5.5402">
        <ele>746</ele>
        <time>2018-05-17T00:52:49Z</time>
      </trkpt>
      <trkpt lat="44.35829" lon="5.53999">
        <ele>745</ele>
        <time>2018-05-17T00:53:49Z</time>
      </trkpt>
      <trkpt lat="44.35779" lon="5.53986">
        <ele>747</ele>
        <time>2018-05-17T00:54:49Z</time>
      </trkpt>
      <trkpt lat="44.35745" lon="5.53951">
        <ele>746</ele>
        <time>2018-05-17T00:55:49Z</time>
      </trkpt>
      <trkpt lat="44.3573" lon="5.53921">
        <ele>744</ele>
        <time>2018-05-17T00:56:49Z</time>
      </trkpt>
      <trkpt lat="44.35679" lon="5.53893">
        <ele>746</ele>
        <time>2018-05-17T00:57:49Z</time>
      </trkpt>
      <trkpt lat="44.35666" lon="5.53889">
        <ele>747</ele>
        <time>2018-05-17T00:58:49Z</time>
      </trkpt>
      <trkpt lat="44.35612" lon="5.53893">
        <ele>754</ele>
        <time>2018-05-17T00:59:49Z</time>
      </trkpt>
      <trkpt lat="44.35588" lon="5.53883">
        <ele>756</ele>
        <time>2018-05-17T01:00:49Z</time>
      </trkpt>
      <trkpt lat="44.35554" lon="5.53883">
        <ele>758</ele>
        <time>2018-05-17T01:01:49Z</time>
      </trkpt>
      <trkpt lat="44.35543" lon="5.53876">
        <ele>758</ele>
        <time>2018-05-17T01:02:49Z</time>
      </trkpt>
      <trkpt lat="44.35505" lon="5.53823">
        <ele>757</ele>
        <time>2018-05-17T01:03:49Z</time>
      </trkpt>
      <trkpt lat="44.35449" lon="5.53773">
        <ele>757</ele>
        <time>2018-05-17T01:04:49Z</time>
      </trkpt>
      <trkpt lat="44.35436" lon="5.53767">
        <ele>757</ele>
        <time>2018-05-17T01:05:49Z</time>
      </trkpt>
      <trkpt lat="44.35385" lon="5.5376">
        <ele>761</ele>
        <time>2018-05-17T01:06:49Z</time>
      </trkpt>
      <trkpt lat="44.35335" lon="5.53707">
        <ele>768</ele>
        <time>2018-05-17T01:07:49Z</time>
      </trkpt>
      <trkpt lat="44.35344" lon="5.53692">
        <ele>768</ele>
        <time>2018-05-17T01:08:49Z</time>
      </trkpt>
      <trkpt lat="44.35357" lon="5.53685">
        <ele>767</ele>
        <time>2018-05-17T01:09:49Z</time>
      </trkpt>
      <trkpt lat="44.35438" lon="5.53657">
        <ele>765</ele>
        <time>2018-05-17T01:10:49Z</time>
      </trkpt>
      <trkpt lat="44.35524" lon="5.53604">
        <ele>769</ele>
        <time>2018-05-17T01:11:49Z</time>
      </trkpt>
      <trkpt lat="44.35531" lon="5.53595">
        <ele>769</ele>
        <time>2018-05-17T01:12:49Z</time>
      </trkpt>
      <trkpt lat="44.35511" lon="5.53522">
        <ele>779</ele>
        <time>2018-05-17T01:13:49Z</time>
      </trkpt>
      <trkpt lat="44.35511" lon="5.53466">
        <ele>780</ele>
        <time>2018-05-17T01:14:49Z</time>
      </trkpt>
      <trkpt lat="44.3549" lon="5.53428">
        <ele>782</ele>
        <time>2018-05-17T01:15:49Z</time>
      </trkpt>
      <trkpt lat="44.35447" lon="5.53271">
        <ele>788</ele>
        <time>2018-05-17T01:16:49Z</time>
      </trkpt>
      <trkpt lat="44.35447" lon="5.53237">
        <ele>788</ele>
        <time>2018-05-17T01:17:49Z</time>
      </trkpt>
      <trkpt lat="44.35466" lon="5.532">
        <ele>784</ele>
        <time>2018-05-17T01:18:49Z</time>
      </trkpt>
      <trkpt lat="44.35473" lon="5.53157">
        <ele>783</ele>
        <time>2018-05-17T01:19:49Z</time>
      </trkpt>
      <trkpt lat="44.35509" lon="5.53087">
        <ele>775</ele>
        <time>2018-05-17T01:20:49Z</time>
      </trkpt>
      <trkpt lat="44.35569" lon="5.53042">
        <ele>764</ele>
        <time>2018-05-17T01:21:49Z</time>
      </trkpt>
      <trkpt lat="44.35591" lon="5.53037">
        <ele>761</ele>
        <time>2018-05-17T01:22:49Z</time>
      </trkpt>
      <trkpt lat="44.35625" lon="5.52996">
        <ele>756</ele>
        <time>2018-05-17T01:23:49Z</time>
      </trkpt>
      <trkpt lat="44.35679" lon="5.52975">
        <ele>750</ele>
        <time>2018-05-17T01:24:49Z</time>
      </trkpt>
      <trkpt lat="44.35734" lon="5.5299">
        <ele>746</ele>
        <time>2018-05-17T01:25:49Z</time>
      </trkpt>
      <trkpt lat="44.35749" lon="5.53024">
        <ele>741</ele>
        <time>2018-05-17T01:26:49Z</time>
      </trkpt>
      <trkpt lat="44.35809" lon="5.53054">
        <ele>733</ele>
        <time>2018-05-17T01:27:49Z</time>
      </trkpt>
      <trkpt lat="44.35816" lon="5.53084">
        <ele>730</ele>
        <time>2018-05-17T01:28:49Z</time>
      </trkpt>
      <trkpt lat="44.35867" lon="5.5311">
        <ele>728</ele>
        <time>2018-05-17T01:29:49Z</time>
      </trkpt>
      <trkpt lat="44.35897" lon="5.53123">
        <ele>728</ele>
        <time>2018-05-17T01:30:49Z</time>
      </trkpt>
      <trkpt lat="44.35906" lon="5.53121">
        <ele>728</ele>
        <time>2018-05-17T01:31:49Z</time>
      </trkpt>
      <trkpt lat="44.35915" lon="5.53072">
        <ele>728</ele>
        <time>2018-05-17T01:32:49Z</time>
      </trkpt>
      <trkpt lat="44.35962" lon="5.52973">
        <ele>720</ele>
        <time>2018-05-17T01:33:49Z</time>
      </trkpt>
      <trkpt lat="44.36007" lon="5.52934">
        <ele>716</ele>
        <time>2018-05-17T01:34:49Z</time>
      </trkpt>
      <trkpt lat="44.36086" lon="5.52805">
        <ele>710</ele>
        <time>2018-05-17T01:35:49Z</time>
      </trkpt>
      <trkpt lat="44.36118" lon="5.52775">
        <ele>708</ele>
        <time>2018-05-17T01:36:49Z</time>
      </trkpt>
      <trkpt lat="44.36149" lon="5.52702">
        <ele>701</ele>
        <time>2018-05-17T01:37:49Z</time>
      </trkpt>
      <trkpt lat="44.36174" lon="5.52694">
        <ele>700</ele>
        <time>2018-05-17T01:38:49Z</time>
      </trkpt>
      <trkpt lat="44.36187" lon="5.52666">
        <ele>697</ele>
        <time>2018-05-17T01:39:49Z</time>
      </trkpt>
      <trkpt lat="44.36211" lon="5.52649">
        <ele>694</ele>
        <time>2018-05-17T01:40:49Z</time>
      </trkpt>
      <trkpt lat="44.36226" lon="5.52621">
        <ele>691</ele>
        <time>2018-05-17T01:41:49Z</time>
      </trkpt>
      <trkpt lat="44.36245" lon="5.52574">
        <ele>687</ele>
        <time>2018-05-17T01:42:49Z</time>
      </trkpt>
      <trkpt lat="44.36271" lon="5.52421">
        <ele>672</ele>
        <time>2018-05-17T01:43:49Z</time>
      </trkpt>
      <trkpt lat="44.36282" lon="5.52351">
        <ele>666</ele>
        <time>2018-05-17T01:44:49Z</time>
      </trkpt>
      <trkpt lat="44.36279" lon="5.52284">
        <ele>662</ele>
        <time>2018-05-17T01:45:49Z</time>
      </trkpt>
      <trkpt lat="44.36286" lon="5.5225">
        <ele>659</ele>
        <time>2018-05-17T01:46:49Z</time>
      </trkpt>
      <trkpt lat="44.36316" lon="5.52218">
        <ele>655</ele>
        <time>2018-05-17T01:47:49Z</time>
      </trkpt>
      <trkpt lat="44.36337" lon="5.52175">
        <ele>649</ele>
        <time>2018-05-17T01:48:49Z</time>
      </trkpt>
      <trkpt lat="44.36363" lon="5.5216">
        <ele>646</ele>
        <time>2018-05-17T01:49:49Z</time>
      </trkpt>
      <trkpt lat="44.36367" lon="5.52142">
        <ele>646</ele>
        <time>2018-05-17T01:50:49Z</time>
      </trkpt>
      <trkpt lat="44.36346" lon="5.52147">
        <ele>648</ele>
        <time>2018-05-17T01:51:49Z</time>
      </trkpt>
      <trkpt lat="44.36372" lon="5.52134">
        <ele>645</ele>
        <time>2018-05-17T01:52:49Z</time>
      </trkpt>
      <trkpt lat="44.36389" lon="5.52106">
        <ele>644</ele>
        <time>2018-05-17T01:53:49Z</time>
      </trkpt>
      <trkpt lat="44.36402" lon="5.52037">
        <ele>641</ele>
        <time>2018-05-17T01:54:49Z</time>
      </trkpt>
      <trkpt lat="44.36408" lon="5.52035">
        <ele>641</ele>
        <time>2018-05-17T01:55:49Z</time>
      </trkpt>
      <trkpt lat="44.3641" lon="5.52052">
        <ele>641</ele>
        <time>2018-05-17T01:56:49Z</time>
      </trkpt>
      <trkpt lat="44.36412" lon="5.52035">
        <ele>641</ele>
        <time>2018-05-17T01:57:49Z</time>
      </trkpt>
      <trkpt lat="44.36427" lon="5.52007">
        <ele>641</ele>
        <time>2018-05-17T01:58:49Z</time>
      </trkpt>
      <trkpt lat="44.36447" lon="5.5199">
        <ele>644</ele>
        <time>2018-05-17T01:59:49Z</time>
      </trkpt>
      <trkpt lat="44.36492" lon="5.51984">
        <ele>649</ele>
        <time>2018-05-17T02:00:49Z</time>
      </trkpt>
      <trkpt lat="44.365" lon="5.51966">
        <ele>651</ele>
        <time>2018-05-17T02:01:49Z</time>
      </trkpt>
      <trkpt lat="44.36498" lon="5.51947">
        <ele>651</ele>
        <time>2018-05-17T02:02:49Z</time>
      </trkpt>
      <trkpt lat="44.36466" lon="5.51878">
        <ele>652</ele>
        <time>2018-05-17T02:03:49Z</time>
      </trkpt>
      <trkpt lat="44.36493" lon="5.51885">
        <ele>656</ele>
        <time>2018-05-17T02:04:49Z</time>
      </trkpt>
      <trkpt lat="44.36499" lon="5.51889">
        <ele>656</ele>
        <time>2018-05-17T02:05:49Z</time>
      </trkpt>
      <trkpt lat="44.36511" lon="5.51902">
        <ele>655</ele>
        <time>2018-05-17T02:06:49Z</time>
      </trkpt>
      <trkpt lat="44.36556" lon="5.51891">
        <ele>660</ele>
        <time>2018-05-17T02:07:49Z</time>
      </trkpt>
      <trkpt lat="44.36601" lon="5.51844">
        <ele>667</ele>
        <time>2018-05-17T02:08:49Z</time>
      </trkpt>
      <trkpt lat="44.36653" lon="5.51812">
        <ele>668</ele>
        <time>2018-05-17T02:09:49Z</time>
      </trkpt>
      <trkpt lat="44.36681" lon="5.51801">
        <ele>669</ele>
        <time>2018-05-17T02:10:49Z</time>
      </trkpt>
      <trkpt lat="44.36704" lon="5.51803">
        <ele>669</ele>
        <time>2018-05-17T02:11:49Z</time>
      </trkpt>
      <trkpt lat="44.36831" lon="5.51864">
        <ele>673</ele>
        <time>2018-05-17T02:12:49Z</time>
      </trkpt>
      <trkpt lat="44.36921" lon="5.51841">
        <ele>676</ele>
        <time>2018-05-17T02:13:49Z</time>
      </trkpt>
      <trkpt lat="44.36994" lon="5.51738">
        <ele>681</ele>
        <time>2018-05-17T02:14:49Z</time>
      </trkpt>
      <trkpt lat="44.37136" lon="5.51589">
        <ele>692</ele>
        <time>2018-05-17T02:15:49Z</time>
      </trkpt>
      <trkpt lat="44.37261" lon="5.51455">
        <ele>704</ele>
        <time>2018-05-17T02:16:49Z</time>
      </trkpt>
      <trkpt lat="44.37484" lon="5.5138">
        <ele>720</ele>
        <time>2018-05-17T02:17:49Z</time>
      </trkpt>
      <trkpt lat="44.37634" lon="5.51388">
        <ele>730</ele>
        <time>2018-05-17T02:18:49Z</time>
      </trkpt>
      <trkpt lat="44.37647" lon="5.51342">
        <ele>732</ele>
        <time>2018-05-17T02:19:49Z</time>
      </trkpt>
      <trkpt lat="44.37614" lon="5.51246">
        <ele>731</ele>
        <time>2018-05-17T02:20:49Z</time>
      </trkpt>
      <trkpt lat="44.3763" lon="5.51212">
        <ele>735</ele>
        <time>2018-05-17T02:21:49Z</time>
      </trkpt>
      <trkpt lat="44.37593" lon="5.51116">
        <ele>745</ele>
        <time>2018-05-17T02:22:49Z</time>
      </trkpt>
      <trkpt lat="44.37543" lon="5.50979">
        <ele>750</ele>
        <time>2018-05-17T02:23:49Z</time>
      </trkpt>
      <trkpt lat="44.37541" lon="5.50952">
        <ele>749</ele>
        <time>2018-05-17T02:24:49Z</time>
      </trkpt>
      <trkpt lat="44.37533" lon="5.50876">
        <ele>753</ele>
        <time>2018-05-17T02:25:49Z</time>
      </trkpt>
      <trkpt lat="44.37575" lon="5.50771">
        <ele>751</ele>
        <time>2018-05-17T02:26:49Z</time>
      </trkpt>
      <trkpt lat="44.3758" lon="5.50752">
        <ele>753</ele>
        <time>2018-05-17T02:27:49Z</time>
      </trkpt>
      <trkpt lat="44.37571" lon="5.50713">
        <ele>756</ele>
        <time>2018-05-17T02:28:49Z</time>
      </trkpt>
      <trkpt lat="44.37571" lon="5.50655">
        <ele>757</ele>
        <time>2018-05-17T02:29:49Z</time>
      </trkpt>
      <trkpt lat="44.37515" lon="5.50494">
        <ele>753</ele>
        <time>2018-05-17T02:30:49Z</time>
      </trkpt>
      <trkpt lat="44.37524" lon="5.50452">
        <ele>750</ele>
        <time>2018-05-17T02:31:49Z</time>
      </trkpt>
      <trkpt lat="44.37565" lon="5.50398">
        <ele>746</ele>
        <time>2018-05-17T02:32:49Z</time>
      </trkpt>
      <trkpt lat="44.37599" lon="5.50364">
        <ele>745</ele>
        <time>2018-05-17T02:33:49Z</time>
      </trkpt>
      <trkpt lat="44.37593" lon="5.50312">
        <ele>745</ele>
        <time>2018-05-17T02:34:49Z</time>
      </trkpt>
      <trkpt lat="44.37593" lon="5.50243">
        <ele>740</ele>
        <time>2018-05-17T02:35:49Z</time>
      </trkpt>
      <trkpt lat="44.37573" lon="5.50179">
        <ele>730</ele>
        <time>2018-05-17T02:36:49Z</time>
      </trkpt>
      <trkpt lat="44.37556" lon="5.50151">
        <ele>726</ele>
        <time>2018-05-17T02:37:49Z</time>
      </trkpt>
      <trkpt lat="44.37535" lon="5.50132">
        <ele>723</ele>
        <time>2018-05-17T02:38:49Z</time>
      </trkpt>
      <trkpt lat="44.37496" lon="5.5011">
        <ele>719</ele>
        <time>2018-05-17T02:39:49Z</time>
      </trkpt>
      <trkpt lat="44.3744" lon="5.50106">
        <ele>718</ele>
        <time>2018-05-17T02:40:49Z</time>
      </trkpt>
      <trkpt lat="44.37427" lon="5.501">
        <ele>716</ele>
        <time>2018-05-17T02:41:49Z</time>
      </trkpt>
      <trkpt lat="44.37399" lon="5.50031">
        <ele>711</ele>
        <time>2018-05-17T02:42:49Z</time>
      </trkpt>
      <trkpt lat="44.37367" lon="5.49969">
        <ele>712</ele>
        <time>2018-05-17T02:43:49Z</time>
      </trkpt>
      <trkpt lat="44.37348" lon="5.49896">
        <ele>714</ele>
        <time>2018-05-17T02:44:49Z</time>
      </trkpt>
      <trkpt lat="44.37352" lon="5.49864">
        <ele>715</ele>
        <time>2018-05-17T02:45:49Z</time>
      </trkpt>
      <trkpt lat="44.37384" lon="5.49761">
        <ele>714</ele>
        <time>2018-05-17T02:46:49Z</time>
      </trkpt>
      <trkpt lat="44.37376" lon="5.49604">
        <ele>713</ele>
        <time>2018-05-17T02:47:49Z</time>
      </trkpt>
      <trkpt lat="44.37389" lon="5.4948">
        <ele>709</ele>
        <time>2018-05-17T02:48:49Z</time>
      </trkpt>
      <trkpt lat="44.37387" lon="5.49424">
        <ele>706</ele>
        <time>2018-05-17T02:49:49Z</time>
      </trkpt>
      <trkpt lat="44.37406" lon="5.49325">
        <ele>700</ele>
        <time>2018-05-17T02:50:49Z</time>
      </trkpt>
      <trkpt lat="44.37408" lon="5.49261">
        <ele>693</ele>
        <time>2018-05-17T02:51:49Z</time>
      </trkpt>
      <trkpt lat="44.37449" lon="5.49188">
        <ele>686</ele>
        <time>2018-05-17T02:52:49Z</time>
      </trkpt>
      <trkpt lat="44.37475" lon="5.49076">
        <ele>674</ele>
        <time>2018-05-17T02:53:49Z</time>
      </trkpt>
      <trkpt lat="44.37477" lon="5.49014">
        <ele>668</ele>
        <time>2018-05-17T02:54:49Z</time>
      </trkpt>
      <trkpt lat="44.375" lon="5.48956">
        <ele>656</ele>
        <time>2018-05-17T02:55:49Z</time>
      </trkpt>
      <trkpt lat="44.37502" lon="5.4887">
        <ele>649</ele>
        <time>2018-05-17T02:56:49Z</time>
      </trkpt>
      <trkpt lat="44.37515" lon="5.48836">
        <ele>645</ele>
        <time>2018-05-17T02:57:49Z</time>
      </trkpt>
      <trkpt lat="44.37524" lon="5.48765">
        <ele>641</ele>
        <time>2018-05-17T02:58:49Z</time>
      </trkpt>
      <trkpt lat="44.37513" lon="5.48733">
        <ele>642</ele>
        <time>2018-05-17T02:59:49Z</time>
      </trkpt>
      <trkpt lat="44.37526" lon="5.48668">
        <ele>635</ele>
        <time>2018-05-17T03:00:49Z</time>
      </trkpt>
      <trkpt lat="44.37537" lon="5.48535">
        <ele>614</ele>
        <time>2018-05-17T03:01:49Z</time>
      </trkpt>
      <trkpt lat="44.37524" lon="5.48471">
        <ele>606</ele>
        <time>2018-05-17T03:02:49Z</time>
      </trkpt>
      <trkpt lat="44.37507" lon="5.48424">
        <ele>601</ele>
        <time>2018-05-17T03:03:49Z</time>
      </trkpt>
      <trkpt lat="44.37492" lon="5.484">
        <ele>599</ele>
        <time>2018-05-17T03:04:49Z</time>
      </trkpt>
      <trkpt lat="44.37485" lon="5.48359">
        <ele>595</ele>
        <time>2018-05-17T03:05:49Z</time>
      </trkpt>
      <trkpt lat="44.37455" lon="5.48265">
        <ele>588</ele>
        <time>2018-05-17T03:06:49Z</time>
      </trkpt>
      <trkpt lat="44.37447" lon="5.48252">
        <ele>587</ele>
        <time>2018-05-17T03:07:49Z</time>
      </trkpt>
      <trkpt lat="44.37374" lon="5.48203">
        <ele>584</ele>
        <time>2018-05-17T03:08:49Z</time>
      </trkpt>
      <trkpt lat="44.37344" lon="5.48164">
        <ele>583</ele>
        <time>2018-05-17T03:09:49Z</time>
      </trkpt>
      <trkpt lat="44.37343" lon="5.48154">
        <ele>583</ele>
        <time>2018-05-17T03:10:49Z</time>
      </trkpt>
      <trkpt lat="44.37228" lon="5.47987">
        <ele>580</ele>
        <time>2018-05-17T03:11:49Z</time>
      </trkpt>
      <trkpt lat="44.37226" lon="5.47978">
        <ele>580</ele>
        <time>2018-05-17T03:12:49Z</time>
      </trkpt>
      <trkpt lat="44.37095" lon="5.47992">
        <ele>580</ele>
        <time>2018-05-17T03:13:49Z</time>
      </trkpt>
      <trkpt lat="44.37048" lon="5.47911">
        <ele>579</ele>
        <time>2018-05-17T03:14:49Z</time>
      </trkpt>
      <trkpt lat="44.37046" lon="5.47902">
        <ele>579</ele>
        <time>2018-05-17T03:15:49Z</time>
      </trkpt>
      <trkpt lat="44.36922" lon="5.47766">
        <ele>581</ele>
        <time>2018-05-17T03:16:49Z</time>
      </trkpt>
      <trkpt lat="44.36918" lon="5.47757">
        <ele>580</ele>
        <time>2018-05-17T03:17:49Z</time>
      </trkpt>
      <trkpt lat="44.36794" lon="5.47762">
        <ele>589</ele>
        <time>2018-05-17T03:18:49Z</time>
      </trkpt>
      <trkpt lat="44.36785" lon="5.47768">
        <ele>589</ele>
        <time>2018-05-17T03:19:49Z</time>
      </trkpt>
      <trkpt lat="44.36776" lon="5.47771">
        <ele>590</ele>
        <time>2018-05-17T03:20:49Z</time>
      </trkpt>
      <trkpt lat="44.36724" lon="5.47827">
        <ele>592</ele>
        <time>2018-05-17T03:21:49Z</time>
      </trkpt>
      <trkpt lat="44.36694" lon="5.47857">
        <ele>592</ele>
        <time>2018-05-17T03:22:49Z</time>
      </trkpt>
      <trkpt lat="44.36678" lon="5.47815">
        <ele>592</ele>
        <time>2018-05-17T03:23:49Z</time>
      </trkpt>
      <trkpt lat="44.36631" lon="5.47797">
        <ele>596</ele>
        <time>2018-05-17T03:24:49Z</time>
      </trkpt>
      <trkpt lat="44.36643" lon="5.47597">
        <ele>593</ele>
        <time>2018-05-17T03:25:49Z</time>
      </trkpt>
      <trkpt lat="44.36644" lon="5.47581">
        <ele>593</ele>
        <time>2018-05-17T03:26:49Z</time>
      </trkpt>
      <trkpt lat="44.36703" lon="5.47465">
        <ele>593</ele>
        <time>2018-05-17T03:27:49Z</time>
      </trkpt>
      <trkpt lat="44.36653" lon="5.47262">
        <ele>591</ele>
        <time>2018-05-17T03:28:49Z</time>
      </trkpt>
      <trkpt lat="44.36651" lon="5.47249">
        <ele>591</ele>
        <time>2018-05-17T03:29:49Z</time>
      </trkpt>
      <trkpt lat="44.36651" lon="5.47234">
        <ele>590</ele>
        <time>2018-05-17T03:30:49Z</time>
      </trkpt>
      <trkpt lat="44.36654" lon="5.46977">
        <ele>578</ele>
        <time>2018-05-17T03:31:49Z</time>
      </trkpt>
      <trkpt lat="44.36648" lon="5.46961">
        <ele>577</ele>
        <time>2018-05-17T03:32:49Z</time>
      </trkpt>
      <trkpt lat="44.36671" lon="5.4693">
        <ele>575</ele>
        <time>2018-05-17T03:33:49Z</time>
      </trkpt>
      <trkpt lat="44.36737" lon="5.47006">
        <ele>569</ele>
        <time>2018-05-17T03:34:49Z</time>
      </trkpt>
      <trkpt lat="44.36821" lon="5.47036">
        <ele>565</ele>
        <time>2018-05-17T03:35:49Z</time>
      </trkpt>
      <trkpt lat="44.36952" lon="5.47015">
        <ele>565</ele>
        <time>2018-05-17T03:36:49Z</time>
      </trkpt>
      <trkpt lat="44.36959" lon="5.47009">
        <ele>565</ele>
        <time>2018-05-17T03:37:49Z</time>
      </trkpt>
      <trkpt lat="44.3697" lon="5.46984">
        <ele>565</ele>
        <time>2018-05-17T03:38:49Z</time>
      </trkpt>
      <trkpt lat="44.36964" lon="5.46748">
        <ele>562</ele>
        <time>2018-05-17T03:39:49Z</time>
      </trkpt>
      <trkpt lat="44.36972" lon="5.46712">
        <ele>561</ele>
        <time>2018-05-17T03:40:49Z</time>
      </trkpt>
      <trkpt lat="44.37039" lon="5.46555">
        <ele>561</ele>
        <time>2018-05-17T03:41:49Z</time>
      </trkpt>
      <trkpt lat="44.3705" lon="5.46512">
        <ele>560</ele>
        <time>2018-05-17T03:42:49Z</time>
      </trkpt>
      <trkpt lat="44.37056" lon="5.46521">
        <ele>561</ele>
        <time>2018-05-17T03:43:49Z</time>
      </trkpt>
      <trkpt lat="44.3703" lon="5.4649">
        <ele>559</ele>
        <time>2018-05-17T03:44:49Z</time>
      </trkpt>
      <trkpt lat="44.37033" lon="5.46473">
        <ele>558</ele>
        <time>2018-05-17T03:45:49Z</time>
      </trkpt>
      <trkpt lat="44.37138" lon="5.46252">
        <ele>558</ele>
        <time>2018-05-17T03:46:49Z</time>
      </trkpt>
      <trkpt lat="44.37168" lon="5.46209">
        <ele>559</ele>
        <time>2018-05-17T03:47:49Z</time>
      </trkpt>
      <trkpt lat="44.37189" lon="5.46192">
        <ele>558</ele>
        <time>2018-05-17T03:48:49Z</time>
      </trkpt>
      <trkpt lat="44.37316" lon="5.46212">
        <ele>560</ele>
        <time>2018-05-17T03:49:49Z</time>
      </trkpt>
      <trkpt lat="44.37339" lon="5.46229">
        <ele>561</ele>
        <time>2018-05-17T03:50:49Z</time>
      </trkpt>
      <trkpt lat="44.37423" lon="5.46259">
        <ele>563</ele>
        <time>2018-05-17T03:51:49Z</time>
      </trkpt>
      <trkpt lat="44.37475" lon="5.46379">
        <ele>569</ele>
        <time>2018-05-17T03:52:49Z</time>
      </trkpt>
      <trkpt lat="44.37507" lon="5.4642">
        <ele>573</ele>
        <time>2018-05-17T03:53:49Z</time>
      </trkpt>
      <trkpt lat="44.37533" lon="5.46433">
        <ele>574</ele>
        <time>2018-05-17T03:54:49Z</time>
      </trkpt>
      <trkpt lat="44.37599" lon="5.46405">
        <ele>576</ele>
        <time>2018-05-17T03:55:49Z</time>
      </trkpt>
      <trkpt lat="44.3761" lon="5.46403">
        <ele>576</ele>
        <time>2018-05-17T03:56:49Z</time>
      </trkpt>
      <trkpt lat="44.37605" lon="5.46409">
        <ele>576</ele>
        <time>2018-05-17T03:57:49Z</time>
      </trkpt>
      <trkpt lat="44.37638" lon="5.46398">
        <ele>577</ele>
        <time>2018-05-17T03:58:49Z</time>
      </trkpt>
      <trkpt lat="44.37739" lon="5.46413">
        <ele>580</ele>
        <time>2018-05-17T03:59:49Z</time>
      </trkpt>
      <trkpt lat="44.37788" lon="5.46394">
        <ele>579</ele>
        <time>2018-05-17T04:00:49Z</time>
      </trkpt>
      <trkpt lat="44.37839" lon="5.46403">
        <ele>580</ele>
        <time>2018-05-17T04:01:49Z</time>
      </trkpt>
      <trkpt lat="44.37998" lon="5.4634">
        <ele>580</ele>
        <time>2018-05-17T04:02:49Z</time>
      </trkpt>
      <trkpt lat="44.3803" lon="5.46351">
        <ele>582</ele>
        <time>2018-05-17T04:03:49Z</time>
      </trkpt>
      <trkpt lat="44.38071" lon="5.464">
        <ele>587</ele>
        <time>2018-05-17T04:04:49Z</time>
      </trkpt>
      <trkpt lat="44.38116" lon="5.46394">
        <ele>588</ele>
        <time>2018-05-17T04:05:49Z</time>
      </trkpt>
      <trkpt lat="44.38138" lon="5.46397">
        <ele>588</ele>
        <time>2018-05-17T04:06:49Z</time>
      </trkpt>
      <trkpt lat="44.3828" lon="5.46468">
        <ele>594</ele>
        <time>2018-05-17T04:07:49Z</time>
      </trkpt>
      <trkpt lat="44.3829" lon="5.4648">
        <ele>595</ele>
        <time>2018-05-17T04:08:49Z</time>
      </trkpt>
      <trkpt lat="44.38369" lon="5.46527">
        <ele>600</ele>
        <time>2018-05-17T04:09:49Z</time>
      </trkpt>
      <trkpt lat="44.38414" lon="5.46538">
        <ele>599</ele>
        <time>2018-05-17T04:10:49Z</time>
      </trkpt>
      <trkpt lat="44.38459" lon="5.46536">
        <ele>601</ele>
        <time>2018-05-17T04:11:49Z</time>
      </trkpt>
      <trkpt lat="44.38483" lon="5.46546">
        <ele>602</ele>
        <time>2018-05-17T04:12:49Z</time>
      </trkpt>
      <trkpt lat="44.38502" lon="5.46542">
        <ele>603</ele>
        <time>2018-05-17T04:13:49Z</time>
      </trkpt>
      <trkpt lat="44.38565" lon="5.46589">
        <ele>605</ele>
        <time>2018-05-17T04:14:49Z</time>
      </trkpt>
      <trkpt lat="44.38616" lon="5.46647">
        <ele>609</ele>
        <time>2018-05-17T04:15:49Z</time>
      </trkpt>
      <trkpt lat="44.38642" lon="5.46634">
        <ele>608</ele>
        <time>2018-05-17T04:16:49Z</time>
      </trkpt>
      <trkpt lat="44.38653" lon="5.46643">
        <ele>608</ele>
        <time>2018-05-17T04:17:49Z</time>
      </trkpt>
      <trkpt lat="44.38683" lon="5.46699">
        <ele>610</ele>
        <time>2018-05-17T04:18:49Z</time>
      </trkpt>
      <trkpt lat="44.38762" lon="5.4675">
        <ele>617</ele>
        <time>2018-05-17T04:19:49Z</time>
      </trkpt>
      <trkpt lat="44.38788" lon="5.46784">
        <ele>622</ele>
        <time>2018-05-17T04:20:49Z</time>
      </trkpt>
      <trkpt lat="44.38852" lon="5.46842">
        <ele>635</ele>
        <time>2018-05-17T04:21:49Z</time>
      </trkpt>
      <trkpt lat="44.38884" lon="5.46885">
        <ele>645</ele>
        <time>2018-05-17T04:22:49Z</time>
      </trkpt>
      <trkpt lat="44.38914" lon="5.46911">
        <ele>655</ele>
        <time>2018-05-17T04:23:49Z</time>
      </trkpt>
      <trkpt lat="44.38914" lon="5.46954">
        <ele>657</ele>
        <time>2018-05-17T04:24:49Z</time>
      </trkpt>
      <trkpt lat="44.38932" lon="5.47044">
        <ele>664</ele>
        <time>2018-05-17T04:25:49Z</time>
      </trkpt>
      <trkpt lat="44.38942" lon="5.47057">
        <ele>666</ele>
        <time>2018-05-17T04:26:49Z</time>
      </trkpt>
      <trkpt lat="44.38949" lon="5.47089">
        <ele>668</ele>
        <time>2018-05-17T04:27:49Z</time>
      </trkpt>
      <trkpt lat="44.38977" lon="5.47145">
        <ele>669</ele>
        <time>2018-05-17T04:28:49Z</time>
      </trkpt>
      <trkpt lat="44.38987" lon="5.47149">
        <ele>670</ele>
        <time>2018-05-17T04:29:49Z</time>
      </trkpt>
      <trkpt lat="44.38981" lon="5.47156">
        <ele>670</ele>
        <time>2018-05-17T04:30:49Z</time>
      </trkpt>
      <trkpt lat="44.38992" lon="5.47156">
        <ele>671</ele>
        <time>2018-05-17T04:31:49Z</time>
      </trkpt>
      <trkpt lat="44.39011" lon="5.47175">
        <ele>673</ele>
        <time>2018-05-17T04:32:49Z</time>
      </trkpt>
      <trkpt lat="44.39095" lon="5.47216">
        <ele>679</ele>
        <time>2018-05-17T04:33:49Z</time>
      </trkpt>
      <trkpt lat="44.39191" lon="5.47323">
        <ele>684</ele>
        <time>2018-05-17T04:34:49Z</time>
      </trkpt>
      <trkpt lat="44.39247" lon="5.47351">
        <ele>687</ele>
        <time>2018-05-17T04:35:49Z</time>
      </trkpt>
      <trkpt lat="44.39288" lon="5.47454">
        <ele>692</ele>
        <time>2018-05-17T04:36:49Z</time>
      </trkpt>
      <trkpt lat="44.39298" lon="5.4746">
        <ele>692</ele>
        <time>2018-05-17T04:37:49Z</time>
      </trkpt>
      <trkpt lat="44.39318" lon="5.47445">
        <ele>692</ele>
        <time>2018-05-17T04:38:49Z</time>
      </trkpt>
      <trkpt lat="44.39326" lon="5.47447">
        <ele>692</ele>
        <time>2018-05-17T04:39:49Z</time>
      </trkpt>
      <trkpt lat="44.39322" lon="5.47463">
        <ele>693</ele>
        <time>2018-05-17T04:40:49Z</time>
      </trkpt>
      <trkpt lat="44.39311" lon="5.47473">
        <ele>693</ele>
        <time>2018-05-17T04:41:49Z</time>
      </trkpt>
      <trkpt lat="44.39326" lon="5.47454">
        <ele>692</ele>
        <time>2018-05-17T04:42:49Z</time>
      </trkpt>
      <trkpt lat="44.39307" lon="5.47327">
        <ele>695</ele>
        <time>2018-05-17T04:43:49Z</time>
      </trkpt>
      <trkpt lat="44.39307" lon="5.47239">
        <ele>702</ele>
        <time>2018-05-17T04:44:49Z</time>
      </trkpt>
      <trkpt lat="44.39266" lon="5.47117">
        <ele>706</ele>
        <time>2018-05-17T04:45:49Z</time>
      </trkpt>
      <trkpt lat="44.3926" lon="5.47115">
        <ele>705</ele>
        <time>2018-05-17T04:46:49Z</time>
      </trkpt>
      <trkpt lat="44.39266" lon="5.47091">
        <ele>707</ele>
        <time>2018-05-17T04:47:49Z</time>
      </trkpt>
      <trkpt lat="44.3926" lon="5.47098">
        <ele>706</ele>
        <time>2018-05-17T04:48:49Z</time>
      </trkpt>
      <trkpt lat="44.39264" lon="5.47098">
        <ele>707</ele>
        <time>2018-05-17T04:49:49Z</time>
      </trkpt>
      <trkpt lat="44.39264" lon="5.47106">
        <ele>706</ele>
        <time>2018-05-17T04:50:49Z</time>
      </trkpt>
      <trkpt lat="44.39301" lon="5.47123">
        <ele>710</ele>
        <time>2018-05-17T04:51:49Z</time>
      </trkpt>
      <trkpt lat="44.39348" lon="5.47186">
        <ele>715</ele>
        <time>2018-05-17T04:52:49Z</time>
      </trkpt>
      <trkpt lat="44.39384" lon="5.47269">
        <ele>715</ele>
        <time>2018-05-17T04:53:49Z</time>
      </trkpt>
      <trkpt lat="44.39395" lon="5.47278">
        <ele>716</ele>
        <time>2018-05-17T04:54:49Z</time>
      </trkpt>
      <trkpt lat="44.39535" lon="5.47323">
        <ele>725</ele>
        <time>2018-05-17T04:55:49Z</time>
      </trkpt>
      <trkpt lat="44.39577" lon="5.47317">
        <ele>732</ele>
        <time>2018-05-17T04:56:49Z</time>
      </trkpt>
      <trkpt lat="44.39625" lon="5.47319">
        <ele>740</ele>
        <time>2018-05-17T04:57:49Z</time>
      </trkpt>
      <trkpt lat="44.39648" lon="5.47312">
        <ele>745</ele>
        <time>2018-05-17T04:58:49Z</time>
      </trkpt>
      <trkpt lat="44.39683" lon="5.47325">
        <ele>750</ele>
        <time>2018-05-17T04:59:49Z</time>
      </trkpt>
      <trkpt lat="44.39678" lon="5.47415">
        <ele>745</ele>
        <time>2018-05-17T05:00:49Z</time>
      </trkpt>
      <trkpt lat="44.39745" lon="5.47478">
        <ele>756</ele>
        <time>2018-05-17T05:01:49Z</time>
      </trkpt>
      <trkpt lat="44.39758" lon="5.47478">
        <ele>758</ele>
        <time>2018-05-17T05:02:49Z</time>
      </trkpt>
      <trkpt lat="44.3976" lon="5.47465">
        <ele>760</ele>
        <time>2018-05-17T05:03:49Z</time>
      </trkpt>
      <trkpt lat="44.39747" lon="5.47435">
        <ele>762</ele>
        <time>2018-05-17T05:04:49Z</time>
      </trkpt>
      <trkpt lat="44.39745" lon="5.47402">
        <ele>763</ele>
        <time>2018-05-17T05:05:49Z</time>
      </trkpt>
      <trkpt lat="44.39758" lon="5.47394">
        <ele>766</ele>
        <time>2018-05-17T05:06:49Z</time>
      </trkpt>
      <trkpt lat="44.39835" lon="5.47375">
        <ele>779</ele>
        <time>2018-05-17T05:07:49Z</time>
      </trkpt>
      <trkpt lat="44.39859" lon="5.4742">
        <ele>781</ele>
        <time>2018-05-17T05:08:49Z</time>
      </trkpt>
      <trkpt lat="44.39859" lon="5.47467">
        <ele>777</ele>
        <time>2018-05-17T05:09:49Z</time>
      </trkpt>
      <trkpt lat="44.39867" lon="5.47482">
        <ele>777</ele>
        <time>2018-05-17T05:10:49Z</time>
      </trkpt>
      <trkpt lat="44.39893" lon="5.47493">
        <ele>782</ele>
        <time>2018-05-17T05:11:49Z</time>
      </trkpt>
      <trkpt lat="44.39929" lon="5.47523">
        <ele>784</ele>
        <time>2018-05-17T05:12:49Z</time>
      </trkpt>
      <trkpt lat="44.39944" lon="5.47527">
        <ele>784</ele>
        <time>2018-05-17T05:13:49Z</time>
      </trkpt>
      <trkpt lat="44.39955" lon="5.47516">
        <ele>788</ele>
        <time>2018-05-17T05:14:49Z</time>
      </trkpt>
      <trkpt lat="44.39949" lon="5.47499">
        <ele>791</ele>
        <time>2018-05-17T05:15:49Z</time>
      </trkpt>
      <trkpt lat="44.39914" lon="5.47471">
        <ele>788</ele>
        <time>2018-05-17T05:16:49Z</time>
      </trkpt>
      <trkpt lat="44.39914" lon="5.47454">
        <ele>790</ele>
        <time>2018-05-17T05:17:49Z</time>
      </trkpt>
      <trkpt lat="44.39942" lon="5.4739">
        <ele>800</ele>
        <time>2018-05-17T05:18:49Z</time>
      </trkpt>
      <trkpt lat="44.39972" lon="5.47353">
        <ele>807</ele>
        <time>2018-05-17T05:19:49Z</time>
      </trkpt>
      <trkpt lat="44.39981" lon="5.47357">
        <ele>809</ele>
        <time>2018-05-17T05:20:49Z</time>
      </trkpt>
      <trkpt lat="44.39977" lon="5.47372">
        <ele>808</ele>
        <time>2018-05-17T05:21:49Z</time>
      </trkpt>
      <trkpt lat="44.39964" lon="5.47383">
        <ele>805</ele>
        <time>2018-05-17T05:22:49Z</time>
      </trkpt>
      <trkpt lat="44.39957" lon="5.47405">
        <ele>803</ele>
        <time>2018-05-17T05:23:49Z</time>
      </trkpt>
      <trkpt lat="44.39968" lon="5.4742">
        <ele>804</ele>
        <time>2018-05-17T05:24:49Z</time>
      </trkpt>
      <trkpt lat="44.39981" lon="5.47422">
        <ele>806</ele>
        <time>2018-05-17T05:25:49Z</time>
      </trkpt>
      <trkpt lat="44.40019" lon="5.47405">
        <ele>814</ele>
        <time>2018-05-17T05:26:49Z</time>
      </trkpt>
      <trkpt lat="44.40045" lon="5.47417">
        <ele>817</ele>
        <time>2018-05-17T05:27:49Z</time>
      </trkpt>
      <trkpt lat="44.40071" lon="5.47415">
        <ele>820</ele>
        <time>2018-05-17T05:28:49Z</time>
      </trkpt>
      <trkpt lat="44.40112" lon="5.47426">
        <ele>827</ele>
        <time>2018-05-17T05:29:49Z</time>
      </trkpt>
      <trkpt lat="44.40127" lon="5.47456">
        <ele>829</ele>
        <time>2018-05-17T05:30:49Z</time>
      </trkpt>
      <trkpt lat="44.4012" lon="5.47514">
        <ele>821</ele>
        <time>2018-05-17T05:31:49Z</time>
      </trkpt>
      <trkpt lat="44.40165" lon="5.47553">
        <ele>825</ele>
        <time>2018-05-17T05:32:49Z</time>
      </trkpt>
      <trkpt lat="44.40219" lon="5.47585">
        <ele>831</ele>
        <time>2018-05-17T05:33:49Z</time>
      </trkpt>
      <trkpt lat="44.40251" lon="5.47593">
        <ele>837</ele>
        <time>2018-05-17T05:34:49Z</time>
      </trkpt>
      <trkpt lat="44.40309" lon="5.47623">
        <ele>840</ele>
        <time>2018-05-17T05:35:49Z</time>
      </trkpt>
      <trkpt lat="44.40335" lon="5.47626">
        <ele>846</ele>
        <time>2018-05-17T05:36:49Z</time>
      </trkpt>
      <trkpt lat="44.40427" lon="5.47673">
        <ele>854</ele>
        <time>2018-05-17T05:37:49Z</time>
      </trkpt>
      <trkpt lat="44.40449" lon="5.47699">
        <ele>849</ele>
        <time>2018-05-17T05:38:49Z</time>
      </trkpt>
      <trkpt lat="44.40461" lon="5.47703">
        <ele>851</ele>
        <time>2018-05-17T05:39:49Z</time>
      </trkpt>
      <trkpt lat="44.40534" lon="5.47703">
        <ele>863</ele>
        <time>2018-05-17T05:40:49Z</time>
      </trkpt>
      <trkpt lat="44.40547" lon="5.47692">
        <ele>867</ele>
        <time>2018-05-17T05:41:49Z</time>
      </trkpt>
      <trkpt lat="44.40599" lon="5.47684">
        <ele>875</ele>
        <time>2018-05-17T05:42:49Z</time>
      </trkpt>
      <trkpt lat="44.40612" lon="5.47686">
        <ele>876</ele>
        <time>2018-05-17T05:43:49Z</time>
      </trkpt>
      <trkpt lat="44.40635" lon="5.47705">
        <ele>877</ele>
        <time>2018-05-17T05:44:49Z</time>
      </trkpt>
      <trkpt lat="44.4071" lon="5.47733">
        <ele>888</ele>
        <time>2018-05-17T05:45:49Z</time>
      </trkpt>
      <trkpt lat="44.40721" lon="5.47756">
        <ele>887</ele>
        <time>2018-05-17T05:46:49Z</time>
      </trkpt>
      <trkpt lat="44.40736" lon="5.47778">
        <ele>888</ele>
        <time>2018-05-17T05:47:49Z</time>
      </trkpt>
      <trkpt lat="44.40736" lon="5.47774">
        <ele>888</ele>
        <time>2018-05-17T05:48:49Z</time>
      </trkpt>
      <trkpt lat="44.40732" lon="5.47778">
        <ele>887</ele>
        <time>2018-05-17T05:49:49Z</time>
      </trkpt>
      <trkpt lat="44.40768" lon="5.47821">
        <ele>892</ele>
        <time>2018-05-17T05:50:49Z</time>
      </trkpt>
      <trkpt lat="44.40818" lon="5.47937">
        <ele>899</ele>
        <time>2018-05-17T05:51:49Z</time>
      </trkpt>
      <trkpt lat="44.40831" lon="5.47937">
        <ele>903</ele>
        <time>2018-05-17T05:52:49Z</time>
      </trkpt>
      <trkpt lat="44.40833" lon="5.47917">
        <ele>907</ele>
        <time>2018-05-17T05:53:49Z</time>
      </trkpt>
      <trkpt lat="44.4082" lon="5.47885">
        <ele>905</ele>
        <time>2018-05-17T05:54:49Z</time>
      </trkpt>
      <trkpt lat="44.40816" lon="5.47849">
        <ele>906</ele>
        <time>2018-05-17T05:55:49Z</time>
      </trkpt>
      <trkpt lat="44.4082" lon="5.47774">
        <ele>912</ele>
        <time>2018-05-17T05:56:49Z</time>
      </trkpt>
      <trkpt lat="44.40816" lon="5.47716">
        <ele>916</ele>
        <time>2018-05-17T05:57:49Z</time>
      </trkpt>
      <trkpt lat="44.40822" lon="5.47699">
        <ele>918</ele>
        <time>2018-05-17T05:58:49Z</time>
      </trkpt>
      <trkpt lat="44.40835" lon="5.4769">
        <ele>922</ele>
        <time>2018-05-17T05:59:49Z</time>
      </trkpt>
      <trkpt lat="44.40846" lon="5.47701">
        <ele>925</ele>
        <time>2018-05-17T06:00:49Z</time>
      </trkpt>
      <trkpt lat="44.40861" lon="5.47825">
        <ele>922</ele>
        <time>2018-05-17T06:01:49Z</time>
      </trkpt>
      <trkpt lat="44.40873" lon="5.4784">
        <ele>924</ele>
        <time>2018-05-17T06:02:49Z</time>
      </trkpt>
      <trkpt lat="44.40912" lon="5.47859">
        <ele>934</ele>
        <time>2018-05-17T06:03:49Z</time>
      </trkpt>
      <trkpt lat="44.40961" lon="5.47905">
        <ele>946</ele>
        <time>2018-05-17T06:04:49Z</time>
      </trkpt>
      <trkpt lat="44.40976" lon="5.47941">
        <ele>947</ele>
        <time>2018-05-17T06:05:49Z</time>
      </trkpt>
      <trkpt lat="44.40972" lon="5.47999">
        <ele>942</ele>
        <time>2018-05-17T06:06:49Z</time>
      </trkpt>
      <trkpt lat="44.40979" lon="5.48042">
        <ele>940</ele>
        <time>2018-05-17T06:07:49Z</time>
      </trkpt>
      <trkpt lat="44.40998" lon="5.48068">
        <ele>945</ele>
        <time>2018-05-17T06:08:49Z</time>
      </trkpt>
      <trkpt lat="44.41039" lon="5.48149">
        <ele>947</ele>
        <time>2018-05-17T06:09:49Z</time>
      </trkpt>
      <trkpt lat="44.41084" lon="5.48196">
        <ele>957</ele>
        <time>2018-05-17T06:10:49Z</time>
      </trkpt>
      <trkpt lat="44.41088" lon="5.48175">
        <ele>963</ele>
        <time>2018-05-17T06:11:49Z</time>
      </trkpt>
      <trkpt lat="44.41079" lon="5.4813">
        <ele>965</ele>
        <time>2018-05-17T06:12:49Z</time>
      </trkpt>
      <trkpt lat="44.41097" lon="5.48044">
        <ele>981</ele>
        <time>2018-05-17T06:13:49Z</time>
      </trkpt>
      <trkpt lat="44.41084" lon="5.47969">
        <ele>983</ele>
        <time>2018-05-17T06:14:49Z</time>
      </trkpt>
      <trkpt lat="44.41067" lon="5.4792">
        <ele>981</ele>
        <time>2018-05-17T06:15:49Z</time>
      </trkpt>
      <trkpt lat="44.41045" lon="5.47896">
        <ele>976</ele>
        <time>2018-05-17T06:16:49Z</time>
      </trkpt>
      <trkpt lat="44.4103" lon="5.47829">
        <ele>979</ele>
        <time>2018-05-17T06:17:49Z</time>
      </trkpt>
      <trkpt lat="44.41028" lon="5.47769">
        <ele>984</ele>
        <time>2018-05-17T06:18:49Z</time>
      </trkpt>
      <trkpt lat="44.41011" lon="5.47714">
        <ele>985</ele>
        <time>2018-05-17T06:19:49Z</time>
      </trkpt>
      <trkpt lat="44.41017" lon="5.47675">
        <ele>992</ele>
        <time>2018-05-17T06:20:49Z</time>
      </trkpt>
      <trkpt lat="44.4103" lon="5.47686">
        <ele>995</ele>
        <time>2018-05-17T06:21:49Z</time>
      </trkpt>
      <trkpt lat="44.41043" lon="5.47722">
        <ele>995</ele>
        <time>2018-05-17T06:22:49Z</time>
      </trkpt>
      <trkpt lat="44.41144" lon="5.47851">
        <ele>1013</ele>
        <time>2018-05-17T06:23:49Z</time>
      </trkpt>
      <trkpt lat="44.41176" lon="5.47952">
        <ele>1014</ele>
        <time>2018-05-17T06:24:49Z</time>
      </trkpt>
      <trkpt lat="44.41221" lon="5.48008">
        <ele>1027</ele>
        <time>2018-05-17T06:25:49Z</time>
      </trkpt>
      <trkpt lat="44.41249" lon="5.4807">
        <ele>1032</ele>
        <time>2018-05-17T06:26:49Z</time>
      </trkpt>
      <trkpt lat="44.4129" lon="5.48224">
        <ele>1034</ele>
        <time>2018-05-17T06:27:49Z</time>
      </trkpt>
      <trkpt lat="44.41397" lon="5.48355">
        <ele>1050</ele>
        <time>2018-05-17T06:28:49Z</time>
      </trkpt>
      <trkpt lat="44.41459" lon="5.48447">
        <ele>1050</ele>
        <time>2018-05-17T06:29:49Z</time>
      </trkpt>
      <trkpt lat="44.41472" lon="5.48458">
        <ele>1051</ele>
        <time>2018-05-17T06:30:49Z</time>
      </trkpt>
      <trkpt lat="44.41537" lon="5.48443">
        <ele>1080</ele>
        <time>2018-05-17T06:31:49Z</time>
      </trkpt>
      <trkpt lat="44.41549" lon="5.48452">
        <ele>1082</ele>
        <time>2018-05-17T06:32:49Z</time>
      </trkpt>
      <trkpt lat="44.41556" lon="5.48486">
        <ele>1076</ele>
        <time>2018-05-17T06:33:49Z</time>
      </trkpt>
      <trkpt lat="44.41586" lon="5.48527">
        <ele>1087</ele>
        <time>2018-05-17T06:34:49Z</time>
      </trkpt>
      <trkpt lat="44.41588" lon="5.48559">
        <ele>1088</ele>
        <time>2018-05-17T06:35:49Z</time>
      </trkpt>
      <trkpt lat="44.41569" lon="5.48587">
        <ele>1079</ele>
        <time>2018-05-17T06:36:49Z</time>
      </trkpt>
      <trkpt lat="44.41554" lon="5.48632">
        <ele>1080</ele>
        <time>2018-05-17T06:37:49Z</time>
      </trkpt>
      <trkpt lat="44.41498" lon="5.48707">
        <ele>1077</ele>
        <time>2018-05-17T06:38:49Z</time>
      </trkpt>
      <trkpt lat="44.41502" lon="5.48741">
        <ele>1085</ele>
        <time>2018-05-17T06:39:49Z</time>
      </trkpt>
      <trkpt lat="44.4153" lon="5.48761">
        <ele>1085</ele>
        <time>2018-05-17T06:40:49Z</time>
      </trkpt>
      <trkpt lat="44.41545" lon="5.48763">
        <ele>1083</ele>
        <time>2018-05-17T06:41:49Z</time>
      </trkpt>
      <trkpt lat="44.41577" lon="5.4875">
        <ele>1082</ele>
        <time>2018-05-17T06:42:49Z</time>
      </trkpt>
      <trkpt lat="44.41599" lon="5.48756">
        <ele>1086</ele>
        <time>2018-05-17T06:43:49Z</time>
      </trkpt>
      <trkpt lat="44.41646" lon="5.48864">
        <ele>1073</ele>
        <time>2018-05-17T06:44:49Z</time>
      </trkpt>
      <trkpt lat="44.41691" lon="5.4893">
        <ele>1059</ele>
        <time>2018-05-17T06:45:49Z</time>
      </trkpt>
      <trkpt lat="44.41725" lon="5.48962">
        <ele>1057</ele>
        <time>2018-05-17T06:46:49Z</time>
      </trkpt>
      <trkpt lat="44.41766" lon="5.4896">
        <ele>1071</ele>
        <time>2018-05-17T06:47:49Z</time>
      </trkpt>
      <trkpt lat="44.41775" lon="5.48969">
        <ele>1071</ele>
        <time>2018-05-17T06:48:49Z</time>
      </trkpt>
      <trkpt lat="44.41792" lon="5.49055">
        <ele>1052</ele>
        <time>2018-05-17T06:49:49Z</time>
      </trkpt>
      <trkpt lat="44.41792" lon="5.49098">
        <ele>1040</ele>
        <time>2018-05-17T06:50:49Z</time>
      </trkpt>
      <trkpt lat="44.41852" lon="5.49213">
        <ele>1034</ele>
        <time>2018-05-17T06:51:49Z</time>
      </trkpt>
      <trkpt lat="44.41871" lon="5.49237">
        <ele>1031</ele>
        <time>2018-05-17T06:52:49Z</time>
      </trkpt>
      <trkpt lat="44.4191" lon="5.49256">
        <ele>1034</ele>
        <time>2018-05-17T06:53:49Z</time>
      </trkpt>
      <trkpt lat="44.42021" lon="5.49252">
        <ele>1036</ele>
        <time>2018-05-17T06:54:49Z</time>
      </trkpt>
      <trkpt lat="44.42133" lon="5.49267">
        <ele>1042</ele>
        <time>2018-05-17T06:55:49Z</time>
      </trkpt>
      <trkpt lat="44.42142" lon="5.49278">
        <ele>1042</ele>
        <time>2018-05-17T06:56:49Z</time>
      </trkpt>
      <trkpt lat="44.42131" lon="5.49344">
        <ele>1031</ele>
        <time>2018-05-17T06:57:49Z</time>
      </trkpt>
      <trkpt lat="44.42135" lon="5.49445">
        <ele>1031</ele>
        <time>2018-05-17T06:58:49Z</time>
      </trkpt>
      <trkpt lat="44.42056" lon="5.49578">
        <ele>1016</ele>
        <time>2018-05-17T06:59:49Z</time>
      </trkpt>
      <trkpt lat="44.42039" lon="5.49632">
        <ele>1017</ele>
        <time>2018-05-17T07:00:49Z</time>
      </trkpt>
      <trkpt lat="44.42021" lon="5.49716">
        <ele>1019</ele>
        <time>2018-05-17T07:01:49Z</time>
      </trkpt>
      <trkpt lat="44.42015" lon="5.49752">
        <ele>1019</ele>
        <time>2018-05-17T07:02:49Z</time>
      </trkpt>
      <trkpt lat="44.42013" lon="5.49825">
        <ele>1022</ele>
        <time>2018-05-17T07:03:49Z</time>
      </trkpt>
      <trkpt lat="44.41998" lon="5.49939">
        <ele>1011</ele>
        <time>2018-05-17T07:04:49Z</time>
      </trkpt>
      <trkpt lat="44.41998" lon="5.49954">
        <ele>1010</ele>
        <time>2018-05-17T07:05:49Z</time>
      </trkpt>
      <trkpt lat="44.42021" lon="5.49984">
        <ele>1020</ele>
        <time>2018-05-17T07:06:49Z</time>
      </trkpt>
      <trkpt lat="44.42024" lon="5.49999">
        <ele>1021</ele>
        <time>2018-05-17T07:07:49Z</time>
      </trkpt>
      <trkpt lat="44.42015" lon="5.50048">
        <ele>1021</ele>
        <time>2018-05-17T07:08:49Z</time>
      </trkpt>
      <trkpt lat="44.42019" lon="5.50093">
        <ele>1027</ele>
        <time>2018-05-17T07:09:49Z</time>
      </trkpt>
      <trkpt lat="44.42013" lon="5.50192">
        <ele>1033</ele>
        <time>2018-05-17T07:10:49Z</time>
      </trkpt>
      <trkpt lat="44.42019" lon="5.50237">
        <ele>1040</ele>
        <time>2018-05-17T07:11:49Z</time>
      </trkpt>
      <trkpt lat="44.42041" lon="5.50396">
        <ele>1064</ele>
        <time>2018-05-17T07:12:49Z</time>
      </trkpt>
      <trkpt lat="44.42041" lon="5.50484">
        <ele>1071</ele>
        <time>2018-05-17T07:13:49Z</time>
      </trkpt>
      <trkpt lat="44.4203" lon="5.50548">
        <ele>1072</ele>
        <time>2018-05-17T07:14:49Z</time>
      </trkpt>
      <trkpt lat="44.42034" lon="5.5061">
        <ele>1077</ele>
        <time>2018-05-17T07:15:49Z</time>
      </trkpt>
      <trkpt lat="44.42034" lon="5.50655">
        <ele>1080</ele>
        <time>2018-05-17T07:16:49Z</time>
      </trkpt>
      <trkpt lat="44.42028" lon="5.5067">
        <ele>1081</ele>
        <time>2018-05-17T07:17:49Z</time>
      </trkpt>
      <trkpt lat="44.42036" lon="5.50668">
        <ele>1081</ele>
        <time>2018-05-17T07:18:49Z</time>
      </trkpt>
      <trkpt lat="44.4203" lon="5.50681">
        <ele>1082</ele>
        <time>2018-05-17T07:19:49Z</time>
      </trkpt>
      <trkpt lat="44.42039" lon="5.50696">
        <ele>1085</ele>
        <time>2018-05-17T07:20:49Z</time>
      </trkpt>
      <trkpt lat="44.4206" lon="5.50698">
        <ele>1087</ele>
        <time>2018-05-17T07:21:49Z</time>
      </trkpt>
      <trkpt lat="44.42067" lon="5.50838">
        <ele>1109</ele>
        <time>2018-05-17T07:22:49Z</time>
      </trkpt>
      <trkpt lat="44.42052" lon="5.50891">
        <ele>1115</ele>
        <time>2018-05-17T07:23:49Z</time>
      </trkpt>
      <trkpt lat="44.42032" lon="5.50906">
        <ele>1117</ele>
        <time>2018-05-17T07:24:49Z</time>
      </trkpt>
      <trkpt lat="44.42024" lon="5.50904">
        <ele>1117</ele>
        <time>2018-05-17T07:25:49Z</time>
      </trkpt>
      <trkpt lat="44.41968" lon="5.50793">
        <ele>1108</ele>
        <time>2018-05-17T07:26:49Z</time>
      </trkpt>
      <trkpt lat="44.41968" lon="5.50786">
        <ele>1107</ele>
        <time>2018-05-17T07:27:49Z</time>
      </trkpt>
      <trkpt lat="44.41972" lon="5.50806">
        <ele>1109</ele>
        <time>2018-05-17T07:28:49Z</time>
      </trkpt>
      <trkpt lat="44.41989" lon="5.50849">
        <ele>1111</ele>
        <time>2018-05-17T07:29:49Z</time>
      </trkpt>
      <trkpt lat="44.42015" lon="5.50898">
        <ele>1116</ele>
        <time>2018-05-17T07:30:49Z</time>
      </trkpt>
      <trkpt lat="44.42019" lon="5.50926">
        <ele>1119</ele>
        <time>2018-05-17T07:31:49Z</time>
      </trkpt>
      <trkpt lat="44.42021" lon="5.50921">
        <ele>1119</ele>
        <time>2018-05-17T07:32:49Z</time>
      </trkpt>
      <trkpt lat="44.42026" lon="5.50926">
        <ele>1119</ele>
        <time>2018-05-17T07:33:49Z</time>
      </trkpt>
      <trkpt lat="44.4206" lon="5.50926">
        <ele>1119</ele>
        <time>2018-05-17T07:34:49Z</time>
      </trkpt>
      <trkpt lat="44.42071" lon="5.50924">
        <ele>1118</ele>
        <time>2018-05-17T07:35:49Z</time>
      </trkpt>
      <trkpt lat="44.42077" lon="5.5093">
        <ele>1119</ele>
        <time>2018-05-17T07:36:49Z</time>
      </trkpt>
      <trkpt lat="44.42079" lon="5.5093">
        <ele>1119</ele>
        <time>2018-05-17T07:37:49Z</time>
      </trkpt>
      <trkpt lat="44.42069" lon="5.50928">
        <ele>1119</ele>
        <time>2018-05-17T07:38:49Z</time>
      </trkpt>
      <trkpt lat="44.42041" lon="5.50964">
        <ele>1120</ele>
        <time>2018-05-17T07:39:49Z</time>
      </trkpt>
      <trkpt lat="44.42013" lon="5.50971">
        <ele>1120</ele>
        <time>2018-05-17T07:40:49Z</time>
      </trkpt>
      <trkpt lat="44.42013" lon="5.50962">
        <ele>1120</ele>
        <time>2018-05-17T07:41:49Z</time>
      </trkpt>
      <trkpt lat="44.42011" lon="5.50967">
        <ele>1120</ele>
        <time>2018-05-17T07:42:49Z</time>
      </trkpt>
      <trkpt lat="44.42009" lon="5.5096">
        <ele>1120</ele>
        <time>2018-05-17T07:43:49Z</time>
      </trkpt>
      <trkpt lat="44.42015" lon="5.50973">
        <ele>1120</ele>
        <time>2018-05-17T07:44:49Z</time>
      </trkpt>
      <trkpt lat="44.42011" lon="5.50973">
        <ele>1120</ele>
        <time>2018-05-17T07:45:49Z</time>
      </trkpt>
      <trkpt lat="44.42011" lon="5.50982">
        <ele>1121</ele>
        <time>2018-05-17T07:46:49Z</time>
      </trkpt>
      <trkpt lat="44.42011" lon="5.50958">
        <ele>1120</ele>
        <time>2018-05-17T07:47:49Z</time>
      </trkpt>
      <trkpt lat="44.42011" lon="5.50969">
        <ele>1120</ele>
        <time>2018-05-17T07:48:49Z</time>
      </trkpt>
      <trkpt lat="44.42004" lon="5.50964">
        <ele>1120</ele>
        <time>2018-05-17T07:49:49Z</time>
      </trkpt>
      <trkpt lat="44.41996" lon="5.50979">
        <ele>1122</ele>
        <time>2018-05-17T07:50:49Z</time>
      </trkpt>
      <trkpt lat="44.42002" lon="5.50967">
        <ele>1120</ele>
        <time>2018-05-17T07:51:49Z</time>
      </trkpt>
      <trkpt lat="44.42026" lon="5.50964">
        <ele>1120</ele>
        <time>2018-05-17T07:52:49Z</time>
      </trkpt>
      <trkpt lat="44.42073" lon="5.51027">
        <ele>1119</ele>
        <time>2018-05-17T07:53:49Z</time>
      </trkpt>
      <trkpt lat="44.42094" lon="5.5104">
        <ele>1121</ele>
        <time>2018-05-17T07:54:49Z</time>
      </trkpt>
      <trkpt lat="44.42142" lon="5.51089">
        <ele>1128</ele>
        <time>2018-05-17T07:55:49Z</time>
      </trkpt>
      <trkpt lat="44.42161" lon="5.51125">
        <ele>1126</ele>
        <time>2018-05-17T07:56:49Z</time>
      </trkpt>
      <trkpt lat="44.42163" lon="5.51162">
        <ele>1121</ele>
        <time>2018-05-17T07:57:49Z</time>
      </trkpt>
      <trkpt lat="44.42165" lon="5.51182">
        <ele>1118</ele>
        <time>2018-05-17T07:58:49Z</time>
      </trkpt>
      <trkpt lat="44.42199" lon="5.51253">
        <ele>1119</ele>
        <time>2018-05-17T07:59:49Z</time>
      </trkpt>
      <trkpt lat="44.42136" lon="5.51413">
        <ele>1081</ele>
        <time>2018-05-17T08:00:49Z</time>
      </trkpt>
      <trkpt lat="44.42089" lon="5.51392">
        <ele>1061</ele>
        <time>2018-05-17T08:01:49Z</time>
      </trkpt>
      <trkpt lat="44.42031" lon="5.51624">
        <ele>1010</ele>
        <time>2018-05-17T08:02:49Z</time>
      </trkpt>
      <trkpt lat="44.42041" lon="5.51816">
        <ele>995</ele>
        <time>2018-05-17T08:03:49Z</time>
      </trkpt>
      <trkpt lat="44.41988" lon="5.51851">
        <ele>974</ele>
        <time>2018-05-17T08:04:49Z</time>
      </trkpt>
      <trkpt lat="44.41992" lon="5.5186">
        <ele>975</ele>
        <time>2018-05-17T08:05:49Z</time>
      </trkpt>
      <trkpt lat="44.41985" lon="5.5202">
        <ele>976</ele>
        <time>2018-05-17T08:06:49Z</time>
      </trkpt>
      <trkpt lat="44.4193" lon="5.52139">
        <ele>968</ele>
        <time>2018-05-17T08:07:49Z</time>
      </trkpt>
      <trkpt lat="44.41955" lon="5.52533">
        <ele>1035</ele>
        <time>2018-05-17T08:08:49Z</time>
      </trkpt>
      <trkpt lat="44.41961" lon="5.52546">
        <ele>1039</ele>
        <time>2018-05-17T08:09:49Z</time>
      </trkpt>
      <trkpt lat="44.41963" lon="5.52556">
        <ele>1042</ele>
        <time>2018-05-17T08:10:49Z</time>
      </trkpt>
      <trkpt lat="44.42003" lon="5.52589">
        <ele>1055</ele>
        <time>2018-05-17T08:11:49Z</time>
      </trkpt>
      <trkpt lat="44.41979" lon="5.52707">
        <ele>1082</ele>
        <time>2018-05-17T08:12:49Z</time>
      </trkpt>
      <trkpt lat="44.42011" lon="5.52853">
        <ele>1116</ele>
        <time>2018-05-17T08:13:49Z</time>
      </trkpt>
      <trkpt lat="44.42015" lon="5.52863">
        <ele>1119</ele>
        <time>2018-05-17T08:14:49Z</time>
      </trkpt>
      <trkpt lat="44.42011" lon="5.52998">
        <ele>1137</ele>
        <time>2018-05-17T08:15:49Z</time>
      </trkpt>
      <trkpt lat="44.42009" lon="5.53016">
        <ele>1136</ele>
        <time>2018-05-17T08:16:49Z</time>
      </trkpt>
      <trkpt lat="44.42013" lon="5.53014">
        <ele>1137</ele>
        <time>2018-05-17T08:17:49Z</time>
      </trkpt>
      <trkpt lat="44.42024" lon="5.53059">
        <ele>1136</ele>
        <time>2018-05-17T08:18:49Z</time>
      </trkpt>
      <trkpt lat="44.42043" lon="5.53108">
        <ele>1132</ele>
        <time>2018-05-17T08:19:49Z</time>
      </trkpt>
      <trkpt lat="44.42069" lon="5.53211">
        <ele>1113</ele>
        <time>2018-05-17T08:20:49Z</time>
      </trkpt>
      <trkpt lat="44.42069" lon="5.53248">
        <ele>1107</ele>
        <time>2018-05-17T08:21:49Z</time>
      </trkpt>
      <trkpt lat="44.42017" lon="5.53447">
        <ele>1058</ele>
        <time>2018-05-17T08:22:49Z</time>
      </trkpt>
      <trkpt lat="44.42017" lon="5.53556">
        <ele>1047</ele>
        <time>2018-05-17T08:23:49Z</time>
      </trkpt>
      <trkpt lat="44.42004" lon="5.53604">
        <ele>1036</ele>
        <time>2018-05-17T08:24:49Z</time>
      </trkpt>
      <trkpt lat="44.41985" lon="5.53644">
        <ele>1026</ele>
        <time>2018-05-17T08:25:49Z</time>
      </trkpt>
      <trkpt lat="44.41942" lon="5.537">
        <ele>1005</ele>
        <time>2018-05-17T08:26:49Z</time>
      </trkpt>
      <trkpt lat="44.41865" lon="5.53938">
        <ele>973</ele>
        <time>2018-05-17T08:27:49Z</time>
      </trkpt>
      <trkpt lat="44.4185" lon="5.53964">
        <ele>970</ele>
        <time>2018-05-17T08:28:49Z</time>
      </trkpt>
      <trkpt lat="44.41822" lon="5.53973">
        <ele>964</ele>
        <time>2018-05-17T08:29:49Z</time>
      </trkpt>
      <trkpt lat="44.4179" lon="5.54011">
        <ele>960</ele>
        <time>2018-05-17T08:30:49Z</time>
      </trkpt>
      <trkpt lat="44.4171" lon="5.54132">
        <ele>953</ele>
        <time>2018-05-17T08:31:49Z</time>
      </trkpt>
      <trkpt lat="44.41706" lon="5.54168">
        <ele>955</ele>
        <time>2018-05-17T08:32:49Z</time>
      </trkpt>
      <trkpt lat="44.41751" lon="5.54271">
        <ele>961</ele>
        <time>2018-05-17T08:33:49Z</time>
      </trkpt>
      <trkpt lat="44.41779" lon="5.5432">
        <ele>964</ele>
        <time>2018-05-17T08:34:49Z</time>
      </trkpt>
      <trkpt lat="44.41778" lon="5.54341">
        <ele>962</ele>
        <time>2018-05-17T08:35:49Z</time>
      </trkpt>
      <trkpt lat="44.41755" lon="5.54377">
        <ele>956</ele>
        <time>2018-05-17T08:36:49Z</time>
      </trkpt>
      <trkpt lat="44.41837" lon="5.54495">
        <ele>960</ele>
        <time>2018-05-17T08:37:49Z</time>
      </trkpt>
      <trkpt lat="44.41744" lon="5.54753">
        <ele>931</ele>
        <time>2018-05-17T08:38:49Z</time>
      </trkpt>
      <trkpt lat="44.41769" lon="5.54974">
        <ele>920</ele>
        <time>2018-05-17T08:39:49Z</time>
      </trkpt>
      <trkpt lat="44.41824" lon="5.55091">
        <ele>921</ele>
        <time>2018-05-17T08:40:49Z</time>
      </trkpt>
      <trkpt lat="44.41667" lon="5.55232">
        <ele>891</ele>
        <time>2018-05-17T08:41:49Z</time>
      </trkpt>
      <trkpt lat="44.41435" lon="5.55294">
        <ele>868</ele>
        <time>2018-05-17T08:42:49Z</time>
      </trkpt>
      <trkpt lat="44.41381" lon="5.55442">
        <ele>858</ele>
        <time>2018-05-17T08:43:49Z</time>
      </trkpt>
      <trkpt lat="44.41488" lon="5.55492">
        <ele>854</ele>
        <time>2018-05-17T08:44:49Z</time>
      </trkpt>
      <trkpt lat="44.41584" lon="5.55579">
        <ele>852</ele>
        <time>2018-05-17T08:45:49Z</time>
      </trkpt>
      <trkpt lat="44.4155" lon="5.55678">
        <ele>848</ele>
        <time>2018-05-17T08:46:49Z</time>
      </trkpt>
      <trkpt lat="44.41586" lon="5.55692">
        <ele>854</ele>
        <time>2018-05-17T08:47:49Z</time>
      </trkpt>
      <trkpt lat="44.4184" lon="5.55908">
        <ele>902</ele>
        <time>2018-05-17T08:48:49Z</time>
      </trkpt>
      <trkpt lat="44.41928" lon="5.56145">
        <ele>920</ele>
        <time>2018-05-17T08:49:49Z</time>
      </trkpt>
      <trkpt lat="44.42189" lon="5.55821">
        <ele>957</ele>
        <time>2018-05-17T08:50:49Z</time>
      </trkpt>
      <trkpt lat="44.42202" lon="5.55834">
        <ele>959</ele>
        <time>2018-05-17T08:51:49Z</time>
      </trkpt>
      <trkpt lat="44.42418" lon="5.56004">
        <ele>964</ele>
        <time>2018-05-17T08:52:49Z</time>
      </trkpt>
      <trkpt lat="44.42422" lon="5.56324">
        <ele>962</ele>
        <time>2018-05-17T08:53:49Z</time>
      </trkpt>
      <trkpt lat="44.42465" lon="5.56408">
        <ele>972</ele>
        <time>2018-05-17T08:54:49Z</time>
      </trkpt>
      <trkpt lat="44.42456" lon="5.56558">
        <ele>980</ele>
        <time>2018-05-17T08:55:49Z</time>
      </trkpt>
      <trkpt lat="44.4257" lon="5.56508">
        <ele>1007</ele>
        <time>2018-05-17T08:56:49Z</time>
      </trkpt>
      <trkpt lat="44.42613" lon="5.56567">
        <ele>1024</ele>
        <time>2018-05-17T08:57:49Z</time>
      </trkpt>
      <trkpt lat="44.42749" lon="5.56833">
        <ele>1068</ele>
        <time>2018-05-17T08:58:49Z</time>
      </trkpt>
      <trkpt lat="44.42776" lon="5.56847">
        <ele>1073</ele>
        <time>2018-05-17T08:59:49Z</time>
      </trkpt>
      <trkpt lat="44.42992" lon="5.56972">
        <ele>1102</ele>
        <time>2018-05-17T09:00:49Z</time>
      </trkpt>
      <trkpt lat="44.43192" lon="5.57059">
        <ele>1126</ele>
        <time>2018-05-17T09:01:49Z</time>
      </trkpt>
      <trkpt lat="44.43245" lon="5.56968">
        <ele>1125</ele>
        <time>2018-05-17T09:02:49Z</time>
      </trkpt>
      <trkpt lat="44.43278" lon="5.57039">
        <ele>1112</ele>
        <time>2018-05-17T09:03:49Z</time>
      </trkpt>
      <trkpt lat="44.43285" lon="5.56977">
        <ele>1105</ele>
        <time>2018-05-17T09:04:49Z</time>
      </trkpt>
      <trkpt lat="44.4331" lon="5.57041">
        <ele>1097</ele>
        <time>2018-05-17T09:05:49Z</time>
      </trkpt>
      <trkpt lat="44.43393" lon="5.56669">
        <ele>1051</ele>
        <time>2018-05-17T09:06:49Z</time>
      </trkpt>
      <trkpt lat="44.43384" lon="5.56653">
        <ele>1054</ele>
        <time>2018-05-17T09:07:49Z</time>
      </trkpt>
      <trkpt lat="44.43299" lon="5.56343">
        <ele>1040</ele>
        <time>2018-05-17T09:08:49Z</time>
      </trkpt>
      <trkpt lat="44.43292" lon="5.56336">
        <ele>1041</ele>
        <time>2018-05-17T09:09:49Z</time>
      </trkpt>
      <trkpt lat="44.43329" lon="5.56257">
        <ele>1021</ele>
        <time>2018-05-17T09:10:49Z</time>
      </trkpt>
      <trkpt lat="44.43328" lon="5.55958">
        <ele>1008</ele>
        <time>2018-05-17T09:11:49Z</time>
      </trkpt>
      <trkpt lat="44.43366" lon="5.5581">
        <ele>999</ele>
        <time>2018-05-17T09:12:49Z</time>
      </trkpt>
      <trkpt lat="44.43371" lon="5.55955">
        <ele>992</ele>
        <time>2018-05-17T09:13:49Z</time>
      </trkpt>
      <trkpt lat="44.43455" lon="5.56094">
        <ele>977</ele>
        <time>2018-05-17T09:14:49Z</time>
      </trkpt>
      <trkpt lat="44.43515" lon="5.56107">
        <ele>962</ele>
        <time>2018-05-17T09:15:49Z</time>
      </trkpt>
      <trkpt lat="44.43525" lon="5.56164">
        <ele>964</ele>
        <time>2018-05-17T09:16:49Z</time>
      </trkpt>
      <trkpt lat="44.43539" lon="5.56297">
        <ele>969</ele>
        <time>2018-05-17T09:17:49Z</time>
      </trkpt>
      <trkpt lat="44.43601" lon="5.56392">
        <ele>968</ele>
        <time>2018-05-17T09:18:49Z</time>
      </trkpt>
      <trkpt lat="44.43602" lon="5.56291">
        <ele>962</ele>
        <time>2018-05-17T09:19:49Z</time>
      </trkpt>
      <trkpt lat="44.4367" lon="5.56188">
        <ele>961</ele>
        <time>2018-05-17T09:20:49Z</time>
      </trkpt>
      <trkpt lat="44.4366" lon="5.56075">
        <ele>942</ele>
        <time>2018-05-17T09:21:49Z</time>
      </trkpt>
      <trkpt lat="44.43788" lon="5.55931">
        <ele>914</ele>
        <time>2018-05-17T09:22:49Z</time>
      </trkpt>
      <trkpt lat="44.43795" lon="5.55922">
        <ele>908</ele>
        <time>2018-05-17T09:23:49Z</time>
      </trkpt>
      <trkpt lat="44.43817" lon="5.56008">
        <ele>931</ele>
        <time>2018-05-17T09:24:49Z</time>
      </trkpt>
      <trkpt lat="44.43916" lon="5.56105">
        <ele>928</ele>
        <time>2018-05-17T09:25:49Z</time>
      </trkpt>
      <trkpt lat="44.44051" lon="5.56157">
        <ele>920</ele>
        <time>2018-05-17T09:26:49Z</time>
      </trkpt>
      <trkpt lat="44.44084" lon="5.56134">
        <ele>914</ele>
        <time>2018-05-17T09:27:49Z</time>
      </trkpt>
      <trkpt lat="44.4409" lon="5.55917">
        <ele>894</ele>
        <time>2018-05-17T09:28:49Z</time>
      </trkpt>
      <trkpt lat="44.44172" lon="5.55891">
        <ele>898</ele>
        <time>2018-05-17T09:29:49Z</time>
      </trkpt>
      <trkpt lat="44.44283" lon="5.55787">
        <ele>861</ele>
        <time>2018-05-17T09:30:49Z</time>
      </trkpt>
      <trkpt lat="44.44041" lon="5.55839">
        <ele>873</ele>
        <time>2018-05-17T09:31:49Z</time>
      </trkpt>
      <trkpt lat="44.44226" lon="5.55718">
        <ele>853</ele>
        <time>2018-05-17T09:32:49Z</time>
      </trkpt>
      <trkpt lat="44.44332" lon="5.55714">
        <ele>844</ele>
        <time>2018-05-17T09:33:49Z</time>
      </trkpt>
      <trkpt lat="44.44334" lon="5.55872">
        <ele>850</ele>
        <time>2018-05-17T09:34:49Z</time>
      </trkpt>
      <trkpt lat="44.44357" lon="5.5587">
        <ele>849</ele>
        <time>2018-05-17T09:35:49Z</time>
      </trkpt>
      <trkpt lat="44.44367" lon="5.55865">
        <ele>848</ele>
        <time>2018-05-17T09:36:49Z</time>
      </trkpt>
      <trkpt lat="44.44369" lon="5.56009">
        <ele>854</ele>
        <time>2018-05-17T09:37:49Z</time>
      </trkpt>
      <trkpt lat="44.44397" lon="5.56127">
        <ele>856</ele>
        <time>2018-05-17T09:38:49Z</time>
      </trkpt>
      <trkpt lat="44.44418" lon="5.56331">
        <ele>857</ele>
        <time>2018-05-17T09:39:49Z</time>
      </trkpt>
      <trkpt lat="44.44433" lon="5.56385">
        <ele>860</ele>
        <time>2018-05-17T09:40:49Z</time>
      </trkpt>
      <trkpt lat="44.44435" lon="5.56468">
        <ele>860</ele>
        <time>2018-05-17T09:41:49Z</time>
      </trkpt>
      <trkpt lat="44.4445" lon="5.56503">
        <ele>861</ele>
        <time>2018-05-17T09:42:49Z</time>
      </trkpt>
      <trkpt lat="44.44487" lon="5.56531">
        <ele>862</ele>
        <time>2018-05-17T09:43:49Z</time>
      </trkpt>
      <trkpt lat="44.44493" lon="5.56548">
        <ele>861</ele>
        <time>2018-05-17T09:44:49Z</time>
      </trkpt>
      <trkpt lat="44.4453" lon="5.5679">
        <ele>870</ele>
        <time>2018-05-17T09:45:49Z</time>
      </trkpt>
      <trkpt lat="44.44599" lon="5.56876">
        <ele>875</ele>
        <time>2018-05-17T09:46:49Z</time>
      </trkpt>
      <trkpt lat="44.44599" lon="5.56958">
        <ele>880</ele>
        <time>2018-05-17T09:47:49Z</time>
      </trkpt>
      <trkpt lat="44.44667" lon="5.57183">
        <ele>892</ele>
        <time>2018-05-17T09:48:49Z</time>
      </trkpt>
      <trkpt lat="44.44729" lon="5.57245">
        <ele>891</ele>
        <time>2018-05-17T09:49:49Z</time>
      </trkpt>
      <trkpt lat="44.44815" lon="5.57297">
        <ele>894</ele>
        <time>2018-05-17T09:50:49Z</time>
      </trkpt>
      <trkpt lat="44.44835" lon="5.5737">
        <ele>890</ele>
        <time>2018-05-17T09:51:49Z</time>
      </trkpt>
      <trkpt lat="44.44978" lon="5.57509">
        <ele>904</ele>
        <time>2018-05-17T09:52:49Z</time>
      </trkpt>
      <trkpt lat="44.45068" lon="5.57651">
        <ele>909</ele>
        <time>2018-05-17T09:53:49Z</time>
      </trkpt>
      <trkpt lat="44.45156" lon="5.57719">
        <ele>915</ele>
        <time>2018-05-17T09:54:49Z</time>
      </trkpt>
      <trkpt lat="44.45184" lon="5.57728">
        <ele>917</ele>
        <time>2018-05-17T09:55:49Z</time>
      </trkpt>
      <trkpt lat="44.45212" lon="5.57726">
        <ele>918</ele>
        <time>2018-05-17T09:56:49Z</time>
      </trkpt>
      <trkpt lat="44.45242" lon="5.57739">
        <ele>919</ele>
        <time>2018-05-17T09:57:49Z</time>
      </trkpt>
      <trkpt lat="44.45274" lon="5.57831">
        <ele>934</ele>
        <time>2018-05-17T09:58:49Z</time>
      </trkpt>
      <trkpt lat="44.45296" lon="5.57865">
        <ele>939</ele>
        <time>2018-05-17T09:59:49Z</time>
      </trkpt>
      <trkpt lat="44.45341" lon="5.57882">
        <ele>931</ele>
        <time>2018-05-17T10:00:49Z</time>
      </trkpt>
      <trkpt lat="44.45427" lon="5.57942">
        <ele>935</ele>
        <time>2018-05-17T10:01:49Z</time>
      </trkpt>
      <trkpt lat="44.45472" lon="5.57957">
        <ele>936</ele>
        <time>2018-05-17T10:02:49Z</time>
      </trkpt>
      <trkpt lat="44.45515" lon="5.57951">
        <ele>934</ele>
        <time>2018-05-17T10:03:49Z</time>
      </trkpt>
      <trkpt lat="44.45543" lon="5.57957">
        <ele>935</ele>
        <time>2018-05-17T10:04:49Z</time>
      </trkpt>
      <trkpt lat="44.45644" lon="5.5805">
        <ele>946</ele>
        <time>2018-05-17T10:05:49Z</time>
      </trkpt>
      <trkpt lat="44.45684" lon="5.58069">
        <ele>953</ele>
        <time>2018-05-17T10:06:49Z</time>
      </trkpt>
      <trkpt lat="44.45712" lon="5.58133">
        <ele>970</ele>
        <time>2018-05-17T10:07:49Z</time>
      </trkpt>
      <trkpt lat="44.45712" lon="5.58151">
        <ele>973</ele>
        <time>2018-05-17T10:08:49Z</time>
      </trkpt>
      <trkpt lat="44.45701" lon="5.58155">
        <ele>973</ele>
        <time>2018-05-17T10:09:49Z</time>
      </trkpt>
      <trkpt lat="44.45648" lon="5.58095">
        <ele>953</ele>
        <time>2018-05-17T10:10:49Z</time>
      </trkpt>
      <trkpt lat="44.45622" lon="5.58099">
        <ele>953</ele>
        <time>2018-05-17T10:11:49Z</time>
      </trkpt>
      <trkpt lat="44.45523" lon="5.58232">
        <ele>974</ele>
        <time>2018-05-17T10:12:49Z</time>
      </trkpt>
      <trkpt lat="44.4551" lon="5.58305">
        <ele>987</ele>
        <time>2018-05-17T10:13:49Z</time>
      </trkpt>
      <trkpt lat="44.45476" lon="5.58369">
        <ele>1007</ele>
        <time>2018-05-17T10:14:49Z</time>
      </trkpt>
      <trkpt lat="44.45463" lon="5.58367">
        <ele>1008</ele>
        <time>2018-05-17T10:15:49Z</time>
      </trkpt>
      <trkpt lat="44.45465" lon="5.58378">
        <ele>1010</ele>
        <time>2018-05-17T10:16:49Z</time>
      </trkpt>
      <trkpt lat="44.45483" lon="5.58374">
        <ele>1008</ele>
        <time>2018-05-17T10:17:49Z</time>
      </trkpt>
      <trkpt lat="44.45474" lon="5.58378">
        <ele>1010</ele>
        <time>2018-05-17T10:18:49Z</time>
      </trkpt>
      <trkpt lat="44.45442" lon="5.58258">
        <ele>990</ele>
        <time>2018-05-17T10:19:49Z</time>
      </trkpt>
      <trkpt lat="44.45388" lon="5.58204">
        <ele>1003</ele>
        <time>2018-05-17T10:20:49Z</time>
      </trkpt>
      <trkpt lat="44.45362" lon="5.58121">
        <ele>999</ele>
        <time>2018-05-17T10:21:49Z</time>
      </trkpt>
      <trkpt lat="44.45367" lon="5.58215">
        <ele>1015</ele>
        <time>2018-05-17T10:22:49Z</time>
      </trkpt>
      <trkpt lat="44.45395" lon="5.58331">
        <ele>1019</ele>
        <time>2018-05-17T10:23:49Z</time>
      </trkpt>
      <trkpt lat="44.45386" lon="5.58387">
        <ele>1027</ele>
        <time>2018-05-17T10:24:49Z</time>
      </trkpt>
      <trkpt lat="44.45341" lon="5.58453">
        <ele>1049</ele>
        <time>2018-05-17T10:25:49Z</time>
      </trkpt>
      <trkpt lat="44.45341" lon="5.5847">
        <ele>1050</ele>
        <time>2018-05-17T10:26:49Z</time>
      </trkpt>
      <trkpt lat="44.45365" lon="5.58487">
        <ele>1045</ele>
        <time>2018-05-17T10:27:49Z</time>
      </trkpt>
      <trkpt lat="44.45358" lon="5.58505">
        <ele>1050</ele>
        <time>2018-05-17T10:28:49Z</time>
      </trkpt>
      <trkpt lat="44.45326" lon="5.58453">
        <ele>1054</ele>
        <time>2018-05-17T10:29:49Z</time>
      </trkpt>
      <trkpt lat="44.45339" lon="5.58357">
        <ele>1045</ele>
        <time>2018-05-17T10:30:49Z</time>
      </trkpt>
      <trkpt lat="44.4527" lon="5.58146">
        <ele>1050</ele>
        <time>2018-05-17T10:31:49Z</time>
      </trkpt>
      <trkpt lat="44.45255" lon="5.5814">
        <ele>1055</ele>
        <time>2018-05-17T10:32:49Z</time>
      </trkpt>
      <trkpt lat="44.45227" lon="5.58166">
        <ele>1069</ele>
        <time>2018-05-17T10:33:49Z</time>
      </trkpt>
      <trkpt lat="44.45212" lon="5.58166">
        <ele>1071</ele>
        <time>2018-05-17T10:34:49Z</time>
      </trkpt>
      <trkpt lat="44.45152" lon="5.58155">
        <ele>1079</ele>
        <time>2018-05-17T10:35:49Z</time>
      </trkpt>
      <trkpt lat="44.45116" lon="5.58116">
        <ele>1078</ele>
        <time>2018-05-17T10:36:49Z</time>
      </trkpt>
      <trkpt lat="44.45075" lon="5.5811">
        <ele>1084</ele>
        <time>2018-05-17T10:37:49Z</time>
      </trkpt>
      <trkpt lat="44.45049" lon="5.58093">
        <ele>1076</ele>
        <time>2018-05-17T10:38:49Z</time>
      </trkpt>
      <trkpt lat="44.44987" lon="5.58168">
        <ele>1090</ele>
        <time>2018-05-17T10:39:49Z</time>
      </trkpt>
      <trkpt lat="44.44998" lon="5.58219">
        <ele>1104</ele>
        <time>2018-05-17T10:40:49Z</time>
      </trkpt>
      <trkpt lat="44.44978" lon="5.58303">
        <ele>1105</ele>
        <time>2018-05-17T10:41:49Z</time>
      </trkpt>
      <trkpt lat="44.44983" lon="5.58363">
        <ele>1107</ele>
        <time>2018-05-17T10:42:49Z</time>
      </trkpt>
      <trkpt lat="44.44989" lon="5.58382">
        <ele>1108</ele>
        <time>2018-05-17T10:43:49Z</time>
      </trkpt>
      <trkpt lat="44.45036" lon="5.5843">
        <ele>1123</ele>
        <time>2018-05-17T10:44:49Z</time>
      </trkpt>
      <trkpt lat="44.45049" lon="5.58485">
        <ele>1121</ele>
        <time>2018-05-17T10:45:49Z</time>
      </trkpt>
      <trkpt lat="44.45071" lon="5.58533">
        <ele>1127</ele>
        <time>2018-05-17T10:46:49Z</time>
      </trkpt>
      <trkpt lat="44.45083" lon="5.5859">
        <ele>1129</ele>
        <time>2018-05-17T10:47:49Z</time>
      </trkpt>
      <trkpt lat="44.45079" lon="5.58687">
        <ele>1132</ele>
        <time>2018-05-17T10:48:49Z</time>
      </trkpt>
      <trkpt lat="44.4509" lon="5.58743">
        <ele>1133</ele>
        <time>2018-05-17T10:49:49Z</time>
      </trkpt>
      <trkpt lat="44.45152" lon="5.58863">
        <ele>1144</ele>
        <time>2018-05-17T10:50:49Z</time>
      </trkpt>
      <trkpt lat="44.45191" lon="5.58887">
        <ele>1150</ele>
        <time>2018-05-17T10:51:49Z</time>
      </trkpt>
      <trkpt lat="44.45253" lon="5.58964">
        <ele>1157</ele>
        <time>2018-05-17T10:52:49Z</time>
      </trkpt>
      <trkpt lat="44.45268" lon="5.5897">
        <ele>1158</ele>
        <time>2018-05-17T10:53:49Z</time>
      </trkpt>
      <trkpt lat="44.45277" lon="5.5902">
        <ele>1166</ele>
        <time>2018-05-17T10:54:49Z</time>
      </trkpt>
      <trkpt lat="44.45272" lon="5.59056">
        <ele>1172</ele>
        <time>2018-05-17T10:55:49Z</time>
      </trkpt>
      <trkpt lat="44.45244" lon="5.59108">
        <ele>1176</ele>
        <time>2018-05-17T10:56:49Z</time>
      </trkpt>
      <trkpt lat="44.45201" lon="5.59123">
        <ele>1171</ele>
        <time>2018-05-17T10:57:49Z</time>
      </trkpt>
      <trkpt lat="44.45191" lon="5.5914">
        <ele>1172</ele>
        <time>2018-05-17T10:58:49Z</time>
      </trkpt>
      <trkpt lat="44.45186" lon="5.59163">
        <ele>1175</ele>
        <time>2018-05-17T10:59:49Z</time>
      </trkpt>
      <trkpt lat="44.45197" lon="5.59178">
        <ele>1177</ele>
        <time>2018-05-17T11:00:49Z</time>
      </trkpt>
      <trkpt lat="44.45238" lon="5.59196">
        <ele>1184</ele>
        <time>2018-05-17T11:01:49Z</time>
      </trkpt>
      <trkpt lat="44.45266" lon="5.59219">
        <ele>1189</ele>
        <time>2018-05-17T11:02:49Z</time>
      </trkpt>
      <trkpt lat="44.45287" lon="5.5929">
        <ele>1194</ele>
        <time>2018-05-17T11:03:49Z</time>
      </trkpt>
      <trkpt lat="44.45302" lon="5.59294">
        <ele>1199</ele>
        <time>2018-05-17T11:04:49Z</time>
      </trkpt>
      <trkpt lat="44.45294" lon="5.59247">
        <ele>1196</ele>
        <time>2018-05-17T11:05:49Z</time>
      </trkpt>
      <trkpt lat="44.45347" lon="5.5914">
        <ele>1201</ele>
        <time>2018-05-17T11:06:49Z</time>
      </trkpt>
      <trkpt lat="44.4542" lon="5.59181">
        <ele>1218</ele>
        <time>2018-05-17T11:07:49Z</time>
      </trkpt>
      <trkpt lat="44.45455" lon="5.59185">
        <ele>1223</ele>
        <time>2018-05-17T11:08:49Z</time>
      </trkpt>
      <trkpt lat="44.45495" lon="5.59159">
        <ele>1224</ele>
        <time>2018-05-17T11:09:49Z</time>
      </trkpt>
      <trkpt lat="44.45538" lon="5.5911">
        <ele>1215</ele>
        <time>2018-05-17T11:10:49Z</time>
      </trkpt>
      <trkpt lat="44.45551" lon="5.5911">
        <ele>1215</ele>
        <time>2018-05-17T11:11:49Z</time>
      </trkpt>
      <trkpt lat="44.45474" lon="5.59245">
        <ele>1239</ele>
        <time>2018-05-17T11:12:49Z</time>
      </trkpt>
      <trkpt lat="44.4544" lon="5.59273">
        <ele>1238</ele>
        <time>2018-05-17T11:13:49Z</time>
      </trkpt>
      <trkpt lat="44.45395" lon="5.59434">
        <ele>1253</ele>
        <time>2018-05-17T11:14:49Z</time>
      </trkpt>
      <trkpt lat="44.4539" lon="5.59498">
        <ele>1261</ele>
        <time>2018-05-17T11:15:49Z</time>
      </trkpt>
      <trkpt lat="44.45401" lon="5.59539">
        <ele>1264</ele>
        <time>2018-05-17T11:16:49Z</time>
      </trkpt>
      <trkpt lat="44.45446" lon="5.5961">
        <ele>1285</ele>
        <time>2018-05-17T11:17:49Z</time>
      </trkpt>
      <trkpt lat="44.45399" lon="5.59676">
        <ele>1277</ele>
        <time>2018-05-17T11:18:49Z</time>
      </trkpt>
      <trkpt lat="44.45362" lon="5.5976">
        <ele>1277</ele>
        <time>2018-05-17T11:19:49Z</time>
      </trkpt>
      <trkpt lat="44.45371" lon="5.59912">
        <ele>1309</ele>
        <time>2018-05-17T11:20:49Z</time>
      </trkpt>
      <trkpt lat="44.45298" lon="5.5994">
        <ele>1290</ele>
        <time>2018-05-17T11:21:49Z</time>
      </trkpt>
      <trkpt lat="44.45296" lon="5.59962">
        <ele>1294</ele>
        <time>2018-05-17T11:22:49Z</time>
      </trkpt>
      <trkpt lat="44.45324" lon="5.59951">
        <ele>1303</ele>
        <time>2018-05-17T11:23:49Z</time>
      </trkpt>
      <trkpt lat="44.45399" lon="5.59953">
        <ele>1332</ele>
        <time>2018-05-17T11:24:49Z</time>
      </trkpt>
      <trkpt lat="44.45423" lon="5.59876">
        <ele>1324</ele>
        <time>2018-05-17T11:25:49Z</time>
      </trkpt>
      <trkpt lat="44.45427" lon="5.5982">
        <ele>1319</ele>
        <time>2018-05-17T11:26:49Z</time>
      </trkpt>
      <trkpt lat="44.45461" lon="5.59762">
        <ele>1324</ele>
        <time>2018-05-17T11:27:49Z</time>
      </trkpt>
      <trkpt lat="44.45495" lon="5.5973">
        <ele>1330</ele>
        <time>2018-05-17T11:28:49Z</time>
      </trkpt>
      <trkpt lat="44.45566" lon="5.59715">
        <ele>1339</ele>
        <time>2018-05-17T11:29:49Z</time>
      </trkpt>
      <trkpt lat="44.45618" lon="5.59689">
        <ele>1334</ele>
        <time>2018-05-17T11:30:49Z</time>
      </trkpt>
      <trkpt lat="44.45641" lon="5.59706">
        <ele>1336</ele>
        <time>2018-05-17T11:31:49Z</time>
      </trkpt>
      <trkpt lat="44.45674" lon="5.59775">
        <ele>1350</ele>
        <time>2018-05-17T11:32:49Z</time>
      </trkpt>
      <trkpt lat="44.45732" lon="5.59859">
        <ele>1355</ele>
        <time>2018-05-17T11:33:49Z</time>
      </trkpt>
      <trkpt lat="44.45732" lon="5.59878">
        <ele>1360</ele>
        <time>2018-05-17T11:34:49Z</time>
      </trkpt>
      <trkpt lat="44.45691" lon="5.59936">
        <ele>1382</ele>
        <time>2018-05-17T11:35:49Z</time>
      </trkpt>
      <trkpt lat="44.45693" lon="5.59955">
        <ele>1385</ele>
        <time>2018-05-17T11:36:49Z</time>
      </trkpt>
      <trkpt lat="44.45734" lon="5.59955">
        <ele>1378</ele>
        <time>2018-05-17T11:37:49Z</time>
      </trkpt>
      <trkpt lat="44.45744" lon="5.59944">
        <ele>1373</ele>
        <time>2018-05-17T11:38:49Z</time>
      </trkpt>
      <trkpt lat="44.45755" lon="5.59951">
        <ele>1374</ele>
        <time>2018-05-17T11:39:49Z</time>
      </trkpt>
      <trkpt lat="44.45749" lon="5.59964">
        <ele>1377</ele>
        <time>2018-05-17T11:40:49Z</time>
      </trkpt>
      <trkpt lat="44.45701" lon="5.59983">
        <ele>1389</ele>
        <time>2018-05-17T11:41:49Z</time>
      </trkpt>
      <trkpt lat="44.45674" lon="5.6002">
        <ele>1399</ele>
        <time>2018-05-17T11:42:49Z</time>
      </trkpt>
      <trkpt lat="44.45663" lon="5.60015">
        <ele>1399</ele>
        <time>2018-05-17T11:43:49Z</time>
      </trkpt>
      <trkpt lat="44.45648" lon="5.59923">
        <ele>1386</ele>
        <time>2018-05-17T11:44:49Z</time>
      </trkpt>
      <trkpt lat="44.45596" lon="5.59908">
        <ele>1385</ele>
        <time>2018-05-17T11:45:49Z</time>
      </trkpt>
      <trkpt lat="44.45566" lon="5.59992">
        <ele>1397</ele>
        <time>2018-05-17T11:46:49Z</time>
      </trkpt>
      <trkpt lat="44.45521" lon="5.60065">
        <ele>1400</ele>
        <time>2018-05-17T11:47:49Z</time>
      </trkpt>
      <trkpt lat="44.45502" lon="5.6012">
        <ele>1405</ele>
        <time>2018-05-17T11:48:49Z</time>
      </trkpt>
      <trkpt lat="44.45487" lon="5.60202">
        <ele>1407</ele>
        <time>2018-05-17T11:49:49Z</time>
      </trkpt>
      <trkpt lat="44.45508" lon="5.60281">
        <ele>1421</ele>
        <time>2018-05-17T11:50:49Z</time>
      </trkpt>
      <trkpt lat="44.45515" lon="5.60365">
        <ele>1434</ele>
        <time>2018-05-17T11:51:49Z</time>
      </trkpt>
      <trkpt lat="44.45468" lon="5.60438">
        <ele>1429</ele>
        <time>2018-05-17T11:52:49Z</time>
      </trkpt>
      <trkpt lat="44.45474" lon="5.60631">
        <ele>1450</ele>
        <time>2018-05-17T11:53:49Z</time>
      </trkpt>
      <trkpt lat="44.45493" lon="5.60663">
        <ele>1454</ele>
        <time>2018-05-17T11:54:49Z</time>
      </trkpt>
      <trkpt lat="44.45519" lon="5.60663">
        <ele>1454</ele>
        <time>2018-05-17T11:55:49Z</time>
      </trkpt>
      <trkpt lat="44.45513" lon="5.60659">
        <ele>1454</ele>
        <time>2018-05-17T11:56:49Z</time>
      </trkpt>
      <trkpt lat="44.45519" lon="5.60685">
        <ele>1455</ele>
        <time>2018-05-17T11:57:49Z</time>
      </trkpt>
      <trkpt lat="44.45526" lon="5.60674">
        <ele>1455</ele>
        <time>2018-05-17T11:58:49Z</time>
      </trkpt>
      <trkpt lat="44.45536" lon="5.60674">
        <ele>1455</ele>
        <time>2018-05-17T11:59:49Z</time>
      </trkpt>
      <trkpt lat="44.4556" lon="5.60693">
        <ele>1455</ele>
        <time>2018-05-17T12:00:49Z</time>
      </trkpt>
      <trkpt lat="44.45573" lon="5.60715">
        <ele>1455</ele>
        <time>2018-05-17T12:01:49Z</time>
      </trkpt>
      <trkpt lat="44.45568" lon="5.60747">
        <ele>1455</ele>
        <time>2018-05-17T12:02:49Z</time>
      </trkpt>
      <trkpt lat="44.45536" lon="5.60781">
        <ele>1456</ele>
        <time>2018-05-17T12:03:49Z</time>
      </trkpt>
      <trkpt lat="44.45601" lon="5.6076">
        <ele>1454</ele>
        <time>2018-05-17T12:04:49Z</time>
      </trkpt>
      <trkpt lat="44.45633" lon="5.60734">
        <ele>1454</ele>
        <time>2018-05-17T12:05:49Z</time>
      </trkpt>
      <trkpt lat="44.45665" lon="5.60728">
        <ele>1454</ele>
        <time>2018-05-17T12:06:49Z</time>
      </trkpt>
      <trkpt lat="44.45665" lon="5.60773">
        <ele>1452</ele>
        <time>2018-05-17T12:07:49Z</time>
      </trkpt>
      <trkpt lat="44.45665" lon="5.60768">
        <ele>1453</ele>
        <time>2018-05-17T12:08:49Z</time>
      </trkpt>
      <trkpt lat="44.45648" lon="5.60777">
        <ele>1453</ele>
        <time>2018-05-17T12:09:49Z</time>
      </trkpt>
      <trkpt lat="44.45665" lon="5.60779">
        <ele>1452</ele>
        <time>2018-05-17T12:10:49Z</time>
      </trkpt>
      <trkpt lat="44.45671" lon="5.60768">
        <ele>1453</ele>
        <time>2018-05-17T12:11:49Z</time>
      </trkpt>
      <trkpt lat="44.45671" lon="5.6079">
        <ele>1452</ele>
        <time>2018-05-17T12:12:49Z</time>
      </trkpt>
      <trkpt lat="44.4568" lon="5.60794">
        <ele>1452</ele>
        <time>2018-05-17T12:13:49Z</time>
      </trkpt>
      <trkpt lat="44.45689" lon="5.60756">
        <ele>1454</ele>
        <time>2018-05-17T12:14:49Z</time>
      </trkpt>
      <trkpt lat="44.4571" lon="5.60753">
        <ele>1455</ele>
        <time>2018-05-17T12:15:49Z</time>
      </trkpt>
      <trkpt lat="44.45822" lon="5.60964">
        <ele>1454</ele>
        <time>2018-05-17T12:16:49Z</time>
      </trkpt>
      <trkpt lat="44.45779" lon="5.61022">
        <ele>1448</ele>
        <time>2018-05-17T12:17:49Z</time>
      </trkpt>
      <trkpt lat="44.45742" lon="5.61034">
        <ele>1446</ele>
        <time>2018-05-17T12:18:49Z</time>
      </trkpt>
      <trkpt lat="44.45684" lon="5.61133">
        <ele>1447</ele>
        <time>2018-05-17T12:19:49Z</time>
      </trkpt>
      <trkpt lat="44.45613" lon="5.61178">
        <ele>1444</ele>
        <time>2018-05-17T12:20:49Z</time>
      </trkpt>
      <trkpt lat="44.45594" lon="5.61262">
        <ele>1440</ele>
        <time>2018-05-17T12:21:49Z</time>
      </trkpt>
      <trkpt lat="44.45598" lon="5.61382">
        <ele>1430</ele>
        <time>2018-05-17T12:22:49Z</time>
      </trkpt>
      <trkpt lat="44.45547" lon="5.61487">
        <ele>1413</ele>
        <time>2018-05-17T12:23:49Z</time>
      </trkpt>
      <trkpt lat="44.45513" lon="5.61513">
        <ele>1401</ele>
        <time>2018-05-17T12:24:49Z</time>
      </trkpt>
      <trkpt lat="44.45489" lon="5.61562">
        <ele>1393</ele>
        <time>2018-05-17T12:25:49Z</time>
      </trkpt>
      <trkpt lat="44.45403" lon="5.61605">
        <ele>1378</ele>
        <time>2018-05-17T12:26:49Z</time>
      </trkpt>
      <trkpt lat="44.45386" lon="5.61625">
        <ele>1374</ele>
        <time>2018-05-17T12:27:49Z</time>
      </trkpt>
      <trkpt lat="44.45369" lon="5.6162">
        <ele>1373</ele>
        <time>2018-05-17T12:28:49Z</time>
      </trkpt>
      <trkpt lat="44.45365" lon="5.61607">
        <ele>1375</ele>
        <time>2018-05-17T12:29:49Z</time>
      </trkpt>
      <trkpt lat="44.45354" lon="5.61616">
        <ele>1373</ele>
        <time>2018-05-17T12:30:49Z</time>
      </trkpt>
      <trkpt lat="44.45343" lon="5.61607">
        <ele>1374</ele>
        <time>2018-05-17T12:31:49Z</time>
      </trkpt>
      <trkpt lat="44.45335" lon="5.61629">
        <ele>1369</ele>
        <time>2018-05-17T12:32:49Z</time>
      </trkpt>
      <trkpt lat="44.45283" lon="5.61655">
        <ele>1374</ele>
        <time>2018-05-17T12:33:49Z</time>
      </trkpt>
      <trkpt lat="44.45262" lon="5.6168">
        <ele>1373</ele>
        <time>2018-05-17T12:34:49Z</time>
      </trkpt>
      <trkpt lat="44.45236" lon="5.6177">
        <ele>1365</ele>
        <time>2018-05-17T12:35:49Z</time>
      </trkpt>
      <trkpt lat="44.45201" lon="5.61848">
        <ele>1365</ele>
        <time>2018-05-17T12:36:49Z</time>
      </trkpt>
      <trkpt lat="44.45178" lon="5.61873">
        <ele>1368</ele>
        <time>2018-05-17T12:37:49Z</time>
      </trkpt>
      <trkpt lat="44.45167" lon="5.61931">
        <ele>1358</ele>
        <time>2018-05-17T12:38:49Z</time>
      </trkpt>
      <trkpt lat="44.45133" lon="5.61981">
        <ele>1357</ele>
        <time>2018-05-17T12:39:49Z</time>
      </trkpt>
      <trkpt lat="44.45111" lon="5.62112">
        <ele>1344</ele>
        <time>2018-05-17T12:40:49Z</time>
      </trkpt>
      <trkpt lat="44.45088" lon="5.62161">
        <ele>1345</ele>
        <time>2018-05-17T12:41:49Z</time>
      </trkpt>
      <trkpt lat="44.45056" lon="5.62296">
        <ele>1334</ele>
        <time>2018-05-17T12:42:49Z</time>
      </trkpt>
      <trkpt lat="44.45073" lon="5.62354">
        <ele>1324</ele>
        <time>2018-05-17T12:43:49Z</time>
      </trkpt>
      <trkpt lat="44.45101" lon="5.62386">
        <ele>1316</ele>
        <time>2018-05-17T12:44:49Z</time>
      </trkpt>
      <trkpt lat="44.45176" lon="5.62434">
        <ele>1298</ele>
        <time>2018-05-17T12:45:49Z</time>
      </trkpt>
      <trkpt lat="44.45221" lon="5.62446">
        <ele>1287</ele>
        <time>2018-05-17T12:46:49Z</time>
      </trkpt>
      <trkpt lat="44.45279" lon="5.62496">
        <ele>1276</ele>
        <time>2018-05-17T12:47:49Z</time>
      </trkpt>
      <trkpt lat="44.45259" lon="5.62515">
        <ele>1280</ele>
        <time>2018-05-17T12:48:49Z</time>
      </trkpt>
      <trkpt lat="44.45225" lon="5.62513">
        <ele>1288</ele>
        <time>2018-05-17T12:49:49Z</time>
      </trkpt>
      <trkpt lat="44.45229" lon="5.62522">
        <ele>1288</ele>
        <time>2018-05-17T12:50:49Z</time>
      </trkpt>
      <trkpt lat="44.45223" lon="5.62513">
        <ele>1288</ele>
        <time>2018-05-17T12:51:49Z</time>
      </trkpt>
      <trkpt lat="44.45259" lon="5.62522">
        <ele>1280</ele>
        <time>2018-05-17T12:52:49Z</time>
      </trkpt>
      <trkpt lat="44.45268" lon="5.62513">
        <ele>1278</ele>
        <time>2018-05-17T12:53:49Z</time>
      </trkpt>
      <trkpt lat="44.45253" lon="5.62476">
        <ele>1279</ele>
        <time>2018-05-17T12:54:49Z</time>
      </trkpt>
      <trkpt lat="44.45289" lon="5.62502">
        <ele>1275</ele>
        <time>2018-05-17T12:55:49Z</time>
      </trkpt>
      <trkpt lat="44.45315" lon="5.62481">
        <ele>1276</ele>
        <time>2018-05-17T12:56:49Z</time>
      </trkpt>
      <trkpt lat="44.45347" lon="5.62513">
        <ele>1276</ele>
        <time>2018-05-17T12:57:49Z</time>
      </trkpt>
      <trkpt lat="44.45369" lon="5.62723">
        <ele>1268</ele>
        <time>2018-05-17T12:58:49Z</time>
      </trkpt>
      <trkpt lat="44.4542" lon="5.62918">
        <ele>1239</ele>
        <time>2018-05-17T12:59:49Z</time>
      </trkpt>
      <trkpt lat="44.45429" lon="5.63011">
        <ele>1233</ele>
        <time>2018-05-17T13:00:49Z</time>
      </trkpt>
      <trkpt lat="44.45474" lon="5.6309">
        <ele>1232</ele>
        <time>2018-05-17T13:01:49Z</time>
      </trkpt>
      <trkpt lat="44.45465" lon="5.63155">
        <ele>1228</ele>
        <time>2018-05-17T13:02:49Z</time>
      </trkpt>
      <trkpt lat="44.4542" lon="5.63277">
        <ele>1215</ele>
        <time>2018-05-17T13:03:49Z</time>
      </trkpt>
      <trkpt lat="44.45414" lon="5.63373">
        <ele>1211</ele>
        <time>2018-05-17T13:04:49Z</time>
      </trkpt>
      <trkpt lat="44.4542" lon="5.6347">
        <ele>1204</ele>
        <time>2018-05-17T13:05:49Z</time>
      </trkpt>
      <trkpt lat="44.4544" lon="5.63519">
        <ele>1204</ele>
        <time>2018-05-17T13:06:49Z</time>
      </trkpt>
      <trkpt lat="44.4544" lon="5.63554">
        <ele>1198</ele>
        <time>2018-05-17T13:07:49Z</time>
      </trkpt>
      <trkpt lat="44.45523" lon="5.63721">
        <ele>1192</ele>
        <time>2018-05-17T13:08:49Z</time>
      </trkpt>
      <trkpt lat="44.45543" lon="5.63777">
        <ele>1196</ele>
        <time>2018-05-17T13:09:49Z</time>
      </trkpt>
      <trkpt lat="44.4551" lon="5.63867">
        <ele>1176</ele>
        <time>2018-05-17T13:10:49Z</time>
      </trkpt>
      <trkpt lat="44.4548" lon="5.64144">
        <ele>1154</ele>
        <time>2018-05-17T13:11:49Z</time>
      </trkpt>
      <trkpt lat="44.45399" lon="5.6429">
        <ele>1128</ele>
        <time>2018-05-17T13:12:49Z</time>
      </trkpt>
      <trkpt lat="44.4539" lon="5.64519">
        <ele>1107</ele>
        <time>2018-05-17T13:13:49Z</time>
      </trkpt>
      <trkpt lat="44.45354" lon="5.64575">
        <ele>1096</ele>
        <time>2018-05-17T13:14:49Z</time>
      </trkpt>
      <trkpt lat="44.45356" lon="5.64596">
        <ele>1096</ele>
        <time>2018-05-17T13:15:49Z</time>
      </trkpt>
      <trkpt lat="44.45324" lon="5.64727">
        <ele>1086</ele>
        <time>2018-05-17T13:16:49Z</time>
      </trkpt>
      <trkpt lat="44.45324" lon="5.64811">
        <ele>1079</ele>
        <time>2018-05-17T13:17:49Z</time>
      </trkpt>
      <trkpt lat="44.45345" lon="5.6482">
        <ele>1079</ele>
        <time>2018-05-17T13:18:49Z</time>
      </trkpt>
      <trkpt lat="44.45356" lon="5.64835">
        <ele>1080</ele>
        <time>2018-05-17T13:19:49Z</time>
      </trkpt>
      <trkpt lat="44.45345" lon="5.64863">
        <ele>1074</ele>
        <time>2018-05-17T13:20:49Z</time>
      </trkpt>
      <trkpt lat="44.45324" lon="5.6488">
        <ele>1070</ele>
        <time>2018-05-17T13:21:49Z</time>
      </trkpt>
      <trkpt lat="44.453" lon="5.64959">
        <ele>1062</ele>
        <time>2018-05-17T13:22:49Z</time>
      </trkpt>
      <trkpt lat="44.45324" lon="5.65262">
        <ele>1034</ele>
        <time>2018-05-17T13:23:49Z</time>
      </trkpt>
      <trkpt lat="44.45302" lon="5.6535">
        <ele>1032</ele>
        <time>2018-05-17T13:24:49Z</time>
      </trkpt>
      <trkpt lat="44.45272" lon="5.65412">
        <ele>1032</ele>
        <time>2018-05-17T13:25:49Z</time>
      </trkpt>
      <trkpt lat="44.45311" lon="5.65541">
        <ele>1019</ele>
        <time>2018-05-17T13:26:49Z</time>
      </trkpt>
      <trkpt lat="44.45287" lon="5.65626">
        <ele>1015</ele>
        <time>2018-05-17T13:27:49Z</time>
      </trkpt>
      <trkpt lat="44.45289" lon="5.65661">
        <ele>1012</ele>
        <time>2018-05-17T13:28:49Z</time>
      </trkpt>
      <trkpt lat="44.45373" lon="5.65817">
        <ele>995</ele>
        <time>2018-05-17T13:29:49Z</time>
      </trkpt>
      <trkpt lat="44.45395" lon="5.65938">
        <ele>985</ele>
        <time>2018-05-17T13:30:49Z</time>
      </trkpt>
      <trkpt lat="44.45442" lon="5.66038">
        <ele>971</ele>
        <time>2018-05-17T13:31:49Z</time>
      </trkpt>
      <trkpt lat="44.45453" lon="5.66107">
        <ele>966</ele>
        <time>2018-05-17T13:32:49Z</time>
      </trkpt>
      <trkpt lat="44.45448" lon="5.66117">
        <ele>967</ele>
        <time>2018-05-17T13:33:49Z</time>
      </trkpt>
      <trkpt lat="44.45471" lon="5.66188">
        <ele>958</ele>
        <time>2018-05-17T13:34:49Z</time>
      </trkpt>
      <trkpt lat="44.45495" lon="5.66205">
        <ele>952</ele>
        <time>2018-05-17T13:35:49Z</time>
      </trkpt>
      <trkpt lat="44.45536" lon="5.66125">
        <ele>943</ele>
        <time>2018-05-17T13:36:49Z</time>
      </trkpt>
      <trkpt lat="44.45544" lon="5.66311">
        <ele>925</ele>
        <time>2018-05-17T13:37:49Z</time>
      </trkpt>
      <trkpt lat="44.45546" lon="5.66321">
        <ele>923</ele>
        <time>2018-05-17T13:38:49Z</time>
      </trkpt>
      <trkpt lat="44.45568" lon="5.66416">
        <ele>909</ele>
        <time>2018-05-17T13:39:49Z</time>
      </trkpt>
      <trkpt lat="44.4558" lon="5.6654">
        <ele>894</ele>
        <time>2018-05-17T13:40:49Z</time>
      </trkpt>
      <trkpt lat="44.45614" lon="5.66592">
        <ele>884</ele>
        <time>2018-05-17T13:41:49Z</time>
      </trkpt>
      <trkpt lat="44.45625" lon="5.66671">
        <ele>873</ele>
        <time>2018-05-17T13:42:49Z</time>
      </trkpt>
      <trkpt lat="44.45707" lon="5.66808">
        <ele>865</ele>
        <time>2018-05-17T13:43:49Z</time>
      </trkpt>
      <trkpt lat="44.45693" lon="5.66942">
        <ele>857</ele>
        <time>2018-05-17T13:44:49Z</time>
      </trkpt>
      <trkpt lat="44.45695" lon="5.66952">
        <ele>857</ele>
        <time>2018-05-17T13:45:49Z</time>
      </trkpt>
      <trkpt lat="44.4575" lon="5.67087">
        <ele>842</ele>
        <time>2018-05-17T13:46:49Z</time>
      </trkpt>
      <trkpt lat="44.45737" lon="5.67133">
        <ele>843</ele>
        <time>2018-05-17T13:47:49Z</time>
      </trkpt>
      <trkpt lat="44.45757" lon="5.67222">
        <ele>836</ele>
        <time>2018-05-17T13:48:49Z</time>
      </trkpt>
      <trkpt lat="44.45737" lon="5.67293">
        <ele>833</ele>
        <time>2018-05-17T13:49:49Z</time>
      </trkpt>
      <trkpt lat="44.45787" lon="5.67416">
        <ele>833</ele>
        <time>2018-05-17T13:50:49Z</time>
      </trkpt>
      <trkpt lat="44.45768" lon="5.67462">
        <ele>822</ele>
        <time>2018-05-17T13:51:49Z</time>
      </trkpt>
      <trkpt lat="44.4578" lon="5.67497">
        <ele>824</ele>
        <time>2018-05-17T13:52:49Z</time>
      </trkpt>
      <trkpt lat="44.45726" lon="5.6772">
        <ele>814</ele>
        <time>2018-05-17T13:53:49Z</time>
      </trkpt>
      <trkpt lat="44.45656" lon="5.67876">
        <ele>796</ele>
        <time>2018-05-17T13:54:49Z</time>
      </trkpt>
      <trkpt lat="44.4571" lon="5.68087">
        <ele>794</ele>
        <time>2018-05-17T13:55:49Z</time>
      </trkpt>
      <trkpt lat="44.45649" lon="5.68319">
        <ele>782</ele>
        <time>2018-05-17T13:56:49Z</time>
      </trkpt>
      <trkpt lat="44.45542" lon="5.68517">
        <ele>774</ele>
        <time>2018-05-17T13:57:49Z</time>
      </trkpt>
      <trkpt lat="44.45574" lon="5.68641">
        <ele>765</ele>
        <time>2018-05-17T13:58:49Z</time>
      </trkpt>
      <trkpt lat="44.4555" lon="5.68712">
        <ele>763</ele>
        <time>2018-05-17T13:59:49Z</time>
      </trkpt>
      <trkpt lat="44.45554" lon="5.68725">
        <ele>762</ele>
        <time>2018-05-17T14:00:49Z</time>
      </trkpt>
      <trkpt lat="44.45564" lon="5.68832">
        <ele>751</ele>
        <time>2018-05-17T14:01:49Z</time>
      </trkpt>
      <trkpt lat="44.45559" lon="5.68932">
        <ele>747</ele>
        <time>2018-05-17T14:02:49Z</time>
      </trkpt>
      <trkpt lat="44.45503" lon="5.69118">
        <ele>738</ele>
        <time>2018-05-17T14:03:49Z</time>
      </trkpt>
      <trkpt lat="44.4548" lon="5.69232">
        <ele>737</ele>
        <time>2018-05-17T14:04:49Z</time>
      </trkpt>
      <trkpt lat="44.45457" lon="5.693">
        <ele>734</ele>
        <time>2018-05-17T14:05:49Z</time>
      </trkpt>
      <trkpt lat="44.45483" lon="5.6933">
        <ele>741</ele>
        <time>2018-05-17T14:06:49Z</time>
      </trkpt>
      <trkpt lat="44.45409" lon="5.69326">
        <ele>725</ele>
        <time>2018-05-17T14:07:49Z</time>
      </trkpt>
      <trkpt lat="44.4532" lon="5.69305">
        <ele>736</ele>
        <time>2018-05-17T14:08:49Z</time>
      </trkpt>
      <trkpt lat="44.45322" lon="5.69295">
        <ele>739</ele>
        <time>2018-05-17T14:09:49Z</time>
      </trkpt>
      <trkpt lat="44.45421" lon="5.69163">
        <ele>745</ele>
        <time>2018-05-17T14:10:49Z</time>
      </trkpt>
      <trkpt lat="44.45387" lon="5.69173">
        <ele>756</ele>
        <time>2018-05-17T14:11:49Z</time>
      </trkpt>
      <trkpt lat="44.45322" lon="5.69251">
        <ele>753</ele>
        <time>2018-05-17T14:12:49Z</time>
      </trkpt>
      <trkpt lat="44.45176" lon="5.69305">
        <ele>774</ele>
        <time>2018-05-17T14:13:49Z</time>
      </trkpt>
      <trkpt lat="44.4496" lon="5.69434">
        <ele>792</ele>
        <time>2018-05-17T14:14:49Z</time>
      </trkpt>
      <trkpt lat="44.4482" lon="5.69539">
        <ele>793</ele>
        <time>2018-05-17T14:15:49Z</time>
      </trkpt>
      <trkpt lat="44.44794" lon="5.69502">
        <ele>794</ele>
        <time>2018-05-17T14:16:49Z</time>
      </trkpt>
      <trkpt lat="44.44859" lon="5.69378">
        <ele>812</ele>
        <time>2018-05-17T14:17:49Z</time>
      </trkpt>
      <trkpt lat="44.44932" lon="5.69178">
        <ele>848</ele>
        <time>2018-05-17T14:18:49Z</time>
      </trkpt>
      <trkpt lat="44.44978" lon="5.69011">
        <ele>872</ele>
        <time>2018-05-17T14:19:49Z</time>
      </trkpt>
      <trkpt lat="44.44923" lon="5.68957">
        <ele>858</ele>
        <time>2018-05-17T14:20:49Z</time>
      </trkpt>
      <trkpt lat="44.4497" lon="5.68819">
        <ele>884</ele>
        <time>2018-05-17T14:21:49Z</time>
      </trkpt>
      <trkpt lat="44.44985" lon="5.68703">
        <ele>888</ele>
        <time>2018-05-17T14:22:49Z</time>
      </trkpt>
      <trkpt lat="44.45003" lon="5.68635">
        <ele>895</ele>
        <time>2018-05-17T14:23:49Z</time>
      </trkpt>
      <trkpt lat="44.45011" lon="5.68576">
        <ele>901</ele>
        <time>2018-05-17T14:24:49Z</time>
      </trkpt>
      <trkpt lat="44.44987" lon="5.68493">
        <ele>900</ele>
        <time>2018-05-17T14:25:49Z</time>
      </trkpt>
      <trkpt lat="44.44959" lon="5.68438">
        <ele>903</ele>
        <time>2018-05-17T14:26:49Z</time>
      </trkpt>
      <trkpt lat="44.44898" lon="5.68372">
        <ele>913</ele>
        <time>2018-05-17T14:27:49Z</time>
      </trkpt>
      <trkpt lat="44.44851" lon="5.68359">
        <ele>924</ele>
        <time>2018-05-17T14:28:49Z</time>
      </trkpt>
      <trkpt lat="44.44823" lon="5.68402">
        <ele>924</ele>
        <time>2018-05-17T14:29:49Z</time>
      </trkpt>
      <trkpt lat="44.44805" lon="5.68414">
        <ele>928</ele>
        <time>2018-05-17T14:30:49Z</time>
      </trkpt>
      <trkpt lat="44.44791" lon="5.68411">
        <ele>932</ele>
        <time>2018-05-17T14:31:49Z</time>
      </trkpt>
      <trkpt lat="44.44776" lon="5.68416">
        <ele>936</ele>
        <time>2018-05-17T14:32:49Z</time>
      </trkpt>
      <trkpt lat="44.44765" lon="5.68433">
        <ele>937</ele>
        <time>2018-05-17T14:33:49Z</time>
      </trkpt>
      <trkpt lat="44.44758" lon="5.68454">
        <ele>936</ele>
        <time>2018-05-17T14:34:49Z</time>
      </trkpt>
      <trkpt lat="44.44747" lon="5.6847">
        <ele>937</ele>
        <time>2018-05-17T14:35:49Z</time>
      </trkpt>
      <trkpt lat="44.44735" lon="5.68486">
        <ele>938</ele>
        <time>2018-05-17T14:36:49Z</time>
      </trkpt>
      <trkpt lat="44.44721" lon="5.68501">
        <ele>940</ele>
        <time>2018-05-17T14:37:49Z</time>
      </trkpt>
      <trkpt lat="44.44706" lon="5.68511">
        <ele>943</ele>
        <time>2018-05-17T14:38:49Z</time>
      </trkpt>
      <trkpt lat="44.44691" lon="5.68517">
        <ele>946</ele>
        <time>2018-05-17T14:39:49Z</time>
      </trkpt>
      <trkpt lat="44.44674" lon="5.68526">
        <ele>950</ele>
        <time>2018-05-17T14:40:49Z</time>
      </trkpt>
      <trkpt lat="44.44661" lon="5.68539">
        <ele>951</ele>
        <time>2018-05-17T14:41:49Z</time>
      </trkpt>
      <trkpt lat="44.44644" lon="5.68549">
        <ele>952</ele>
        <time>2018-05-17T14:42:49Z</time>
      </trkpt>
      <trkpt lat="44.44626" lon="5.68556">
        <ele>953</ele>
        <time>2018-05-17T14:43:49Z</time>
      </trkpt>
      <trkpt lat="44.44606" lon="5.68558">
        <ele>957</ele>
        <time>2018-05-17T14:44:49Z</time>
      </trkpt>
      <trkpt lat="44.44575" lon="5.68557">
        <ele>964</ele>
        <time>2018-05-17T14:45:49Z</time>
      </trkpt>
      <trkpt lat="44.44543" lon="5.68573">
        <ele>974</ele>
        <time>2018-05-17T14:46:49Z</time>
      </trkpt>
      <trkpt lat="44.44532" lon="5.68615">
        <ele>977</ele>
        <time>2018-05-17T14:47:49Z</time>
      </trkpt>
      <trkpt lat="44.44536" lon="5.68631">
        <ele>974</ele>
        <time>2018-05-17T14:48:49Z</time>
      </trkpt>
      <trkpt lat="44.44534" lon="5.68655">
        <ele>975</ele>
        <time>2018-05-17T14:49:49Z</time>
      </trkpt>
      <trkpt lat="44.44531" lon="5.68675">
        <ele>976</ele>
        <time>2018-05-17T14:50:49Z</time>
      </trkpt>
      <trkpt lat="44.44528" lon="5.68698">
        <ele>977</ele>
        <time>2018-05-17T14:51:49Z</time>
      </trkpt>
      <trkpt lat="44.44527" lon="5.68722">
        <ele>977</ele>
        <time>2018-05-17T14:52:49Z</time>
      </trkpt>
      <trkpt lat="44.44525" lon="5.68745">
        <ele>977</ele>
        <time>2018-05-17T14:53:49Z</time>
      </trkpt>
      <trkpt lat="44.44518" lon="5.68765">
        <ele>978</ele>
        <time>2018-05-17T14:54:49Z</time>
      </trkpt>
      <trkpt lat="44.44496" lon="5.68803">
        <ele>983</ele>
        <time>2018-05-17T14:55:49Z</time>
      </trkpt>
      <trkpt lat="44.44486" lon="5.68826">
        <ele>983</ele>
        <time>2018-05-17T14:56:49Z</time>
      </trkpt>
      <trkpt lat="44.44474" lon="5.68848">
        <ele>983</ele>
        <time>2018-05-17T14:57:49Z</time>
      </trkpt>
      <trkpt lat="44.4446" lon="5.68869">
        <ele>984</ele>
        <time>2018-05-17T14:58:49Z</time>
      </trkpt>
      <trkpt lat="44.44444" lon="5.68888">
        <ele>986</ele>
        <time>2018-05-17T14:59:49Z</time>
      </trkpt>
      <trkpt lat="44.4443" lon="5.68911">
        <ele>986</ele>
        <time>2018-05-17T15:00:49Z</time>
      </trkpt>
      <trkpt lat="44.44418" lon="5.68932">
        <ele>986</ele>
        <time>2018-05-17T15:01:49Z</time>
      </trkpt>
      <trkpt lat="44.44405" lon="5.68951">
        <ele>986</ele>
        <time>2018-05-17T15:02:49Z</time>
      </trkpt>
      <trkpt lat="44.44385" lon="5.68977">
        <ele>986</ele>
        <time>2018-05-17T15:03:49Z</time>
      </trkpt>
      <trkpt lat="44.44356" lon="5.69001">
        <ele>991</ele>
        <time>2018-05-17T15:04:49Z</time>
      </trkpt>
      <trkpt lat="44.44328" lon="5.69019">
        <ele>997</ele>
        <time>2018-05-17T15:05:49Z</time>
      </trkpt>
      <trkpt lat="44.44305" lon="5.69038">
        <ele>1001</ele>
        <time>2018-05-17T15:06:49Z</time>
      </trkpt>
      <trkpt lat="44.44295" lon="5.69068">
        <ele>999</ele>
        <time>2018-05-17T15:07:49Z</time>
      </trkpt>
      <trkpt lat="44.44295" lon="5.69071">
        <ele>999</ele>
        <time>2018-05-17T15:08:49Z</time>
      </trkpt>
      <trkpt lat="44.44298" lon="5.69072">
        <ele>998</ele>
        <time>2018-05-17T15:09:49Z</time>
      </trkpt>
      <trkpt lat="44.44293" lon="5.69077">
        <ele>999</ele>
        <time>2018-05-17T15:10:49Z</time>
      </trkpt>
      <trkpt lat="44.4428" lon="5.69087">
        <ele>1001</ele>
        <time>2018-05-17T15:11:49Z</time>
      </trkpt>
      <trkpt lat="44.44268" lon="5.69102">
        <ele>1003</ele>
        <time>2018-05-17T15:12:49Z</time>
      </trkpt>
      <trkpt lat="44.4426" lon="5.69124">
        <ele>1003</ele>
        <time>2018-05-17T15:13:49Z</time>
      </trkpt>
      <trkpt lat="44.44251" lon="5.6914">
        <ele>1003</ele>
        <time>2018-05-17T15:14:49Z</time>
      </trkpt>
      <trkpt lat="44.44237" lon="5.69157">
        <ele>1004</ele>
        <time>2018-05-17T15:15:49Z</time>
      </trkpt>
      <trkpt lat="44.44225" lon="5.69168">
        <ele>1005</ele>
        <time>2018-05-17T15:16:49Z</time>
      </trkpt>
      <trkpt lat="44.44214" lon="5.69178">
        <ele>1007</ele>
        <time>2018-05-17T15:17:49Z</time>
      </trkpt>
      <trkpt lat="44.44199" lon="5.69195">
        <ele>1008</ele>
        <time>2018-05-17T15:18:49Z</time>
      </trkpt>
      <trkpt lat="44.44191" lon="5.69207">
        <ele>1008</ele>
        <time>2018-05-17T15:19:49Z</time>
      </trkpt>
      <trkpt lat="44.44177" lon="5.69217">
        <ele>1010</ele>
        <time>2018-05-17T15:20:49Z</time>
      </trkpt>
      <trkpt lat="44.4416" lon="5.6922">
        <ele>1013</ele>
        <time>2018-05-17T15:21:49Z</time>
      </trkpt>
      <trkpt lat="44.44146" lon="5.69219">
        <ele>1015</ele>
        <time>2018-05-17T15:22:49Z</time>
      </trkpt>
      <trkpt lat="44.44138" lon="5.69237">
        <ele>1014</ele>
        <time>2018-05-17T15:23:49Z</time>
      </trkpt>
      <trkpt lat="44.44125" lon="5.69251">
        <ele>1014</ele>
        <time>2018-05-17T15:24:49Z</time>
      </trkpt>
      <trkpt lat="44.4411" lon="5.69263">
        <ele>1015</ele>
        <time>2018-05-17T15:25:49Z</time>
      </trkpt>
      <trkpt lat="44.44095" lon="5.69275">
        <ele>1016</ele>
        <time>2018-05-17T15:26:49Z</time>
      </trkpt>
      <trkpt lat="44.44079" lon="5.69288">
        <ele>1017</ele>
        <time>2018-05-17T15:27:49Z</time>
      </trkpt>
      <trkpt lat="44.4406" lon="5.69294">
        <ele>1018</ele>
        <time>2018-05-17T15:28:49Z</time>
      </trkpt>
      <trkpt lat="44.44043" lon="5.69299">
        <ele>1020</ele>
        <time>2018-05-17T15:29:49Z</time>
      </trkpt>
      <trkpt lat="44.44025" lon="5.69305">
        <ele>1021</ele>
        <time>2018-05-17T15:30:49Z</time>
      </trkpt>
      <trkpt lat="44.44008" lon="5.69313">
        <ele>1022</ele>
        <time>2018-05-17T15:31:49Z</time>
      </trkpt>
      <trkpt lat="44.43977" lon="5.69326">
        <ele>1024</ele>
        <time>2018-05-17T15:32:49Z</time>
      </trkpt>
      <trkpt lat="44.43961" lon="5.69335">
        <ele>1025</ele>
        <time>2018-05-17T15:33:49Z</time>
      </trkpt>
      <trkpt lat="44.43927" lon="5.69345">
        <ele>1028</ele>
        <time>2018-05-17T15:34:49Z</time>
      </trkpt>
      <trkpt lat="44.4391" lon="5.69352">
        <ele>1028</ele>
        <time>2018-05-17T15:35:49Z</time>
      </trkpt>
      <trkpt lat="44.43897" lon="5.69363">
        <ele>1027</ele>
        <time>2018-05-17T15:36:49Z</time>
      </trkpt>
      <trkpt lat="44.4388" lon="5.69368">
        <ele>1027</ele>
        <time>2018-05-17T15:37:49Z</time>
      </trkpt>
      <trkpt lat="44.43862" lon="5.69362">
        <ele>1028</ele>
        <time>2018-05-17T15:38:49Z</time>
      </trkpt>
      <trkpt lat="44.43844" lon="5.69363">
        <ele>1029</ele>
        <time>2018-05-17T15:39:49Z</time>
      </trkpt>
      <trkpt lat="44.43826" lon="5.69371">
        <ele>1028</ele>
        <time>2018-05-17T15:40:49Z</time>
      </trkpt>
      <trkpt lat="44.43825" lon="5.69375">
        <ele>1027</ele>
        <time>2018-05-17T15:41:49Z</time>
      </trkpt>
      <trkpt lat="44.43825" lon="5.69375">
        <ele>1027</ele>
        <time>2018-05-17T15:42:49Z</time>
      </trkpt>
      <trkpt lat="44.43823" lon="5.69377">
        <ele>1027</ele>
        <time>2018-05-17T15:43:49Z</time>
      </trkpt>
      <trkpt lat="44.43823" lon="5.69377">
        <ele>1027</ele>
        <time>2018-05-17T15:44:49Z</time>
      </trkpt>
      <trkpt lat="44.43824" lon="5.69377">
        <ele>1027</ele>
        <time>2018-05-17T15:45:49Z</time>
      </trkpt>
      <trkpt lat="44.43825" lon="5.69378">
        <ele>1027</ele>
        <time>2018-05-17T15:46:49Z</time>
      </trkpt>
      <trkpt lat="44.43822" lon="5.69372">
        <ele>1027</ele>
        <time>2018-05-17T15:47:49Z</time>
      </trkpt>
      <trkpt lat="44.43821" lon="5.69373">
        <ele>1027</ele>
        <time>2018-05-17T15:48:49Z</time>
      </trkpt>
      <trkpt lat="44.43816" lon="5.69376">
        <ele>1026</ele>
        <time>2018-05-17T15:49:49Z</time>
      </trkpt>
      <trkpt lat="44.43817" lon="5.69376">
        <ele>1026</ele>
        <time>2018-05-17T15:50:49Z</time>
      </trkpt>
      <trkpt lat="44.43817" lon="5.69376">
        <ele>1026</ele>
        <time>2018-05-17T15:51:49Z</time>
      </trkpt>
      <trkpt lat="44.43812" lon="5.69384">
        <ele>1025</ele>
        <time>2018-05-17T15:52:49Z</time>
      </trkpt>
      <trkpt lat="44.43783" lon="5.6937">
        <ele>1020</ele>
        <time>2018-05-17T15:53:49Z</time>
      </trkpt>
      <trkpt lat="44.4379" lon="5.69295">
        <ele>1016</ele>
        <time>2018-05-17T15:54:49Z</time>
      </trkpt>
      <trkpt lat="44.43838" lon="5.69119">
        <ele>1018</ele>
        <time>2018-05-17T15:55:49Z</time>
      </trkpt>
      <trkpt lat="44.43828" lon="5.69121">
        <ele>1015</ele>
        <time>2018-05-17T15:56:49Z</time>
      </trkpt>
      <trkpt lat="44.43842" lon="5.69116">
        <ele>1020</ele>
        <time>2018-05-17T15:57:49Z</time>
      </trkpt>
      <trkpt lat="44.43843" lon="5.6909">
        <ele>1018</ele>
        <time>2018-05-17T15:58:49Z</time>
      </trkpt>
      <trkpt lat="44.43841" lon="5.69066">
        <ele>1018</ele>
        <time>2018-05-17T15:59:49Z</time>
      </trkpt>
      <trkpt lat="44.43845" lon="5.69042">
        <ele>1020</ele>
        <time>2018-05-17T16:00:49Z</time>
      </trkpt>
      <trkpt lat="44.43832" lon="5.69025">
        <ele>1016</ele>
        <time>2018-05-17T16:01:49Z</time>
      </trkpt>
      <trkpt lat="44.43821" lon="5.69045">
        <ele>1012</ele>
        <time>2018-05-17T16:02:49Z</time>
      </trkpt>
      <trkpt lat="44.43819" lon="5.69071">
        <ele>1010</ele>
        <time>2018-05-17T16:03:49Z</time>
      </trkpt>
      <trkpt lat="44.43807" lon="5.69093">
        <ele>1006</ele>
        <time>2018-05-17T16:04:49Z</time>
      </trkpt>
      <trkpt lat="44.43793" lon="5.69115">
        <ele>1003</ele>
        <time>2018-05-17T16:05:49Z</time>
      </trkpt>
      <trkpt lat="44.4378" lon="5.69138">
        <ele>999</ele>
        <time>2018-05-17T16:06:49Z</time>
      </trkpt>
      <trkpt lat="44.4377" lon="5.69162">
        <ele>997</ele>
        <time>2018-05-17T16:07:49Z</time>
      </trkpt>
      <trkpt lat="44.43758" lon="5.69185">
        <ele>994</ele>
        <time>2018-05-17T16:08:49Z</time>
      </trkpt>
      <trkpt lat="44.43742" lon="5.69191">
        <ele>989</ele>
        <time>2018-05-17T16:09:49Z</time>
      </trkpt>
      <trkpt lat="44.43738" lon="5.69161">
        <ele>986</ele>
        <time>2018-05-17T16:10:49Z</time>
      </trkpt>
      <trkpt lat="44.43736" lon="5.69134">
        <ele>984</ele>
        <time>2018-05-17T16:11:49Z</time>
      </trkpt>
      <trkpt lat="44.4373" lon="5.69108">
        <ele>982</ele>
        <time>2018-05-17T16:12:49Z</time>
      </trkpt>
      <trkpt lat="44.43723" lon="5.69083">
        <ele>981</ele>
        <time>2018-05-17T16:13:49Z</time>
      </trkpt>
      <trkpt lat="44.43708" lon="5.69064">
        <ele>979</ele>
        <time>2018-05-17T16:14:49Z</time>
      </trkpt>
      <trkpt lat="44.43707" lon="5.69086">
        <ele>977</ele>
        <time>2018-05-17T16:15:49Z</time>
      </trkpt>
      <trkpt lat="44.43714" lon="5.69111">
        <ele>978</ele>
        <time>2018-05-17T16:16:49Z</time>
      </trkpt>
      <trkpt lat="44.43706" lon="5.69138">
        <ele>975</ele>
        <time>2018-05-17T16:17:49Z</time>
      </trkpt>
      <trkpt lat="44.43696" lon="5.69161">
        <ele>971</ele>
        <time>2018-05-17T16:18:49Z</time>
      </trkpt>
      <trkpt lat="44.43685" lon="5.69182">
        <ele>967</ele>
        <time>2018-05-17T16:19:49Z</time>
      </trkpt>
      <trkpt lat="44.43676" lon="5.69208">
        <ele>965</ele>
        <time>2018-05-17T16:20:49Z</time>
      </trkpt>
      <trkpt lat="44.43668" lon="5.69234">
        <ele>962</ele>
        <time>2018-05-17T16:21:49Z</time>
      </trkpt>
      <trkpt lat="44.43658" lon="5.69263">
        <ele>960</ele>
        <time>2018-05-17T16:22:49Z</time>
      </trkpt>
      <trkpt lat="44.4365" lon="5.69287">
        <ele>960</ele>
        <time>2018-05-17T16:23:49Z</time>
      </trkpt>
      <trkpt lat="44.43638" lon="5.69307">
        <ele>958</ele>
        <time>2018-05-17T16:24:49Z</time>
      </trkpt>
      <trkpt lat="44.43625" lon="5.69328">
        <ele>955</ele>
        <time>2018-05-17T16:25:49Z</time>
      </trkpt>
      <trkpt lat="44.43614" lon="5.69351">
        <ele>954</ele>
        <time>2018-05-17T16:26:49Z</time>
      </trkpt>
      <trkpt lat="44.43614" lon="5.69376">
        <ele>958</ele>
        <time>2018-05-17T16:27:49Z</time>
      </trkpt>
      <trkpt lat="44.43606" lon="5.69401">
        <ele>959</ele>
        <time>2018-05-17T16:28:49Z</time>
      </trkpt>
      <trkpt lat="44.43587" lon="5.69409">
        <ele>950</ele>
        <time>2018-05-17T16:29:49Z</time>
      </trkpt>
      <trkpt lat="44.43577" lon="5.69387">
        <ele>943</ele>
        <time>2018-05-17T16:30:49Z</time>
      </trkpt>
      <trkpt lat="44.43581" lon="5.69361">
        <ele>941</ele>
        <time>2018-05-17T16:31:49Z</time>
      </trkpt>
      <trkpt lat="44.4358" lon="5.69331">
        <ele>938</ele>
        <time>2018-05-17T16:32:49Z</time>
      </trkpt>
      <trkpt lat="44.43583" lon="5.69303">
        <ele>937</ele>
        <time>2018-05-17T16:33:49Z</time>
      </trkpt>
      <trkpt lat="44.43588" lon="5.69277">
        <ele>937</ele>
        <time>2018-05-17T16:34:49Z</time>
      </trkpt>
      <trkpt lat="44.43586" lon="5.6925">
        <ele>934</ele>
        <time>2018-05-17T16:35:49Z</time>
      </trkpt>
      <trkpt lat="44.43577" lon="5.69228">
        <ele>933</ele>
        <time>2018-05-17T16:36:49Z</time>
      </trkpt>
      <trkpt lat="44.43568" lon="5.69203">
        <ele>934</ele>
        <time>2018-05-17T16:37:49Z</time>
      </trkpt>
      <trkpt lat="44.43562" lon="5.69222">
        <ele>931</ele>
        <time>2018-05-17T16:38:49Z</time>
      </trkpt>
      <trkpt lat="44.43562" lon="5.69247">
        <ele>928</ele>
        <time>2018-05-17T16:39:49Z</time>
      </trkpt>
      <trkpt lat="44.43561" lon="5.69272">
        <ele>929</ele>
        <time>2018-05-17T16:40:49Z</time>
      </trkpt>
      <trkpt lat="44.43548" lon="5.69296">
        <ele>926</ele>
        <time>2018-05-17T16:41:49Z</time>
      </trkpt>
      <trkpt lat="44.43537" lon="5.69319">
        <ele>922</ele>
        <time>2018-05-17T16:42:49Z</time>
      </trkpt>
      <trkpt lat="44.43521" lon="5.69336">
        <ele>917</ele>
        <time>2018-05-17T16:43:49Z</time>
      </trkpt>
      <trkpt lat="44.43511" lon="5.69357">
        <ele>915</ele>
        <time>2018-05-17T16:44:49Z</time>
      </trkpt>
      <trkpt lat="44.43504" lon="5.69382">
        <ele>914</ele>
        <time>2018-05-17T16:45:49Z</time>
      </trkpt>
      <trkpt lat="44.43496" lon="5.69405">
        <ele>912</ele>
        <time>2018-05-17T16:46:49Z</time>
      </trkpt>
      <trkpt lat="44.43482" lon="5.69427">
        <ele>911</ele>
        <time>2018-05-17T16:47:49Z</time>
      </trkpt>
      <trkpt lat="44.43465" lon="5.69442">
        <ele>908</ele>
        <time>2018-05-17T16:48:49Z</time>
      </trkpt>
      <trkpt lat="44.43444" lon="5.69451">
        <ele>903</ele>
        <time>2018-05-17T16:49:49Z</time>
      </trkpt>
      <trkpt lat="44.43426" lon="5.69462">
        <ele>899</ele>
        <time>2018-05-17T16:50:49Z</time>
      </trkpt>
      <trkpt lat="44.43407" lon="5.6947">
        <ele>896</ele>
        <time>2018-05-17T16:51:49Z</time>
      </trkpt>
      <trkpt lat="44.43387" lon="5.69472">
        <ele>892</ele>
        <time>2018-05-17T16:52:49Z</time>
      </trkpt>
      <trkpt lat="44.4337" lon="5.6948">
        <ele>889</ele>
        <time>2018-05-17T16:53:49Z</time>
      </trkpt>
      <trkpt lat="44.43351" lon="5.6949">
        <ele>885</ele>
        <time>2018-05-17T16:54:49Z</time>
      </trkpt>
      <trkpt lat="44.43333" lon="5.69501">
        <ele>881</ele>
        <time>2018-05-17T16:55:49Z</time>
      </trkpt>
      <trkpt lat="44.43317" lon="5.69512">
        <ele>879</ele>
        <time>2018-05-17T16:56:49Z</time>
      </trkpt>
      <trkpt lat="44.433" lon="5.69527">
        <ele>877</ele>
        <time>2018-05-17T16:57:49Z</time>
      </trkpt>
      <trkpt lat="44.43289" lon="5.6954">
        <ele>875</ele>
        <time>2018-05-17T16:58:49Z</time>
      </trkpt>
      <trkpt lat="44.4328" lon="5.69557">
        <ele>873</ele>
        <time>2018-05-17T16:59:49Z</time>
      </trkpt>
      <trkpt lat="44.43269" lon="5.69579">
        <ele>871</ele>
        <time>2018-05-17T17:00:49Z</time>
      </trkpt>
      <trkpt lat="44.43256" lon="5.69599">
        <ele>867</ele>
        <time>2018-05-17T17:01:49Z</time>
      </trkpt>
      <trkpt lat="44.43249" lon="5.69621">
        <ele>864</ele>
        <time>2018-05-17T17:02:49Z</time>
      </trkpt>
      <trkpt lat="44.43224" lon="5.69662">
        <ele>857</ele>
        <time>2018-05-17T17:03:49Z</time>
      </trkpt>
      <trkpt lat="44.43218" lon="5.69684">
        <ele>856</ele>
        <time>2018-05-17T17:04:49Z</time>
      </trkpt>
      <trkpt lat="44.43213" lon="5.69708">
        <ele>855</ele>
        <time>2018-05-17T17:05:49Z</time>
      </trkpt>
      <trkpt lat="44.43204" lon="5.6973">
        <ele>854</ele>
        <time>2018-05-17T17:06:49Z</time>
      </trkpt>
      <trkpt lat="44.43191" lon="5.69753">
        <ele>851</ele>
        <time>2018-05-17T17:07:49Z</time>
      </trkpt>
      <trkpt lat="44.43175" lon="5.69767">
        <ele>848</ele>
        <time>2018-05-17T17:08:49Z</time>
      </trkpt>
      <trkpt lat="44.4316" lon="5.69782">
        <ele>845</ele>
        <time>2018-05-17T17:09:49Z</time>
      </trkpt>
      <trkpt lat="44.43144" lon="5.69796">
        <ele>842</ele>
        <time>2018-05-17T17:10:49Z</time>
      </trkpt>
      <trkpt lat="44.43128" lon="5.69809">
        <ele>839</ele>
        <time>2018-05-17T17:11:49Z</time>
      </trkpt>
      <trkpt lat="44.43097" lon="5.69838">
        <ele>834</ele>
        <time>2018-05-17T17:12:49Z</time>
      </trkpt>
      <trkpt lat="44.43078" lon="5.69851">
        <ele>830</ele>
        <time>2018-05-17T17:13:49Z</time>
      </trkpt>
      <trkpt lat="44.43061" lon="5.69858">
        <ele>826</ele>
        <time>2018-05-17T17:14:49Z</time>
      </trkpt>
      <trkpt lat="44.43046" lon="5.69868">
        <ele>823</ele>
        <time>2018-05-17T17:15:49Z</time>
      </trkpt>
      <trkpt lat="44.43032" lon="5.69885">
        <ele>821</ele>
        <time>2018-05-17T17:16:49Z</time>
      </trkpt>
      <trkpt lat="44.43015" lon="5.69896">
        <ele>817</ele>
        <time>2018-05-17T17:17:49Z</time>
      </trkpt>
      <trkpt lat="44.43" lon="5.69906">
        <ele>814</ele>
        <time>2018-05-17T17:18:49Z</time>
      </trkpt>
      <trkpt lat="44.42986" lon="5.69926">
        <ele>812</ele>
        <time>2018-05-17T17:19:49Z</time>
      </trkpt>
      <trkpt lat="44.42976" lon="5.69947">
        <ele>810</ele>
        <time>2018-05-17T17:20:49Z</time>
      </trkpt>
      <trkpt lat="44.42964" lon="5.6997">
        <ele>807</ele>
        <time>2018-05-17T17:21:49Z</time>
      </trkpt>
      <trkpt lat="44.42953" lon="5.69995">
        <ele>806</ele>
        <time>2018-05-17T17:22:49Z</time>
      </trkpt>
      <trkpt lat="44.42943" lon="5.70018">
        <ele>804</ele>
        <time>2018-05-17T17:23:49Z</time>
      </trkpt>
      <trkpt lat="44.42931" lon="5.7004">
        <ele>801</ele>
        <time>2018-05-17T17:24:49Z</time>
      </trkpt>
      <trkpt lat="44.42919" lon="5.70061">
        <ele>799</ele>
        <time>2018-05-17T17:25:49Z</time>
      </trkpt>
      <trkpt lat="44.42906" lon="5.7008">
        <ele>796</ele>
        <time>2018-05-17T17:26:49Z</time>
      </trkpt>
      <trkpt lat="44.42892" lon="5.701">
        <ele>792</ele>
        <time>2018-05-17T17:27:49Z</time>
      </trkpt>
      <trkpt lat="44.42882" lon="5.70122">
        <ele>789</ele>
        <time>2018-05-17T17:28:49Z</time>
      </trkpt>
      <trkpt lat="44.42866" lon="5.70171">
        <ele>785</ele>
        <time>2018-05-17T17:29:49Z</time>
      </trkpt>
      <trkpt lat="44.42866" lon="5.70197">
        <ele>784</ele>
        <time>2018-05-17T17:30:49Z</time>
      </trkpt>
      <trkpt lat="44.42867" lon="5.70223">
        <ele>783</ele>
        <time>2018-05-17T17:31:49Z</time>
      </trkpt>
      <trkpt lat="44.42858" lon="5.70229">
        <ele>779</ele>
        <time>2018-05-17T17:32:49Z</time>
      </trkpt>
      <trkpt lat="44.42844" lon="5.70208">
        <ele>776</ele>
        <time>2018-05-17T17:33:49Z</time>
      </trkpt>
      <trkpt lat="44.42833" lon="5.70185">
        <ele>774</ele>
        <time>2018-05-17T17:34:49Z</time>
      </trkpt>
      <trkpt lat="44.42832" lon="5.7016">
        <ele>774</ele>
        <time>2018-05-17T17:35:49Z</time>
      </trkpt>
      <trkpt lat="44.42825" lon="5.70151">
        <ele>772</ele>
        <time>2018-05-17T17:36:49Z</time>
      </trkpt>
      <trkpt lat="44.42808" lon="5.70194">
        <ele>764</ele>
        <time>2018-05-17T17:37:49Z</time>
      </trkpt>
      <trkpt lat="44.42807" lon="5.70217">
        <ele>762</ele>
        <time>2018-05-17T17:38:49Z</time>
      </trkpt>
      <trkpt lat="44.42809" lon="5.70234">
        <ele>761</ele>
        <time>2018-05-17T17:39:49Z</time>
      </trkpt>
      <trkpt lat="44.42813" lon="5.70255">
        <ele>761</ele>
        <time>2018-05-17T17:40:49Z</time>
      </trkpt>
      <trkpt lat="44.42817" lon="5.70275">
        <ele>759</ele>
        <time>2018-05-17T17:41:49Z</time>
      </trkpt>
      <trkpt lat="44.4283" lon="5.70294">
        <ele>760</ele>
        <time>2018-05-17T17:42:49Z</time>
      </trkpt>
      <trkpt lat="44.42836" lon="5.7032">
        <ele>757</ele>
        <time>2018-05-17T17:43:49Z</time>
      </trkpt>
      <trkpt lat="44.42834" lon="5.70343">
        <ele>753</ele>
        <time>2018-05-17T17:44:49Z</time>
      </trkpt>
      <trkpt lat="44.4284" lon="5.70366">
        <ele>751</ele>
        <time>2018-05-17T17:45:49Z</time>
      </trkpt>
      <trkpt lat="44.42847" lon="5.70416">
        <ele>744</ele>
        <time>2018-05-17T17:46:49Z</time>
      </trkpt>
      <trkpt lat="44.42853" lon="5.7044">
        <ele>745</ele>
        <time>2018-05-17T17:47:49Z</time>
      </trkpt>
      <trkpt lat="44.42844" lon="5.70463">
        <ele>741</ele>
        <time>2018-05-17T17:48:49Z</time>
      </trkpt>
      <trkpt lat="44.42836" lon="5.70486">
        <ele>736</ele>
        <time>2018-05-17T17:49:49Z</time>
      </trkpt>
      <trkpt lat="44.42829" lon="5.70512">
        <ele>733</ele>
        <time>2018-05-17T17:50:49Z</time>
      </trkpt>
      <trkpt lat="44.42825" lon="5.70536">
        <ele>731</ele>
        <time>2018-05-17T17:51:49Z</time>
      </trkpt>
      <trkpt lat="44.42822" lon="5.70564">
        <ele>730</ele>
        <time>2018-05-17T17:52:49Z</time>
      </trkpt>
      <trkpt lat="44.4282" lon="5.7059">
        <ele>728</ele>
        <time>2018-05-17T17:53:49Z</time>
      </trkpt>
      <trkpt lat="44.42815" lon="5.70615">
        <ele>726</ele>
        <time>2018-05-17T17:54:49Z</time>
      </trkpt>
      <trkpt lat="44.42811" lon="5.70664">
        <ele>724</ele>
        <time>2018-05-17T17:55:49Z</time>
      </trkpt>
      <trkpt lat="44.4281" lon="5.7069">
        <ele>723</ele>
        <time>2018-05-17T17:56:49Z</time>
      </trkpt>
      <trkpt lat="44.42808" lon="5.70716">
        <ele>722</ele>
        <time>2018-05-17T17:57:49Z</time>
      </trkpt>
      <trkpt lat="44.42806" lon="5.70729">
        <ele>721</ele>
        <time>2018-05-17T17:58:49Z</time>
      </trkpt>
      <trkpt lat="44.42801" lon="5.70754">
        <ele>719</ele>
        <time>2018-05-17T17:59:49Z</time>
      </trkpt>
      <trkpt lat="44.42794" lon="5.70777">
        <ele>716</ele>
        <time>2018-05-17T18:00:49Z</time>
      </trkpt>
      <trkpt lat="44.4279" lon="5.70801">
        <ele>714</ele>
        <time>2018-05-17T18:01:49Z</time>
      </trkpt>
      <trkpt lat="44.42789" lon="5.70827">
        <ele>714</ele>
        <time>2018-05-17T18:02:49Z</time>
      </trkpt>
      <trkpt lat="44.42786" lon="5.70851">
        <ele>712</ele>
        <time>2018-05-17T18:03:49Z</time>
      </trkpt>
      <trkpt lat="44.42778" lon="5.70871">
        <ele>709</ele>
        <time>2018-05-17T18:04:49Z</time>
      </trkpt>
      <trkpt lat="44.42769" lon="5.70894">
        <ele>705</ele>
        <time>2018-05-17T18:05:49Z</time>
      </trkpt>
      <trkpt lat="44.42765" lon="5.70918">
        <ele>704</ele>
        <time>2018-05-17T18:06:49Z</time>
      </trkpt>
      <trkpt lat="44.42757" lon="5.70942">
        <ele>699</ele>
        <time>2018-05-17T18:07:49Z</time>
      </trkpt>
      <trkpt lat="44.42755" lon="5.70966">
        <ele>697</ele>
        <time>2018-05-17T18:08:49Z</time>
      </trkpt>
      <trkpt lat="44.42755" lon="5.70992">
        <ele>695</ele>
        <time>2018-05-17T18:09:49Z</time>
      </trkpt>
      <trkpt lat="44.42758" lon="5.71014">
        <ele>694</ele>
        <time>2018-05-17T18:10:49Z</time>
      </trkpt>
      <trkpt lat="44.42757" lon="5.71028">
        <ele>692</ele>
        <time>2018-05-17T18:11:49Z</time>
      </trkpt>
      <trkpt lat="44.42749" lon="5.71006">
        <ele>692</ele>
        <time>2018-05-17T18:12:49Z</time>
      </trkpt>
      <trkpt lat="44.42746" lon="5.7098">
        <ele>693</ele>
        <time>2018-05-17T18:13:49Z</time>
      </trkpt>
      <trkpt lat="44.42745" lon="5.70955">
        <ele>695</ele>
        <time>2018-05-17T18:14:49Z</time>
      </trkpt>
      <trkpt lat="44.42747" lon="5.70931">
        <ele>697</ele>
        <time>2018-05-17T18:15:49Z</time>
      </trkpt>
      <trkpt lat="44.42749" lon="5.70906">
        <ele>698</ele>
        <time>2018-05-17T18:16:49Z</time>
      </trkpt>
      <trkpt lat="44.42747" lon="5.7088">
        <ele>697</ele>
        <time>2018-05-17T18:17:49Z</time>
      </trkpt>
      <trkpt lat="44.42739" lon="5.70858">
        <ele>696</ele>
        <time>2018-05-17T18:18:49Z</time>
      </trkpt>
      <trkpt lat="44.42725" lon="5.70846">
        <ele>693</ele>
        <time>2018-05-17T18:19:49Z</time>
      </trkpt>
      <trkpt lat="44.42707" lon="5.70846">
        <ele>691</ele>
        <time>2018-05-17T18:20:49Z</time>
      </trkpt>
      <trkpt lat="44.42691" lon="5.70853">
        <ele>688</ele>
        <time>2018-05-17T18:21:49Z</time>
      </trkpt>
      <trkpt lat="44.42674" lon="5.70859">
        <ele>686</ele>
        <time>2018-05-17T18:22:49Z</time>
      </trkpt>
      <trkpt lat="44.42658" lon="5.70862">
        <ele>684</ele>
        <time>2018-05-17T18:23:49Z</time>
      </trkpt>
      <trkpt lat="44.42639" lon="5.70864">
        <ele>682</ele>
        <time>2018-05-17T18:24:49Z</time>
      </trkpt>
      <trkpt lat="44.42625" lon="5.70848">
        <ele>681</ele>
        <time>2018-05-17T18:25:49Z</time>
      </trkpt>
      <trkpt lat="44.42608" lon="5.70835">
        <ele>681</ele>
        <time>2018-05-17T18:26:49Z</time>
      </trkpt>
      <trkpt lat="44.42591" lon="5.70848">
        <ele>679</ele>
        <time>2018-05-17T18:27:49Z</time>
      </trkpt>
      <trkpt lat="44.42577" lon="5.70865">
        <ele>677</ele>
        <time>2018-05-17T18:28:49Z</time>
      </trkpt>
      <trkpt lat="44.42561" lon="5.70879">
        <ele>676</ele>
        <time>2018-05-17T18:29:49Z</time>
      </trkpt>
      <trkpt lat="44.42547" lon="5.70897">
        <ele>674</ele>
        <time>2018-05-17T18:30:49Z</time>
      </trkpt>
      <trkpt lat="44.42533" lon="5.70912">
        <ele>672</ele>
        <time>2018-05-17T18:31:49Z</time>
      </trkpt>
      <trkpt lat="44.42522" lon="5.70931">
        <ele>669</ele>
        <time>2018-05-17T18:32:49Z</time>
      </trkpt>
      <trkpt lat="44.42521" lon="5.7094">
        <ele>669</ele>
        <time>2018-05-17T18:33:49Z</time>
      </trkpt>
      <trkpt lat="44.42534" lon="5.70958">
        <ele>667</ele>
        <time>2018-05-17T18:34:49Z</time>
      </trkpt>
      <trkpt lat="44.42555" lon="5.70969">
        <ele>667</ele>
        <time>2018-05-17T18:35:49Z</time>
      </trkpt>
      <trkpt lat="44.42572" lon="5.70981">
        <ele>667</ele>
        <time>2018-05-17T18:36:49Z</time>
      </trkpt>
      <trkpt lat="44.42587" lon="5.70994">
        <ele>667</ele>
        <time>2018-05-17T18:37:49Z</time>
      </trkpt>
      <trkpt lat="44.42592" lon="5.71014">
        <ele>666</ele>
        <time>2018-05-17T18:38:49Z</time>
      </trkpt>
      <trkpt lat="44.42574" lon="5.71018">
        <ele>664</ele>
        <time>2018-05-17T18:39:49Z</time>
      </trkpt>
      <trkpt lat="44.42558" lon="5.71016">
        <ele>663</ele>
        <time>2018-05-17T18:40:49Z</time>
      </trkpt>
      <trkpt lat="44.42538" lon="5.71019">
        <ele>662</ele>
        <time>2018-05-17T18:41:49Z</time>
      </trkpt>
      <trkpt lat="44.42519" lon="5.71025">
        <ele>661</ele>
        <time>2018-05-17T18:42:49Z</time>
      </trkpt>
      <trkpt lat="44.42504" lon="5.71041">
        <ele>659</ele>
        <time>2018-05-17T18:43:49Z</time>
      </trkpt>
      <trkpt lat="44.42504" lon="5.7106">
        <ele>658</ele>
        <time>2018-05-17T18:44:49Z</time>
      </trkpt>
      <trkpt lat="44.42511" lon="5.71085">
        <ele>656</ele>
        <time>2018-05-17T18:45:49Z</time>
      </trkpt>
      <trkpt lat="44.42525" lon="5.71105">
        <ele>656</ele>
        <time>2018-05-17T18:46:49Z</time>
      </trkpt>
      <trkpt lat="44.4254" lon="5.71124">
        <ele>656</ele>
        <time>2018-05-17T18:47:49Z</time>
      </trkpt>
      <trkpt lat="44.42568" lon="5.71164">
        <ele>654</ele>
        <time>2018-05-17T18:48:49Z</time>
      </trkpt>
      <trkpt lat="44.42582" lon="5.71183">
        <ele>654</ele>
        <time>2018-05-17T18:49:49Z</time>
      </trkpt>
      <trkpt lat="44.42594" lon="5.71201">
        <ele>655</ele>
        <time>2018-05-17T18:50:49Z</time>
      </trkpt>
      <trkpt lat="44.42607" lon="5.71223">
        <ele>655</ele>
        <time>2018-05-17T18:51:49Z</time>
      </trkpt>
      <trkpt lat="44.4262" lon="5.71242">
        <ele>655</ele>
        <time>2018-05-17T18:52:49Z</time>
      </trkpt>
      <trkpt lat="44.42634" lon="5.71261">
        <ele>655</ele>
        <time>2018-05-17T18:53:49Z</time>
      </trkpt>
      <trkpt lat="44.42648" lon="5.71279">
        <ele>655</ele>
        <time>2018-05-17T18:54:49Z</time>
      </trkpt>
      <trkpt lat="44.42661" lon="5.71298">
        <ele>655</ele>
        <time>2018-05-17T18:55:49Z</time>
      </trkpt>
      <trkpt lat="44.42673" lon="5.71318">
        <ele>656</ele>
        <time>2018-05-17T18:56:49Z</time>
      </trkpt>
      <trkpt lat="44.42688" lon="5.71336">
        <ele>657</ele>
        <time>2018-05-17T18:57:49Z</time>
      </trkpt>
      <trkpt lat="44.42701" lon="5.71353">
        <ele>657</ele>
        <time>2018-05-17T18:58:49Z</time>
      </trkpt>
      <trkpt lat="44.42713" lon="5.71372">
        <ele>658</ele>
        <time>2018-05-17T18:59:49Z</time>
      </trkpt>
      <trkpt lat="44.42726" lon="5.7139">
        <ele>658</ele>
        <time>2018-05-17T19:00:49Z</time>
      </trkpt>
      <trkpt lat="44.42737" lon="5.71411">
        <ele>657</ele>
        <time>2018-05-17T19:01:49Z</time>
      </trkpt>
      <trkpt lat="44.4272" lon="5.71425">
        <ele>656</ele>
        <time>2018-05-17T19:02:49Z</time>
      </trkpt>
      <trkpt lat="44.42699" lon="5.71434">
        <ele>656</ele>
        <time>2018-05-17T19:03:49Z</time>
      </trkpt>
      <trkpt lat="44.42683" lon="5.71448">
        <ele>655</ele>
        <time>2018-05-17T19:04:49Z</time>
      </trkpt>
      <trkpt lat="44.42669" lon="5.71465">
        <ele>655</ele>
        <time>2018-05-17T19:05:49Z</time>
      </trkpt>
      <trkpt lat="44.42658" lon="5.71484">
        <ele>654</ele>
        <time>2018-05-17T19:06:49Z</time>
      </trkpt>
      <trkpt lat="44.42657" lon="5.71489">
        <ele>654</ele>
        <time>2018-05-17T19:07:49Z</time>
      </trkpt>
      <trkpt lat="44.42671" lon="5.71505">
        <ele>654</ele>
        <time>2018-05-17T19:08:49Z</time>
      </trkpt>
      <trkpt lat="44.42689" lon="5.71515">
        <ele>655</ele>
        <time>2018-05-17T19:09:49Z</time>
      </trkpt>
      <trkpt lat="44.42706" lon="5.71526">
        <ele>655</ele>
        <time>2018-05-17T19:10:49Z</time>
      </trkpt>
      <trkpt lat="44.42724" lon="5.71538">
        <ele>655</ele>
        <time>2018-05-17T19:11:49Z</time>
      </trkpt>
      <trkpt lat="44.42744" lon="5.71549">
        <ele>656</ele>
        <time>2018-05-17T19:12:49Z</time>
      </trkpt>
      <trkpt lat="44.42761" lon="5.71561">
        <ele>657</ele>
        <time>2018-05-17T19:13:49Z</time>
      </trkpt>
      <trkpt lat="44.42798" lon="5.71582">
        <ele>660</ele>
        <time>2018-05-17T19:14:49Z</time>
      </trkpt>
      <trkpt lat="44.42813" lon="5.71591">
        <ele>661</ele>
        <time>2018-05-17T19:15:49Z</time>
      </trkpt>
      <trkpt lat="44.4283" lon="5.71602">
        <ele>662</ele>
        <time>2018-05-17T19:16:49Z</time>
      </trkpt>
      <trkpt lat="44.42847" lon="5.71615">
        <ele>664</ele>
        <time>2018-05-17T19:17:49Z</time>
      </trkpt>
      <trkpt lat="44.42862" lon="5.71628">
        <ele>666</ele>
        <time>2018-05-17T19:18:49Z</time>
      </trkpt>
      <trkpt lat="44.42877" lon="5.71646">
        <ele>667</ele>
        <time>2018-05-17T19:19:49Z</time>
      </trkpt>
      <trkpt lat="44.42887" lon="5.7167">
        <ele>666</ele>
        <time>2018-05-17T19:20:49Z</time>
      </trkpt>
      <trkpt lat="44.42891" lon="5.71687">
        <ele>665</ele>
        <time>2018-05-17T19:21:49Z</time>
      </trkpt>
      <trkpt lat="44.42891" lon="5.71687">
        <ele>665</ele>
        <time>2018-05-17T19:22:49Z</time>
      </trkpt>
      <trkpt lat="44.42891" lon="5.71689">
        <ele>665</ele>
        <time>2018-05-17T19:23:49Z</time>
      </trkpt>
      <trkpt lat="44.42896" lon="5.71706">
        <ele>664</ele>
        <time>2018-05-17T19:24:49Z</time>
      </trkpt>
      <trkpt lat="44.42901" lon="5.71728">
        <ele>663</ele>
        <time>2018-05-17T19:25:49Z</time>
      </trkpt>
      <trkpt lat="44.42898" lon="5.71748">
        <ele>661</ele>
        <time>2018-05-17T19:26:49Z</time>
      </trkpt>
      <trkpt lat="44.4287" lon="5.71779">
        <ele>662</ele>
        <time>2018-05-17T19:27:49Z</time>
      </trkpt>
      <trkpt lat="44.42857" lon="5.71766">
        <ele>661</ele>
        <time>2018-05-17T19:28:49Z</time>
      </trkpt>
      <trkpt lat="44.42834" lon="5.7173">
        <ele>660</ele>
        <time>2018-05-17T19:29:49Z</time>
      </trkpt>
      <trkpt lat="44.42821" lon="5.71712">
        <ele>659</ele>
        <time>2018-05-17T19:30:49Z</time>
      </trkpt>
      <trkpt lat="44.42807" lon="5.71697">
        <ele>659</ele>
        <time>2018-05-17T19:31:49Z</time>
      </trkpt>
      <trkpt lat="44.42792" lon="5.71689">
        <ele>659</ele>
        <time>2018-05-17T19:32:49Z</time>
      </trkpt>
      <trkpt lat="44.42781" lon="5.71707">
        <ele>660</ele>
        <time>2018-05-17T19:33:49Z</time>
      </trkpt>
      <trkpt lat="44.42764" lon="5.71747">
        <ele>662</ele>
        <time>2018-05-17T19:34:49Z</time>
      </trkpt>
      <trkpt lat="44.42756" lon="5.71769">
        <ele>664</ele>
        <time>2018-05-17T19:35:49Z</time>
      </trkpt>
      <trkpt lat="44.42748" lon="5.71788">
        <ele>667</ele>
        <time>2018-05-17T19:36:49Z</time>
      </trkpt>
      <trkpt lat="44.4274" lon="5.71808">
        <ele>670</ele>
        <time>2018-05-17T19:37:49Z</time>
      </trkpt>
      <trkpt lat="44.42726" lon="5.71802">
        <ele>669</ele>
        <time>2018-05-17T19:38:49Z</time>
      </trkpt>
      <trkpt lat="44.42708" lon="5.71793">
        <ele>668</ele>
        <time>2018-05-17T19:39:49Z</time>
      </trkpt>
      <trkpt lat="44.42705" lon="5.71795">
        <ele>668</ele>
        <time>2018-05-17T19:40:49Z</time>
      </trkpt>
      <trkpt lat="44.42706" lon="5.71792">
        <ele>668</ele>
        <time>2018-05-17T19:41:49Z</time>
      </trkpt>
      <trkpt lat="44.4269" lon="5.71785">
        <ele>667</ele>
        <time>2018-05-17T19:42:49Z</time>
      </trkpt>
      <trkpt lat="44.42672" lon="5.71788">
        <ele>668</ele>
        <time>2018-05-17T19:43:49Z</time>
      </trkpt>
      <trkpt lat="44.42655" lon="5.71792">
        <ele>669</ele>
        <time>2018-05-17T19:44:49Z</time>
      </trkpt>
      <trkpt lat="44.42636" lon="5.71795">
        <ele>669</ele>
        <time>2018-05-17T19:45:49Z</time>
      </trkpt>
      <trkpt lat="44.42618" lon="5.71799">
        <ele>670</ele>
        <time>2018-05-17T19:46:49Z</time>
      </trkpt>
      <trkpt lat="44.42578" lon="5.71803">
        <ele>671</ele>
        <time>2018-05-17T19:47:49Z</time>
      </trkpt>
      <trkpt lat="44.42561" lon="5.71803">
        <ele>670</ele>
        <time>2018-05-17T19:48:49Z</time>
      </trkpt>
      <trkpt lat="44.4255" lon="5.71809">
        <ele>671</ele>
        <time>2018-05-17T19:49:49Z</time>
      </trkpt>
      <trkpt lat="44.42531" lon="5.71811">
        <ele>671</ele>
        <time>2018-05-17T19:50:49Z</time>
      </trkpt>
      <trkpt lat="44.42512" lon="5.71806">
        <ele>670</ele>
        <time>2018-05-17T19:51:49Z</time>
      </trkpt>
      <trkpt lat="44.42494" lon="5.71804">
        <ele>669</ele>
        <time>2018-05-17T19:52:49Z</time>
      </trkpt>
      <trkpt lat="44.42475" lon="5.71804">
        <ele>668</ele>
        <time>2018-05-17T19:53:49Z</time>
      </trkpt>
      <trkpt lat="44.42457" lon="5.71803">
        <ele>668</ele>
        <time>2018-05-17T19:54:49Z</time>
      </trkpt>
      <trkpt lat="44.42438" lon="5.71804">
        <ele>667</ele>
        <time>2018-05-17T19:55:49Z</time>
      </trkpt>
      <trkpt lat="44.42419" lon="5.7181">
        <ele>667</ele>
        <time>2018-05-17T19:56:49Z</time>
      </trkpt>
      <trkpt lat="44.42399" lon="5.71812">
        <ele>667</ele>
        <time>2018-05-17T19:57:49Z</time>
      </trkpt>
      <trkpt lat="44.4238" lon="5.71819">
        <ele>667</ele>
        <time>2018-05-17T19:58:49Z</time>
      </trkpt>
      <trkpt lat="44.42362" lon="5.71824">
        <ele>668</ele>
        <time>2018-05-17T19:59:49Z</time>
      </trkpt>
      <trkpt lat="44.42324" lon="5.71833">
        <ele>668</ele>
        <time>2018-05-17T20:00:49Z</time>
      </trkpt>
      <trkpt lat="44.42305" lon="5.71837">
        <ele>669</ele>
        <time>2018-05-17T20:01:49Z</time>
      </trkpt>
      <trkpt lat="44.42287" lon="5.71843">
        <ele>670</ele>
        <time>2018-05-17T20:02:49Z</time>
      </trkpt>
      <trkpt lat="44.42269" lon="5.71848">
        <ele>670</ele>
        <time>2018-05-17T20:03:49Z</time>
      </trkpt>
      <trkpt lat="44.42231" lon="5.71859">
        <ele>672</ele>
        <time>2018-05-17T20:04:49Z</time>
      </trkpt>
      <trkpt lat="44.42213" lon="5.7186">
        <ele>672</ele>
        <time>2018-05-17T20:05:49Z</time>
      </trkpt>
      <trkpt lat="44.42194" lon="5.71859">
        <ele>673</ele>
        <time>2018-05-17T20:06:49Z</time>
      </trkpt>
      <trkpt lat="44.42176" lon="5.71861">
        <ele>673</ele>
        <time>2018-05-17T20:07:49Z</time>
      </trkpt>
      <trkpt lat="44.42158" lon="5.71863">
        <ele>673</ele>
        <time>2018-05-17T20:08:49Z</time>
      </trkpt>
      <trkpt lat="44.4214" lon="5.71862">
        <ele>673</ele>
        <time>2018-05-17T20:09:49Z</time>
      </trkpt>
      <trkpt lat="44.42121" lon="5.71868">
        <ele>674</ele>
        <time>2018-05-17T20:10:49Z</time>
      </trkpt>
      <trkpt lat="44.42086" lon="5.71849">
        <ele>672</ele>
        <time>2018-05-17T20:11:49Z</time>
      </trkpt>
      <trkpt lat="44.42072" lon="5.71853">
        <ele>673</ele>
        <time>2018-05-17T20:12:49Z</time>
      </trkpt>
      <trkpt lat="44.42068" lon="5.71876">
        <ele>675</ele>
        <time>2018-05-17T20:13:49Z</time>
      </trkpt>
      <trkpt lat="44.42067" lon="5.71894">
        <ele>676</ele>
        <time>2018-05-17T20:14:49Z</time>
      </trkpt>
      <trkpt lat="44.42065" lon="5.71918">
        <ele>678</ele>
        <time>2018-05-17T20:15:49Z</time>
      </trkpt>
      <trkpt lat="44.42065" lon="5.71941">
        <ele>680</ele>
        <time>2018-05-17T20:16:49Z</time>
      </trkpt>
      <trkpt lat="44.42059" lon="5.71959">
        <ele>681</ele>
        <time>2018-05-17T20:17:49Z</time>
      </trkpt>
      <trkpt lat="44.4204" lon="5.71964">
        <ele>682</ele>
        <time>2018-05-17T20:18:49Z</time>
      </trkpt>
      <trkpt lat="44.42023" lon="5.71967">
        <ele>682</ele>
        <time>2018-05-17T20:19:49Z</time>
      </trkpt>
      <trkpt lat="44.42018" lon="5.71973">
        <ele>683</ele>
        <time>2018-05-17T20:20:49Z</time>
      </trkpt>
      <trkpt lat="44.42018" lon="5.71973">
        <ele>683</ele>
        <time>2018-05-17T20:21:49Z</time>
      </trkpt>
      <trkpt lat="44.42017" lon="5.71975">
        <ele>683</ele>
        <time>2018-05-17T20:22:49Z</time>
      </trkpt>
      <trkpt lat="44.42016" lon="5.71975">
        <ele>683</ele>
        <time>2018-05-17T20:23:49Z</time>
      </trkpt>
      <trkpt lat="44.42017" lon="5.71975">
        <ele>683</ele>
        <time>2018-05-17T20:24:49Z</time>
      </trkpt>
      <trkpt lat="44.42016" lon="5.71975">
        <ele>683</ele>
        <time>2018-05-17T20:25:49Z</time>
      </trkpt>
      <trkpt lat="44.42004" lon="5.71984">
        <ele>684</ele>
        <time>2018-05-17T20:26:49Z</time>
      </trkpt>
      <trkpt lat="44.4201" lon="5.72003">
        <ele>686</ele>
        <time>2018-05-17T20:27:49Z</time>
      </trkpt>
      <trkpt lat="44.42022" lon="5.72013">
        <ele>687</ele>
        <time>2018-05-17T20:28:49Z</time>
      </trkpt>
      <trkpt lat="44.42029" lon="5.72016">
        <ele>687</ele>
        <time>2018-05-17T20:29:49Z</time>
      </trkpt>
      <trkpt lat="44.42044" lon="5.7203">
        <ele>689</ele>
        <time>2018-05-17T20:30:49Z</time>
      </trkpt>
      <trkpt lat="44.4206" lon="5.72042">
        <ele>690</ele>
        <time>2018-05-17T20:31:49Z</time>
      </trkpt>
      <trkpt lat="44.42076" lon="5.72055">
        <ele>690</ele>
        <time>2018-05-17T20:32:49Z</time>
      </trkpt>
      <trkpt lat="44.42093" lon="5.72066">
        <ele>691</ele>
        <time>2018-05-17T20:33:49Z</time>
      </trkpt>
      <trkpt lat="44.42109" lon="5.72079">
        <ele>692</ele>
        <time>2018-05-17T20:34:49Z</time>
      </trkpt>
      <trkpt lat="44.42122" lon="5.72098">
        <ele>694</ele>
        <time>2018-05-17T20:35:49Z</time>
      </trkpt>
      <trkpt lat="44.42135" lon="5.72111">
        <ele>695</ele>
        <time>2018-05-17T20:36:49Z</time>
      </trkpt>
      <trkpt lat="44.42155" lon="5.72113">
        <ele>695</ele>
        <time>2018-05-17T20:37:49Z</time>
      </trkpt>
      <trkpt lat="44.42148" lon="5.72134">
        <ele>697</ele>
        <time>2018-05-17T20:38:49Z</time>
      </trkpt>
      <trkpt lat="44.42131" lon="5.72142">
        <ele>699</ele>
        <time>2018-05-17T20:39:49Z</time>
      </trkpt>
      <trkpt lat="44.42114" lon="5.72156">
        <ele>701</ele>
        <time>2018-05-17T20:40:49Z</time>
      </trkpt>
      <trkpt lat="44.42111" lon="5.72178">
        <ele>704</ele>
        <time>2018-05-17T20:41:49Z</time>
      </trkpt>
      <trkpt lat="44.42111" lon="5.72202">
        <ele>707</ele>
        <time>2018-05-17T20:42:49Z</time>
      </trkpt>
      <trkpt lat="44.42113" lon="5.72223">
        <ele>710</ele>
        <time>2018-05-17T20:43:49Z</time>
      </trkpt>
      <trkpt lat="44.42111" lon="5.72248">
        <ele>713</ele>
        <time>2018-05-17T20:44:49Z</time>
      </trkpt>
      <trkpt lat="44.4211" lon="5.72259">
        <ele>714</ele>
        <time>2018-05-17T20:45:49Z</time>
      </trkpt>
      <trkpt lat="44.42099" lon="5.7225">
        <ele>714</ele>
        <time>2018-05-17T20:46:49Z</time>
      </trkpt>
      <trkpt lat="44.42086" lon="5.72262">
        <ele>717</ele>
        <time>2018-05-17T20:47:49Z</time>
      </trkpt>
      <trkpt lat="44.42076" lon="5.72274">
        <ele>720</ele>
        <time>2018-05-17T20:48:49Z</time>
      </trkpt>
      <trkpt lat="44.42062" lon="5.72286">
        <ele>724</ele>
        <time>2018-05-17T20:49:49Z</time>
      </trkpt>
      <trkpt lat="44.42059" lon="5.72298">
        <ele>727</ele>
        <time>2018-05-17T20:50:49Z</time>
      </trkpt>
      <trkpt lat="44.42033" lon="5.72308">
        <ele>732</ele>
        <time>2018-05-17T20:51:49Z</time>
      </trkpt>
      <trkpt lat="44.42028" lon="5.72324">
        <ele>735</ele>
        <time>2018-05-17T20:52:49Z</time>
      </trkpt>
      <trkpt lat="44.42026" lon="5.72342">
        <ele>738</ele>
        <time>2018-05-17T20:53:49Z</time>
      </trkpt>
      <trkpt lat="44.42025" lon="5.72362">
        <ele>741</ele>
        <time>2018-05-17T20:54:49Z</time>
      </trkpt>
      <trkpt lat="44.42032" lon="5.72381">
        <ele>743</ele>
        <time>2018-05-17T20:55:49Z</time>
      </trkpt>
      <trkpt lat="44.42042" lon="5.72403">
        <ele>743</ele>
        <time>2018-05-17T20:56:49Z</time>
      </trkpt>
      <trkpt lat="44.42048" lon="5.72429">
        <ele>745</ele>
        <time>2018-05-17T20:57:49Z</time>
      </trkpt>
      <trkpt lat="44.42052" lon="5.72453">
        <ele>746</ele>
        <time>2018-05-17T20:58:49Z</time>
      </trkpt>
      <trkpt lat="44.42049" lon="5.72498">
        <ele>752</ele>
        <time>2018-05-17T20:59:49Z</time>
      </trkpt>
      <trkpt lat="44.4205" lon="5.72522">
        <ele>753</ele>
        <time>2018-05-17T21:00:49Z</time>
      </trkpt>
      <trkpt lat="44.42057" lon="5.72571">
        <ele>755</ele>
        <time>2018-05-17T21:01:49Z</time>
      </trkpt>
      <trkpt lat="44.4206" lon="5.72596">
        <ele>756</ele>
        <time>2018-05-17T21:02:49Z</time>
      </trkpt>
      <trkpt lat="44.42061" lon="5.72621">
        <ele>757</ele>
        <time>2018-05-17T21:03:49Z</time>
      </trkpt>
      <trkpt lat="44.42057" lon="5.72645">
        <ele>760</ele>
        <time>2018-05-17T21:04:49Z</time>
      </trkpt>
      <trkpt lat="44.42053" lon="5.72667">
        <ele>762</ele>
        <time>2018-05-17T21:05:49Z</time>
      </trkpt>
      <trkpt lat="44.42051" lon="5.7269">
        <ele>762</ele>
        <time>2018-05-17T21:06:49Z</time>
      </trkpt>
      <trkpt lat="44.42043" lon="5.72707">
        <ele>763</ele>
        <time>2018-05-17T21:07:49Z</time>
      </trkpt>
      <trkpt lat="44.42032" lon="5.72726">
        <ele>764</ele>
        <time>2018-05-17T21:08:49Z</time>
      </trkpt>
      <trkpt lat="44.42021" lon="5.72743">
        <ele>764</ele>
        <time>2018-05-17T21:09:49Z</time>
      </trkpt>
      <trkpt lat="44.42014" lon="5.72765">
        <ele>763</ele>
        <time>2018-05-17T21:10:49Z</time>
      </trkpt>
      <trkpt lat="44.42007" lon="5.72787">
        <ele>762</ele>
        <time>2018-05-17T21:11:49Z</time>
      </trkpt>
      <trkpt lat="44.41984" lon="5.72828">
        <ele>758</ele>
        <time>2018-05-17T21:12:49Z</time>
      </trkpt>
      <trkpt lat="44.4197" lon="5.72847">
        <ele>756</ele>
        <time>2018-05-17T21:13:49Z</time>
      </trkpt>
      <trkpt lat="44.41942" lon="5.7288">
        <ele>751</ele>
        <time>2018-05-17T21:14:49Z</time>
      </trkpt>
      <trkpt lat="44.41923" lon="5.72928">
        <ele>747</ele>
        <time>2018-05-17T21:15:49Z</time>
      </trkpt>
      <trkpt lat="44.41913" lon="5.72949">
        <ele>746</ele>
        <time>2018-05-17T21:16:49Z</time>
      </trkpt>
      <trkpt lat="44.419" lon="5.7297">
        <ele>744</ele>
        <time>2018-05-17T21:17:49Z</time>
      </trkpt>
      <trkpt lat="44.41887" lon="5.72986">
        <ele>743</ele>
        <time>2018-05-17T21:18:49Z</time>
      </trkpt>
      <trkpt lat="44.41877" lon="5.72995">
        <ele>742</ele>
        <time>2018-05-17T21:19:49Z</time>
      </trkpt>
      <trkpt lat="44.4187" lon="5.73002">
        <ele>741</ele>
        <time>2018-05-17T21:20:49Z</time>
      </trkpt>
      <trkpt lat="44.41853" lon="5.73016">
        <ele>740</ele>
        <time>2018-05-17T21:21:49Z</time>
      </trkpt>
      <trkpt lat="44.41841" lon="5.73034">
        <ele>739</ele>
        <time>2018-05-17T21:22:49Z</time>
      </trkpt>
      <trkpt lat="44.41827" lon="5.73051">
        <ele>739</ele>
        <time>2018-05-17T21:23:49Z</time>
      </trkpt>
      <trkpt lat="44.41811" lon="5.73067">
        <ele>739</ele>
        <time>2018-05-17T21:24:49Z</time>
      </trkpt>
      <trkpt lat="44.41797" lon="5.73083">
        <ele>738</ele>
        <time>2018-05-17T21:25:49Z</time>
      </trkpt>
      <trkpt lat="44.41786" lon="5.73103">
        <ele>739</ele>
        <time>2018-05-17T21:26:49Z</time>
      </trkpt>
      <trkpt lat="44.41771" lon="5.73118">
        <ele>739</ele>
        <time>2018-05-17T21:27:49Z</time>
      </trkpt>
      <trkpt lat="44.41755" lon="5.73132">
        <ele>739</ele>
        <time>2018-05-17T21:28:49Z</time>
      </trkpt>
      <trkpt lat="44.4174" lon="5.73149">
        <ele>739</ele>
        <time>2018-05-17T21:29:49Z</time>
      </trkpt>
      <trkpt lat="44.41726" lon="5.73164">
        <ele>738</ele>
        <time>2018-05-17T21:30:49Z</time>
      </trkpt>
      <trkpt lat="44.41712" lon="5.7318">
        <ele>738</ele>
        <time>2018-05-17T21:31:49Z</time>
      </trkpt>
      <trkpt lat="44.41702" lon="5.73198">
        <ele>739</ele>
        <time>2018-05-17T21:32:49Z</time>
      </trkpt>
      <trkpt lat="44.41685" lon="5.73203">
        <ele>738</ele>
        <time>2018-05-17T21:33:49Z</time>
      </trkpt>
      <trkpt lat="44.41647" lon="5.73203">
        <ele>733</ele>
        <time>2018-05-17T21:34:49Z</time>
      </trkpt>
      <trkpt lat="44.41628" lon="5.73203">
        <ele>731</ele>
        <time>2018-05-17T21:35:49Z</time>
      </trkpt>
      <trkpt lat="44.41616" lon="5.73215">
        <ele>730</ele>
        <time>2018-05-17T21:36:49Z</time>
      </trkpt>
      <trkpt lat="44.41607" lon="5.73237">
        <ele>731</ele>
        <time>2018-05-17T21:37:49Z</time>
      </trkpt>
      <trkpt lat="44.41596" lon="5.73259">
        <ele>730</ele>
        <time>2018-05-17T21:38:49Z</time>
      </trkpt>
      <trkpt lat="44.41585" lon="5.73282">
        <ele>728</ele>
        <time>2018-05-17T21:39:49Z</time>
      </trkpt>
      <trkpt lat="44.41578" lon="5.73306">
        <ele>726</ele>
        <time>2018-05-17T21:40:49Z</time>
      </trkpt>
      <trkpt lat="44.41569" lon="5.73329">
        <ele>724</ele>
        <time>2018-05-17T21:41:49Z</time>
      </trkpt>
      <trkpt lat="44.41558" lon="5.73351">
        <ele>723</ele>
        <time>2018-05-17T21:42:49Z</time>
      </trkpt>
      <trkpt lat="44.41548" lon="5.73371">
        <ele>722</ele>
        <time>2018-05-17T21:43:49Z</time>
      </trkpt>
      <trkpt lat="44.41539" lon="5.73392">
        <ele>720</ele>
        <time>2018-05-17T21:44:49Z</time>
      </trkpt>
      <trkpt lat="44.41524" lon="5.7341">
        <ele>718</ele>
        <time>2018-05-17T21:45:49Z</time>
      </trkpt>
      <trkpt lat="44.41511" lon="5.73426">
        <ele>717</ele>
        <time>2018-05-17T21:46:49Z</time>
      </trkpt>
      <trkpt lat="44.415" lon="5.73444">
        <ele>717</ele>
        <time>2018-05-17T21:47:49Z</time>
      </trkpt>
      <trkpt lat="44.4149" lon="5.73466">
        <ele>717</ele>
        <time>2018-05-17T21:48:49Z</time>
      </trkpt>
      <trkpt lat="44.41468" lon="5.73506">
        <ele>716</ele>
        <time>2018-05-17T21:49:49Z</time>
      </trkpt>
      <trkpt lat="44.41465" lon="5.73529">
        <ele>716</ele>
        <time>2018-05-17T21:50:49Z</time>
      </trkpt>
      <trkpt lat="44.41461" lon="5.73551">
        <ele>716</ele>
        <time>2018-05-17T21:51:49Z</time>
      </trkpt>
      <trkpt lat="44.41447" lon="5.73568">
        <ele>715</ele>
        <time>2018-05-17T21:52:49Z</time>
      </trkpt>
      <trkpt lat="44.41435" lon="5.73588">
        <ele>714</ele>
        <time>2018-05-17T21:53:49Z</time>
      </trkpt>
      <trkpt lat="44.41421" lon="5.73607">
        <ele>713</ele>
        <time>2018-05-17T21:54:49Z</time>
      </trkpt>
      <trkpt lat="44.41409" lon="5.73627">
        <ele>713</ele>
        <time>2018-05-17T21:55:49Z</time>
      </trkpt>
      <trkpt lat="44.41393" lon="5.7364">
        <ele>713</ele>
        <time>2018-05-17T21:56:49Z</time>
      </trkpt>
      <trkpt lat="44.41387" lon="5.73659">
        <ele>714</ele>
        <time>2018-05-17T21:57:49Z</time>
      </trkpt>
      <trkpt lat="44.41373" lon="5.73679">
        <ele>712</ele>
        <time>2018-05-17T21:58:49Z</time>
      </trkpt>
      <trkpt lat="44.41356" lon="5.73695">
        <ele>710</ele>
        <time>2018-05-17T21:59:49Z</time>
      </trkpt>
      <trkpt lat="44.4135" lon="5.73716">
        <ele>709</ele>
        <time>2018-05-17T22:00:49Z</time>
      </trkpt>
      <trkpt lat="44.41356" lon="5.7373">
        <ele>710</ele>
        <time>2018-05-17T22:01:49Z</time>
      </trkpt>
      <trkpt lat="44.41363" lon="5.73753">
        <ele>710</ele>
        <time>2018-05-17T22:02:49Z</time>
      </trkpt>
      <trkpt lat="44.41372" lon="5.73774">
        <ele>711</ele>
        <time>2018-05-17T22:03:49Z</time>
      </trkpt>
      <trkpt lat="44.41373" lon="5.73774">
        <ele>711</ele>
        <time>2018-05-17T22:04:49Z</time>
      </trkpt>
      <trkpt lat="44.41373" lon="5.73775">
        <ele>711</ele>
        <time>2018-05-17T22:05:49Z</time>
      </trkpt>
      <trkpt lat="44.41373" lon="5.73776">
        <ele>711</ele>
        <time>2018-05-17T22:06:49Z</time>
      </trkpt>
      <trkpt lat="44.41379" lon="5.73786">
        <ele>711</ele>
        <time>2018-05-17T22:07:49Z</time>
      </trkpt>
      <trkpt lat="44.41393" lon="5.73803">
        <ele>712</ele>
        <time>2018-05-17T22:08:49Z</time>
      </trkpt>
      <trkpt lat="44.41406" lon="5.7382">
        <ele>712</ele>
        <time>2018-05-17T22:09:49Z</time>
      </trkpt>
      <trkpt lat="44.41405" lon="5.73847">
        <ele>713</ele>
        <time>2018-05-17T22:10:49Z</time>
      </trkpt>
      <trkpt lat="44.41395" lon="5.73861">
        <ele>714</ele>
        <time>2018-05-17T22:11:49Z</time>
      </trkpt>
      <trkpt lat="44.41398" lon="5.73876">
        <ele>716</ele>
        <time>2018-05-17T22:12:49Z</time>
      </trkpt>
      <trkpt lat="44.41402" lon="5.73893">
        <ele>718</ele>
        <time>2018-05-17T22:13:49Z</time>
      </trkpt>
      <trkpt lat="44.41389" lon="5.73915">
        <ele>719</ele>
        <time>2018-05-17T22:14:49Z</time>
      </trkpt>
      <trkpt lat="44.41382" lon="5.73938">
        <ele>720</ele>
        <time>2018-05-17T22:15:49Z</time>
      </trkpt>
      <trkpt lat="44.41375" lon="5.73962">
        <ele>721</ele>
        <time>2018-05-17T22:16:49Z</time>
      </trkpt>
      <trkpt lat="44.41355" lon="5.73965">
        <ele>717</ele>
        <time>2018-05-17T22:17:49Z</time>
      </trkpt>
      <trkpt lat="44.41335" lon="5.73963">
        <ele>712</ele>
        <time>2018-05-17T22:18:49Z</time>
      </trkpt>
      <trkpt lat="44.41318" lon="5.73973">
        <ele>710</ele>
        <time>2018-05-17T22:19:49Z</time>
      </trkpt>
      <trkpt lat="44.41309" lon="5.73988">
        <ele>709</ele>
        <time>2018-05-17T22:20:49Z</time>
      </trkpt>
      <trkpt lat="44.41299" lon="5.74009">
        <ele>710</ele>
        <time>2018-05-17T22:21:49Z</time>
      </trkpt>
      <trkpt lat="44.41284" lon="5.74056">
        <ele>713</ele>
        <time>2018-05-17T22:22:49Z</time>
      </trkpt>
      <trkpt lat="44.41269" lon="5.74091">
        <ele>716</ele>
        <time>2018-05-17T22:23:49Z</time>
      </trkpt>
      <trkpt lat="44.41262" lon="5.74109">
        <ele>719</ele>
        <time>2018-05-17T22:24:49Z</time>
      </trkpt>
      <trkpt lat="44.41255" lon="5.74124">
        <ele>722</ele>
        <time>2018-05-17T22:25:49Z</time>
      </trkpt>
      <trkpt lat="44.41245" lon="5.74162">
        <ele>729</ele>
        <time>2018-05-17T22:26:49Z</time>
      </trkpt>
      <trkpt lat="44.41249" lon="5.74191">
        <ele>732</ele>
        <time>2018-05-17T22:27:49Z</time>
      </trkpt>
      <trkpt lat="44.41256" lon="5.74208">
        <ele>733</ele>
        <time>2018-05-17T22:28:49Z</time>
      </trkpt>
      <trkpt lat="44.41177" lon="5.74288">
        <ele>728</ele>
        <time>2018-05-17T22:29:49Z</time>
      </trkpt>
      <trkpt lat="44.41174" lon="5.74294">
        <ele>728</ele>
        <time>2018-05-17T22:30:49Z</time>
      </trkpt>
      <trkpt lat="44.41165" lon="5.743">
        <ele>727</ele>
        <time>2018-05-17T22:31:49Z</time>
      </trkpt>
      <trkpt lat="44.41153" lon="5.74327">
        <ele>725</ele>
        <time>2018-05-17T22:32:49Z</time>
      </trkpt>
      <trkpt lat="44.41094" lon="5.74336">
        <ele>719</ele>
        <time>2018-05-17T22:33:49Z</time>
      </trkpt>
      <trkpt lat="44.41158" lon="5.74434">
        <ele>720</ele>
        <time>2018-05-17T22:34:49Z</time>
      </trkpt>
      <trkpt lat="44.41133" lon="5.74542">
        <ele>716</ele>
        <time>2018-05-17T22:35:49Z</time>
      </trkpt>
      <trkpt lat="44.41154" lon="5.74792">
        <ele>716</ele>
        <time>2018-05-17T22:36:49Z</time>
      </trkpt>
      <trkpt lat="44.41177" lon="5.74938">
        <ele>717</ele>
        <time>2018-05-17T22:37:49Z</time>
      </trkpt>
      <trkpt lat="44.41199" lon="5.75011">
        <ele>713</ele>
        <time>2018-05-17T22:38:49Z</time>
      </trkpt>
      <trkpt lat="44.41091" lon="5.75083">
        <ele>706</ele>
        <time>2018-05-17T22:39:49Z</time>
      </trkpt>
      <trkpt lat="44.40978" lon="5.75111">
        <ele>700</ele>
        <time>2018-05-17T22:40:49Z</time>
      </trkpt>
      <trkpt lat="44.40909" lon="5.7522">
        <ele>688</ele>
        <time>2018-05-17T22:41:49Z</time>
      </trkpt>
      <trkpt lat="44.40825" lon="5.75315">
        <ele>677</ele>
        <time>2018-05-17T22:42:49Z</time>
      </trkpt>
      <trkpt lat="44.40718" lon="5.75346">
        <ele>671</ele>
        <time>2018-05-17T22:43:49Z</time>
      </trkpt>
      <trkpt lat="44.40823" lon="5.75462">
        <ele>671</ele>
        <time>2018-05-17T22:44:49Z</time>
      </trkpt>
      <trkpt lat="44.40822" lon="5.75475">
        <ele>671</ele>
        <time>2018-05-17T22:45:49Z</time>
      </trkpt>
      <trkpt lat="44.40827" lon="5.75478">
        <ele>671</ele>
        <time>2018-05-17T22:46:49Z</time>
      </trkpt>
      <trkpt lat="44.4088" lon="5.75579">
        <ele>673</ele>
        <time>2018-05-17T22:47:49Z</time>
      </trkpt>
      <trkpt lat="44.40919" lon="5.75613">
        <ele>675</ele>
        <time>2018-05-17T22:48:49Z</time>
      </trkpt>
      <trkpt lat="44.40921" lon="5.75615">
        <ele>675</ele>
        <time>2018-05-17T22:49:49Z</time>
      </trkpt>
      <trkpt lat="44.40913" lon="5.75634">
        <ele>674</ele>
        <time>2018-05-17T22:50:49Z</time>
      </trkpt>
      <trkpt lat="44.40943" lon="5.75664">
        <ele>675</ele>
        <time>2018-05-17T22:51:49Z</time>
      </trkpt>
      <trkpt lat="44.40971" lon="5.75703">
        <ele>676</ele>
        <time>2018-05-17T22:52:49Z</time>
      </trkpt>
      <trkpt lat="44.40992" lon="5.75735">
        <ele>677</ele>
        <time>2018-05-17T22:53:49Z</time>
      </trkpt>
      <trkpt lat="44.41006" lon="5.75758">
        <ele>677</ele>
        <time>2018-05-17T22:54:49Z</time>
      </trkpt>
      <trkpt lat="44.41015" lon="5.75774">
        <ele>678</ele>
        <time>2018-05-17T22:55:49Z</time>
      </trkpt>
      <trkpt lat="44.41014" lon="5.75774">
        <ele>678</ele>
        <time>2018-05-17T22:56:49Z</time>
      </trkpt>
      <trkpt lat="44.41017" lon="5.75781">
        <ele>678</ele>
        <time>2018-05-17T22:57:49Z</time>
      </trkpt>
      <trkpt lat="44.41016" lon="5.75789">
        <ele>678</ele>
        <time>2018-05-17T22:58:49Z</time>
      </trkpt>
      <trkpt lat="44.40986" lon="5.75814">
        <ele>675</ele>
        <time>2018-05-17T22:59:49Z</time>
      </trkpt>
      <trkpt lat="44.4096" lon="5.75838">
        <ele>673</ele>
        <time>2018-05-17T23:00:49Z</time>
      </trkpt>
      <trkpt lat="44.40957" lon="5.75843">
        <ele>673</ele>
        <time>2018-05-17T23:01:49Z</time>
      </trkpt>
      <trkpt lat="44.40924" lon="5.75868">
        <ele>671</ele>
        <time>2018-05-17T23:02:49Z</time>
      </trkpt>
      <trkpt lat="44.40907" lon="5.75877">
        <ele>671</ele>
        <time>2018-05-17T23:03:49Z</time>
      </trkpt>
      <trkpt lat="44.40878" lon="5.75906">
        <ele>670</ele>
        <time>2018-05-17T23:04:49Z</time>
      </trkpt>
      <trkpt lat="44.40853" lon="5.75947">
        <ele>670</ele>
        <time>2018-05-17T23:05:49Z</time>
      </trkpt>
      <trkpt lat="44.40842" lon="5.75972">
        <ele>671</ele>
        <time>2018-05-17T23:06:49Z</time>
      </trkpt>
      <trkpt lat="44.40838" lon="5.76004">
        <ele>673</ele>
        <time>2018-05-17T23:07:49Z</time>
      </trkpt>
      <trkpt lat="44.40839" lon="5.76013">
        <ele>674</ele>
        <time>2018-05-17T23:08:49Z</time>
      </trkpt>
      <trkpt lat="44.40839" lon="5.76013">
        <ele>674</ele>
        <time>2018-05-17T23:09:49Z</time>
      </trkpt>
      <trkpt lat="44.4085" lon="5.76044">
        <ele>677</ele>
        <time>2018-05-17T23:10:49Z</time>
      </trkpt>
      <trkpt lat="44.40852" lon="5.76078">
        <ele>680</ele>
        <time>2018-05-17T23:11:49Z</time>
      </trkpt>
      <trkpt lat="44.40851" lon="5.76115">
        <ele>682</ele>
        <time>2018-05-17T23:12:49Z</time>
      </trkpt>
      <trkpt lat="44.40851" lon="5.7615">
        <ele>684</ele>
        <time>2018-05-17T23:13:49Z</time>
      </trkpt>
      <trkpt lat="44.40851" lon="5.76169">
        <ele>685</ele>
        <time>2018-05-17T23:14:49Z</time>
      </trkpt>
      <trkpt lat="44.4085" lon="5.76186">
        <ele>686</ele>
        <time>2018-05-17T23:15:49Z</time>
      </trkpt>
      <trkpt lat="44.40858" lon="5.76221">
        <ele>688</ele>
        <time>2018-05-17T23:16:49Z</time>
      </trkpt>
      <trkpt lat="44.40867" lon="5.76245">
        <ele>689</ele>
        <time>2018-05-17T23:17:49Z</time>
      </trkpt>
      <trkpt lat="44.40875" lon="5.76275">
        <ele>691</ele>
        <time>2018-05-17T23:18:49Z</time>
      </trkpt>
      <trkpt lat="44.40879" lon="5.76306">
        <ele>693</ele>
        <time>2018-05-17T23:19:49Z</time>
      </trkpt>
      <trkpt lat="44.4088" lon="5.76323">
        <ele>694</ele>
        <time>2018-05-17T23:20:49Z</time>
      </trkpt>
      <trkpt lat="44.40882" lon="5.76356">
        <ele>696</ele>
        <time>2018-05-17T23:21:49Z</time>
      </trkpt>
      <trkpt lat="44.40888" lon="5.76386">
        <ele>698</ele>
        <time>2018-05-17T23:22:49Z</time>
      </trkpt>
      <trkpt lat="44.40894" lon="5.76416">
        <ele>699</ele>
        <time>2018-05-17T23:23:49Z</time>
      </trkpt>
      <trkpt lat="44.40901" lon="5.76455">
        <ele>701</ele>
        <time>2018-05-17T23:24:49Z</time>
      </trkpt>
      <trkpt lat="44.4091" lon="5.76496">
        <ele>703</ele>
        <time>2018-05-17T23:25:49Z</time>
      </trkpt>
      <trkpt lat="44.4091" lon="5.76526">
        <ele>705</ele>
        <time>2018-05-17T23:26:49Z</time>
      </trkpt>
      <trkpt lat="44.4091" lon="5.76565">
        <ele>708</ele>
        <time>2018-05-17T23:27:49Z</time>
      </trkpt>
      <trkpt lat="44.40908" lon="5.76596">
        <ele>710</ele>
        <time>2018-05-17T23:28:49Z</time>
      </trkpt>
      <trkpt lat="44.40899" lon="5.76636">
        <ele>714</ele>
        <time>2018-05-17T23:29:49Z</time>
      </trkpt>
      <trkpt lat="44.40885" lon="5.76664">
        <ele>717</ele>
        <time>2018-05-17T23:30:49Z</time>
      </trkpt>
      <trkpt lat="44.40871" lon="5.76684">
        <ele>719</ele>
        <time>2018-05-17T23:31:49Z</time>
      </trkpt>
      <trkpt lat="44.40841" lon="5.76702">
        <ele>722</ele>
        <time>2018-05-17T23:32:49Z</time>
      </trkpt>
      <trkpt lat="44.40835" lon="5.76713">
        <ele>723</ele>
        <time>2018-05-17T23:33:49Z</time>
      </trkpt>
      <trkpt lat="44.40833" lon="5.7672">
        <ele>724</ele>
        <time>2018-05-17T23:34:49Z</time>
      </trkpt>
      <trkpt lat="44.40822" lon="5.76749">
        <ele>727</ele>
        <time>2018-05-17T23:35:49Z</time>
      </trkpt>
      <trkpt lat="44.40809" lon="5.76774">
        <ele>730</ele>
        <time>2018-05-17T23:36:49Z</time>
      </trkpt>
      <trkpt lat="44.40795" lon="5.76794">
        <ele>733</ele>
        <time>2018-05-17T23:37:49Z</time>
      </trkpt>
      <trkpt lat="44.40789" lon="5.7681">
        <ele>734</ele>
        <time>2018-05-17T23:38:49Z</time>
      </trkpt>
      <trkpt lat="44.40787" lon="5.76834">
        <ele>734</ele>
        <time>2018-05-17T23:39:49Z</time>
      </trkpt>
      <trkpt lat="44.40794" lon="5.76864">
        <ele>736</ele>
        <time>2018-05-17T23:40:49Z</time>
      </trkpt>
      <trkpt lat="44.40815" lon="5.76884">
        <ele>736</ele>
        <time>2018-05-17T23:41:49Z</time>
      </trkpt>
      <trkpt lat="44.40834" lon="5.76902">
        <ele>736</ele>
        <time>2018-05-17T23:42:49Z</time>
      </trkpt>
      <trkpt lat="44.40849" lon="5.76931">
        <ele>736</ele>
        <time>2018-05-17T23:43:49Z</time>
      </trkpt>
      <trkpt lat="44.40859" lon="5.7697">
        <ele>736</ele>
        <time>2018-05-17T23:44:49Z</time>
      </trkpt>
      <trkpt lat="44.40862" lon="5.76994">
        <ele>737</ele>
        <time>2018-05-17T23:45:49Z</time>
      </trkpt>
      <trkpt lat="44.40865" lon="5.77022">
        <ele>738</ele>
        <time>2018-05-17T23:46:49Z</time>
      </trkpt>
      <trkpt lat="44.40877" lon="5.77052">
        <ele>738</ele>
        <time>2018-05-17T23:47:49Z</time>
      </trkpt>
      <trkpt lat="44.40891" lon="5.77089">
        <ele>737</ele>
        <time>2018-05-17T23:48:49Z</time>
      </trkpt>
      <trkpt lat="44.40904" lon="5.77131">
        <ele>738</ele>
        <time>2018-05-17T23:49:49Z</time>
      </trkpt>
      <trkpt lat="44.40913" lon="5.7717">
        <ele>739</ele>
        <time>2018-05-17T23:50:49Z</time>
      </trkpt>
      <trkpt lat="44.40922" lon="5.77213">
        <ele>739</ele>
        <time>2018-05-17T23:51:49Z</time>
      </trkpt>
      <trkpt lat="44.40924" lon="5.77252">
        <ele>740</ele>
        <time>2018-05-17T23:52:49Z</time>
      </trkpt>
      <trkpt lat="44.40925" lon="5.77297">
        <ele>739</ele>
        <time>2018-05-17T23:53:49Z</time>
      </trkpt>
      <trkpt lat="44.40932" lon="5.77324">
        <ele>737</ele>
        <time>2018-05-17T23:54:49Z</time>
      </trkpt>
      <trkpt lat="44.40955" lon="5.77327">
        <ele>734</ele>
        <time>2018-05-17T23:55:49Z</time>
      </trkpt>
      <trkpt lat="44.40983" lon="5.77322">
        <ele>731</ele>
        <time>2018-05-17T23:56:49Z</time>
      </trkpt>
      <trkpt lat="44.41008" lon="5.77297">
        <ele>728</ele>
        <time>2018-05-17T23:57:49Z</time>
      </trkpt>
      <trkpt lat="44.41038" lon="5.77277">
        <ele>725</ele>
        <time>2018-05-17T23:58:49Z</time>
      </trkpt>
      <trkpt lat="44.41064" lon="5.77267">
        <ele>723</ele>
        <time>2018-05-17T23:59:49Z</time>
      </trkpt>
      <trkpt lat="44.411" lon="5.77262">
        <ele>720</ele>
        <time>2018-05-18T00:00:49Z</time>
      </trkpt>
      <trkpt lat="44.4113" lon="5.77265">
        <ele>717</ele>
        <time>2018-05-18T00:01:49Z</time>
      </trkpt>
      <trkpt lat="44.4116" lon="5.77254">
        <ele>714</ele>
        <time>2018-05-18T00:02:49Z</time>
      </trkpt>
      <trkpt lat="44.41181" lon="5.7724">
        <ele>711</ele>
        <time>2018-05-18T00:03:49Z</time>
      </trkpt>
      <trkpt lat="44.41219" lon="5.77238">
        <ele>706</ele>
        <time>2018-05-18T00:04:49Z</time>
      </trkpt>
      <trkpt lat="44.41228" lon="5.77236">
        <ele>705</ele>
        <time>2018-05-18T00:05:49Z</time>
      </trkpt>
      <trkpt lat="44.41256" lon="5.77231">
        <ele>701</ele>
        <time>2018-05-18T00:06:49Z</time>
      </trkpt>
      <trkpt lat="44.41273" lon="5.77261">
        <ele>700</ele>
        <time>2018-05-18T00:07:49Z</time>
      </trkpt>
      <trkpt lat="44.41284" lon="5.77286">
        <ele>699</ele>
        <time>2018-05-18T00:08:49Z</time>
      </trkpt>
      <trkpt lat="44.41295" lon="5.77307">
        <ele>698</ele>
        <time>2018-05-18T00:09:49Z</time>
      </trkpt>
      <trkpt lat="44.4132" lon="5.77337">
        <ele>696</ele>
        <time>2018-05-18T00:10:49Z</time>
      </trkpt>
      <trkpt lat="44.41351" lon="5.77359">
        <ele>695</ele>
        <time>2018-05-18T00:11:49Z</time>
      </trkpt>
      <trkpt lat="44.4138" lon="5.77375">
        <ele>694</ele>
        <time>2018-05-18T00:12:49Z</time>
      </trkpt>
      <trkpt lat="44.41402" lon="5.77411">
        <ele>694</ele>
        <time>2018-05-18T00:13:49Z</time>
      </trkpt>
      <trkpt lat="44.41421" lon="5.77441">
        <ele>693</ele>
        <time>2018-05-18T00:14:49Z</time>
      </trkpt>
      <trkpt lat="44.41441" lon="5.77464">
        <ele>693</ele>
        <time>2018-05-18T00:15:49Z</time>
      </trkpt>
      <trkpt lat="44.41466" lon="5.77495">
        <ele>693</ele>
        <time>2018-05-18T00:16:49Z</time>
      </trkpt>
      <trkpt lat="44.41495" lon="5.7755">
        <ele>694</ele>
        <time>2018-05-18T00:17:49Z</time>
      </trkpt>
      <trkpt lat="44.41518" lon="5.77579">
        <ele>695</ele>
        <time>2018-05-18T00:18:49Z</time>
      </trkpt>
      <trkpt lat="44.41528" lon="5.77591">
        <ele>695</ele>
        <time>2018-05-18T00:19:49Z</time>
      </trkpt>
      <trkpt lat="44.41524" lon="5.77591">
        <ele>695</ele>
        <time>2018-05-18T00:20:49Z</time>
      </trkpt>
      <trkpt lat="44.41524" lon="5.7759">
        <ele>695</ele>
        <time>2018-05-18T00:21:49Z</time>
      </trkpt>
      <trkpt lat="44.41526" lon="5.77585">
        <ele>695</ele>
        <time>2018-05-18T00:22:49Z</time>
      </trkpt>
      <trkpt lat="44.41536" lon="5.77586">
        <ele>695</ele>
        <time>2018-05-18T00:23:49Z</time>
      </trkpt>
      <trkpt lat="44.41556" lon="5.77608">
        <ele>696</ele>
        <time>2018-05-18T00:24:49Z</time>
      </trkpt>
      <trkpt lat="44.41572" lon="5.77632">
        <ele>696</ele>
        <time>2018-05-18T00:25:49Z</time>
      </trkpt>
      <trkpt lat="44.41585" lon="5.77658">
        <ele>697</ele>
        <time>2018-05-18T00:26:49Z</time>
      </trkpt>
      <trkpt lat="44.41599" lon="5.77679">
        <ele>697</ele>
        <time>2018-05-18T00:27:49Z</time>
      </trkpt>
      <trkpt lat="44.416" lon="5.77681">
        <ele>697</ele>
        <time>2018-05-18T00:28:49Z</time>
      </trkpt>
      <trkpt lat="44.41613" lon="5.77679">
        <ele>698</ele>
        <time>2018-05-18T00:29:49Z</time>
      </trkpt>
      <trkpt lat="44.41622" lon="5.77681">
        <ele>698</ele>
        <time>2018-05-18T00:30:49Z</time>
      </trkpt>
      <trkpt lat="44.41624" lon="5.77683">
        <ele>698</ele>
        <time>2018-05-18T00:31:49Z</time>
      </trkpt>
      <trkpt lat="44.41635" lon="5.77726">
        <ele>698</ele>
        <time>2018-05-18T00:32:49Z</time>
      </trkpt>
      <trkpt lat="44.41658" lon="5.77759">
        <ele>699</ele>
        <time>2018-05-18T00:33:49Z</time>
      </trkpt>
      <trkpt lat="44.41694" lon="5.77788">
        <ele>700</ele>
        <time>2018-05-18T00:34:49Z</time>
      </trkpt>
      <trkpt lat="44.41716" lon="5.77816">
        <ele>701</ele>
        <time>2018-05-18T00:35:49Z</time>
      </trkpt>
      <trkpt lat="44.41724" lon="5.77841">
        <ele>701</ele>
        <time>2018-05-18T00:36:49Z</time>
      </trkpt>
      <trkpt lat="44.4173" lon="5.77878">
        <ele>702</ele>
        <time>2018-05-18T00:37:49Z</time>
      </trkpt>
      <trkpt lat="44.41736" lon="5.77922">
        <ele>703</ele>
        <time>2018-05-18T00:38:49Z</time>
      </trkpt>
      <trkpt lat="44.41768" lon="5.7796">
        <ele>704</ele>
        <time>2018-05-18T00:39:49Z</time>
      </trkpt>
      <trkpt lat="44.41801" lon="5.77988">
        <ele>705</ele>
        <time>2018-05-18T00:40:49Z</time>
      </trkpt>
      <trkpt lat="44.41833" lon="5.78017">
        <ele>706</ele>
        <time>2018-05-18T00:41:49Z</time>
      </trkpt>
      <trkpt lat="44.4187" lon="5.78056">
        <ele>709</ele>
        <time>2018-05-18T00:42:49Z</time>
      </trkpt>
      <trkpt lat="44.41881" lon="5.78072">
        <ele>709</ele>
        <time>2018-05-18T00:43:49Z</time>
      </trkpt>
      <trkpt lat="44.41895" lon="5.78096">
        <ele>711</ele>
        <time>2018-05-18T00:44:49Z</time>
      </trkpt>
      <trkpt lat="44.41911" lon="5.78125">
        <ele>712</ele>
        <time>2018-05-18T00:45:49Z</time>
      </trkpt>
      <trkpt lat="44.41937" lon="5.78162">
        <ele>714</ele>
        <time>2018-05-18T00:46:49Z</time>
      </trkpt>
      <trkpt lat="44.41956" lon="5.78198">
        <ele>716</ele>
        <time>2018-05-18T00:47:49Z</time>
      </trkpt>
      <trkpt lat="44.41962" lon="5.78234">
        <ele>717</ele>
        <time>2018-05-18T00:48:49Z</time>
      </trkpt>
      <trkpt lat="44.41965" lon="5.78238">
        <ele>717</ele>
        <time>2018-05-18T00:49:49Z</time>
      </trkpt>
      <trkpt lat="44.41995" lon="5.78237">
        <ele>719</ele>
        <time>2018-05-18T00:50:49Z</time>
      </trkpt>
      <trkpt lat="44.4201" lon="5.78249">
        <ele>720</ele>
        <time>2018-05-18T00:51:49Z</time>
      </trkpt>
      <trkpt lat="44.42013" lon="5.78279">
        <ele>721</ele>
        <time>2018-05-18T00:52:49Z</time>
      </trkpt>
      <trkpt lat="44.42014" lon="5.78323">
        <ele>723</ele>
        <time>2018-05-18T00:53:49Z</time>
      </trkpt>
      <trkpt lat="44.4201" lon="5.78382">
        <ele>726</ele>
        <time>2018-05-18T00:54:49Z</time>
      </trkpt>
      <trkpt lat="44.41993" lon="5.78423">
        <ele>726</ele>
        <time>2018-05-18T00:55:49Z</time>
      </trkpt>
      <trkpt lat="44.41986" lon="5.7847">
        <ele>728</ele>
        <time>2018-05-18T00:56:49Z</time>
      </trkpt>
      <trkpt lat="44.41984" lon="5.78518">
        <ele>730</ele>
        <time>2018-05-18T00:57:49Z</time>
      </trkpt>
      <trkpt lat="44.41963" lon="5.78539">
        <ele>729</ele>
        <time>2018-05-18T00:58:49Z</time>
      </trkpt>
      <trkpt lat="44.41945" lon="5.7856">
        <ele>729</ele>
        <time>2018-05-18T00:59:49Z</time>
      </trkpt>
      <trkpt lat="44.41943" lon="5.78564">
        <ele>729</ele>
        <time>2018-05-18T01:00:49Z</time>
      </trkpt>
      <trkpt lat="44.41943" lon="5.78573">
        <ele>729</ele>
        <time>2018-05-18T01:01:49Z</time>
      </trkpt>
      <trkpt lat="44.41953" lon="5.78595">
        <ele>731</ele>
        <time>2018-05-18T01:02:49Z</time>
      </trkpt>
      <trkpt lat="44.41962" lon="5.78645">
        <ele>732</ele>
        <time>2018-05-18T01:03:49Z</time>
      </trkpt>
      <trkpt lat="44.41977" lon="5.78671">
        <ele>735</ele>
        <time>2018-05-18T01:04:49Z</time>
      </trkpt>
      <trkpt lat="44.41988" lon="5.78689">
        <ele>735</ele>
        <time>2018-05-18T01:05:49Z</time>
      </trkpt>
      <trkpt lat="44.42003" lon="5.78722">
        <ele>736</ele>
        <time>2018-05-18T01:06:49Z</time>
      </trkpt>
      <trkpt lat="44.42001" lon="5.78758">
        <ele>734</ele>
        <time>2018-05-18T01:07:49Z</time>
      </trkpt>
      <trkpt lat="44.4199" lon="5.78813">
        <ele>734</ele>
        <time>2018-05-18T01:08:49Z</time>
      </trkpt>
      <trkpt lat="44.41988" lon="5.78859">
        <ele>733</ele>
        <time>2018-05-18T01:09:49Z</time>
      </trkpt>
      <trkpt lat="44.41984" lon="5.78911">
        <ele>733</ele>
        <time>2018-05-18T01:10:49Z</time>
      </trkpt>
      <trkpt lat="44.41983" lon="5.78955">
        <ele>732</ele>
        <time>2018-05-18T01:11:49Z</time>
      </trkpt>
      <trkpt lat="44.42009" lon="5.79007">
        <ele>734</ele>
        <time>2018-05-18T01:12:49Z</time>
      </trkpt>
      <trkpt lat="44.42015" lon="5.79025">
        <ele>734</ele>
        <time>2018-05-18T01:13:49Z</time>
      </trkpt>
      <trkpt lat="44.4202" lon="5.79074">
        <ele>734</ele>
        <time>2018-05-18T01:14:49Z</time>
      </trkpt>
      <trkpt lat="44.42019" lon="5.79114">
        <ele>733</ele>
        <time>2018-05-18T01:15:49Z</time>
      </trkpt>
      <trkpt lat="44.42008" lon="5.79145">
        <ele>731</ele>
        <time>2018-05-18T01:16:49Z</time>
      </trkpt>
      <trkpt lat="44.41977" lon="5.79175">
        <ele>727</ele>
        <time>2018-05-18T01:17:49Z</time>
      </trkpt>
      <trkpt lat="44.41943" lon="5.79206">
        <ele>725</ele>
        <time>2018-05-18T01:18:49Z</time>
      </trkpt>
      <trkpt lat="44.41921" lon="5.79223">
        <ele>724</ele>
        <time>2018-05-18T01:19:49Z</time>
      </trkpt>
      <trkpt lat="44.41898" lon="5.79235">
        <ele>723</ele>
        <time>2018-05-18T01:20:49Z</time>
      </trkpt>
      <trkpt lat="44.4187" lon="5.79244">
        <ele>723</ele>
        <time>2018-05-18T01:21:49Z</time>
      </trkpt>
      <trkpt lat="44.41834" lon="5.7923">
        <ele>722</ele>
        <time>2018-05-18T01:22:49Z</time>
      </trkpt>
      <trkpt lat="44.41792" lon="5.79221">
        <ele>722</ele>
        <time>2018-05-18T01:23:49Z</time>
      </trkpt>
      <trkpt lat="44.4174" lon="5.79224">
        <ele>722</ele>
        <time>2018-05-18T01:24:49Z</time>
      </trkpt>
      <trkpt lat="44.41698" lon="5.79227">
        <ele>720</ele>
        <time>2018-05-18T01:25:49Z</time>
      </trkpt>
      <trkpt lat="44.41665" lon="5.79228">
        <ele>719</ele>
        <time>2018-05-18T01:26:49Z</time>
      </trkpt>
      <trkpt lat="44.41633" lon="5.79235">
        <ele>718</ele>
        <time>2018-05-18T01:27:49Z</time>
      </trkpt>
      <trkpt lat="44.41624" lon="5.7924">
        <ele>718</ele>
        <time>2018-05-18T01:28:49Z</time>
      </trkpt>
      <trkpt lat="44.4159" lon="5.79262">
        <ele>717</ele>
        <time>2018-05-18T01:29:49Z</time>
      </trkpt>
      <trkpt lat="44.41551" lon="5.79289">
        <ele>718</ele>
        <time>2018-05-18T01:30:49Z</time>
      </trkpt>
      <trkpt lat="44.4152" lon="5.79304">
        <ele>718</ele>
        <time>2018-05-18T01:31:49Z</time>
      </trkpt>
      <trkpt lat="44.41485" lon="5.79309">
        <ele>719</ele>
        <time>2018-05-18T01:32:49Z</time>
      </trkpt>
      <trkpt lat="44.41457" lon="5.7931">
        <ele>721</ele>
        <time>2018-05-18T01:33:49Z</time>
      </trkpt>
      <trkpt lat="44.41431" lon="5.79311">
        <ele>722</ele>
        <time>2018-05-18T01:34:49Z</time>
      </trkpt>
      <trkpt lat="44.41404" lon="5.79317">
        <ele>723</ele>
        <time>2018-05-18T01:35:49Z</time>
      </trkpt>
      <trkpt lat="44.41369" lon="5.79315">
        <ele>724</ele>
        <time>2018-05-18T01:36:49Z</time>
      </trkpt>
      <trkpt lat="44.41349" lon="5.79313">
        <ele>725</ele>
        <time>2018-05-18T01:37:49Z</time>
      </trkpt>
      <trkpt lat="44.41327" lon="5.79316">
        <ele>726</ele>
        <time>2018-05-18T01:38:49Z</time>
      </trkpt>
      <trkpt lat="44.41289" lon="5.79309">
        <ele>728</ele>
        <time>2018-05-18T01:39:49Z</time>
      </trkpt>
      <trkpt lat="44.4122" lon="5.79298">
        <ele>732</ele>
        <time>2018-05-18T01:40:49Z</time>
      </trkpt>
      <trkpt lat="44.41194" lon="5.79306">
        <ele>733</ele>
        <time>2018-05-18T01:41:49Z</time>
      </trkpt>
      <trkpt lat="44.41166" lon="5.79324">
        <ele>735</ele>
        <time>2018-05-18T01:42:49Z</time>
      </trkpt>
      <trkpt lat="44.4114" lon="5.79344">
        <ele>738</ele>
        <time>2018-05-18T01:43:49Z</time>
      </trkpt>
      <trkpt lat="44.41119" lon="5.79362">
        <ele>740</ele>
        <time>2018-05-18T01:44:49Z</time>
      </trkpt>
      <trkpt lat="44.41088" lon="5.79376">
        <ele>743</ele>
        <time>2018-05-18T01:45:49Z</time>
      </trkpt>
      <trkpt lat="44.41062" lon="5.79384">
        <ele>746</ele>
        <time>2018-05-18T01:46:49Z</time>
      </trkpt>
      <trkpt lat="44.41034" lon="5.79373">
        <ele>748</ele>
        <time>2018-05-18T01:47:49Z</time>
      </trkpt>
      <trkpt lat="44.41017" lon="5.79359">
        <ele>750</ele>
        <time>2018-05-18T01:48:49Z</time>
      </trkpt>
      <trkpt lat="44.40991" lon="5.7935">
        <ele>754</ele>
        <time>2018-05-18T01:49:49Z</time>
      </trkpt>
      <trkpt lat="44.4096" lon="5.79355">
        <ele>757</ele>
        <time>2018-05-18T01:50:49Z</time>
      </trkpt>
      <trkpt lat="44.40933" lon="5.79365">
        <ele>760</ele>
        <time>2018-05-18T01:51:49Z</time>
      </trkpt>
      <trkpt lat="44.40904" lon="5.79369">
        <ele>763</ele>
        <time>2018-05-18T01:52:49Z</time>
      </trkpt>
      <trkpt lat="44.40881" lon="5.79374">
        <ele>765</ele>
        <time>2018-05-18T01:53:49Z</time>
      </trkpt>
      <trkpt lat="44.40858" lon="5.79384">
        <ele>766</ele>
        <time>2018-05-18T01:54:49Z</time>
      </trkpt>
      <trkpt lat="44.40828" lon="5.79378">
        <ele>769</ele>
        <time>2018-05-18T01:55:49Z</time>
      </trkpt>
      <trkpt lat="44.40783" lon="5.79375">
        <ele>773</ele>
        <time>2018-05-18T01:56:49Z</time>
      </trkpt>
      <trkpt lat="44.40758" lon="5.79374">
        <ele>775</ele>
        <time>2018-05-18T01:57:49Z</time>
      </trkpt>
      <trkpt lat="44.40732" lon="5.79368">
        <ele>778</ele>
        <time>2018-05-18T01:58:49Z</time>
      </trkpt>
      <trkpt lat="44.4071" lon="5.79361">
        <ele>780</ele>
        <time>2018-05-18T01:59:49Z</time>
      </trkpt>
      <trkpt lat="44.40691" lon="5.79346">
        <ele>782</ele>
        <time>2018-05-18T02:00:49Z</time>
      </trkpt>
      <trkpt lat="44.40671" lon="5.79325">
        <ele>785</ele>
        <time>2018-05-18T02:01:49Z</time>
      </trkpt>
      <trkpt lat="44.40642" lon="5.79316">
        <ele>789</ele>
        <time>2018-05-18T02:02:49Z</time>
      </trkpt>
      <trkpt lat="44.40627" lon="5.79305">
        <ele>792</ele>
        <time>2018-05-18T02:03:49Z</time>
      </trkpt>
      <trkpt lat="44.4061" lon="5.79299">
        <ele>795</ele>
        <time>2018-05-18T02:04:49Z</time>
      </trkpt>
      <trkpt lat="44.4059" lon="5.79294">
        <ele>797</ele>
        <time>2018-05-18T02:05:49Z</time>
      </trkpt>
      <trkpt lat="44.40568" lon="5.79289">
        <ele>800</ele>
        <time>2018-05-18T02:06:49Z</time>
      </trkpt>
      <trkpt lat="44.40547" lon="5.79278">
        <ele>802</ele>
        <time>2018-05-18T02:07:49Z</time>
      </trkpt>
      <trkpt lat="44.40511" lon="5.79273">
        <ele>806</ele>
        <time>2018-05-18T02:08:49Z</time>
      </trkpt>
      <trkpt lat="44.40489" lon="5.79264">
        <ele>809</ele>
        <time>2018-05-18T02:09:49Z</time>
      </trkpt>
      <trkpt lat="44.40469" lon="5.79261">
        <ele>812</ele>
        <time>2018-05-18T02:10:49Z</time>
      </trkpt>
      <trkpt lat="44.40442" lon="5.79261">
        <ele>816</ele>
        <time>2018-05-18T02:11:49Z</time>
      </trkpt>
      <trkpt lat="44.40418" lon="5.79265">
        <ele>819</ele>
        <time>2018-05-18T02:12:49Z</time>
      </trkpt>
      <trkpt lat="44.40399" lon="5.79274">
        <ele>819</ele>
        <time>2018-05-18T02:13:49Z</time>
      </trkpt>
      <trkpt lat="44.40373" lon="5.79282">
        <ele>821</ele>
        <time>2018-05-18T02:14:49Z</time>
      </trkpt>
      <trkpt lat="44.40349" lon="5.7927">
        <ele>824</ele>
        <time>2018-05-18T02:15:49Z</time>
      </trkpt>
      <trkpt lat="44.40332" lon="5.79252">
        <ele>827</ele>
        <time>2018-05-18T02:16:49Z</time>
      </trkpt>
      <trkpt lat="44.4032" lon="5.79238">
        <ele>830</ele>
        <time>2018-05-18T02:17:49Z</time>
      </trkpt>
      <trkpt lat="44.40311" lon="5.79211">
        <ele>834</ele>
        <time>2018-05-18T02:18:49Z</time>
      </trkpt>
      <trkpt lat="44.40297" lon="5.7919">
        <ele>838</ele>
        <time>2018-05-18T02:19:49Z</time>
      </trkpt>
      <trkpt lat="44.40266" lon="5.79195">
        <ele>840</ele>
        <time>2018-05-18T02:20:49Z</time>
      </trkpt>
      <trkpt lat="44.40231" lon="5.79197">
        <ele>846</ele>
        <time>2018-05-18T02:21:49Z</time>
      </trkpt>
      <trkpt lat="44.40222" lon="5.79195">
        <ele>848</ele>
        <time>2018-05-18T02:22:49Z</time>
      </trkpt>
      <trkpt lat="44.402" lon="5.79197">
        <ele>851</ele>
        <time>2018-05-18T02:23:49Z</time>
      </trkpt>
      <trkpt lat="44.40175" lon="5.79208">
        <ele>854</ele>
        <time>2018-05-18T02:24:49Z</time>
      </trkpt>
      <trkpt lat="44.40156" lon="5.79227">
        <ele>856</ele>
        <time>2018-05-18T02:25:49Z</time>
      </trkpt>
      <trkpt lat="44.40146" lon="5.79232">
        <ele>857</ele>
        <time>2018-05-18T02:26:49Z</time>
      </trkpt>
      <trkpt lat="44.40125" lon="5.79249">
        <ele>860</ele>
        <time>2018-05-18T02:27:49Z</time>
      </trkpt>
      <trkpt lat="44.40104" lon="5.79258">
        <ele>864</ele>
        <time>2018-05-18T02:28:49Z</time>
      </trkpt>
      <trkpt lat="44.40098" lon="5.79259">
        <ele>865</ele>
        <time>2018-05-18T02:29:49Z</time>
      </trkpt>
      <trkpt lat="44.40089" lon="5.7926">
        <ele>867</ele>
        <time>2018-05-18T02:30:49Z</time>
      </trkpt>
      <trkpt lat="44.40073" lon="5.7927">
        <ele>873</ele>
        <time>2018-05-18T02:31:49Z</time>
      </trkpt>
      <trkpt lat="44.40063" lon="5.79288">
        <ele>876</ele>
        <time>2018-05-18T02:32:49Z</time>
      </trkpt>
      <trkpt lat="44.40057" lon="5.79308">
        <ele>878</ele>
        <time>2018-05-18T02:33:49Z</time>
      </trkpt>
      <trkpt lat="44.40051" lon="5.79329">
        <ele>879</ele>
        <time>2018-05-18T02:34:49Z</time>
      </trkpt>
      <trkpt lat="44.40051" lon="5.79333">
        <ele>878</ele>
        <time>2018-05-18T02:35:49Z</time>
      </trkpt>
      <trkpt lat="44.4005" lon="5.79348">
        <ele>879</ele>
        <time>2018-05-18T02:36:49Z</time>
      </trkpt>
      <trkpt lat="44.40053" lon="5.79368">
        <ele>878</ele>
        <time>2018-05-18T02:37:49Z</time>
      </trkpt>
      <trkpt lat="44.40046" lon="5.79394">
        <ele>881</ele>
        <time>2018-05-18T02:38:49Z</time>
      </trkpt>
      <trkpt lat="44.40036" lon="5.7941">
        <ele>885</ele>
        <time>2018-05-18T02:39:49Z</time>
      </trkpt>
      <trkpt lat="44.40032" lon="5.79419">
        <ele>886</ele>
        <time>2018-05-18T02:40:49Z</time>
      </trkpt>
      <trkpt lat="44.40029" lon="5.79424">
        <ele>888</ele>
        <time>2018-05-18T02:41:49Z</time>
      </trkpt>
      <trkpt lat="44.40024" lon="5.79432">
        <ele>890</ele>
        <time>2018-05-18T02:42:49Z</time>
      </trkpt>
      <trkpt lat="44.40022" lon="5.79437">
        <ele>891</ele>
        <time>2018-05-18T02:43:49Z</time>
      </trkpt>
      <trkpt lat="44.40018" lon="5.79442">
        <ele>892</ele>
        <time>2018-05-18T02:44:49Z</time>
      </trkpt>
      <trkpt lat="44.40013" lon="5.79447">
        <ele>894</ele>
        <time>2018-05-18T02:45:49Z</time>
      </trkpt>
      <trkpt lat="44.40011" lon="5.79452">
        <ele>895</ele>
        <time>2018-05-18T02:46:49Z</time>
      </trkpt>
      <trkpt lat="44.40008" lon="5.79455">
        <ele>896</ele>
        <time>2018-05-18T02:47:49Z</time>
      </trkpt>
      <trkpt lat="44.3999" lon="5.79451">
        <ele>899</ele>
        <time>2018-05-18T02:48:49Z</time>
      </trkpt>
      <trkpt lat="44.39978" lon="5.79447">
        <ele>899</ele>
        <time>2018-05-18T02:49:49Z</time>
      </trkpt>
      <trkpt lat="44.39964" lon="5.79441">
        <ele>900</ele>
        <time>2018-05-18T02:50:49Z</time>
      </trkpt>
      <trkpt lat="44.39959" lon="5.79442">
        <ele>900</ele>
        <time>2018-05-18T02:51:49Z</time>
      </trkpt>
      <trkpt lat="44.39959" lon="5.79442">
        <ele>900</ele>
        <time>2018-05-18T02:52:49Z</time>
      </trkpt>
      <trkpt lat="44.39958" lon="5.79443">
        <ele>900</ele>
        <time>2018-05-18T02:53:49Z</time>
      </trkpt>
      <trkpt lat="44.39958" lon="5.79447">
        <ele>900</ele>
        <time>2018-05-18T02:54:49Z</time>
      </trkpt>
      <trkpt lat="44.39958" lon="5.79469">
        <ele>901</ele>
        <time>2018-05-18T02:55:49Z</time>
      </trkpt>
      <trkpt lat="44.39953" lon="5.79494">
        <ele>901</ele>
        <time>2018-05-18T02:56:49Z</time>
      </trkpt>
      <trkpt lat="44.39945" lon="5.79523">
        <ele>904</ele>
        <time>2018-05-18T02:57:49Z</time>
      </trkpt>
      <trkpt lat="44.39939" lon="5.7955">
        <ele>906</ele>
        <time>2018-05-18T02:58:49Z</time>
      </trkpt>
      <trkpt lat="44.39938" lon="5.79555">
        <ele>906</ele>
        <time>2018-05-18T02:59:49Z</time>
      </trkpt>
      <trkpt lat="44.39932" lon="5.79585">
        <ele>909</ele>
        <time>2018-05-18T03:00:49Z</time>
      </trkpt>
      <trkpt lat="44.39928" lon="5.79603">
        <ele>911</ele>
        <time>2018-05-18T03:01:49Z</time>
      </trkpt>
      <trkpt lat="44.39929" lon="5.79614">
        <ele>912</ele>
        <time>2018-05-18T03:02:49Z</time>
      </trkpt>
      <trkpt lat="44.39927" lon="5.79623">
        <ele>913</ele>
        <time>2018-05-18T03:03:49Z</time>
      </trkpt>
      <trkpt lat="44.39918" lon="5.79646">
        <ele>916</ele>
        <time>2018-05-18T03:04:49Z</time>
      </trkpt>
      <trkpt lat="44.39906" lon="5.79664">
        <ele>918</ele>
        <time>2018-05-18T03:05:49Z</time>
      </trkpt>
      <trkpt lat="44.39877" lon="5.79682">
        <ele>921</ele>
        <time>2018-05-18T03:06:49Z</time>
      </trkpt>
      <trkpt lat="44.39846" lon="5.79693">
        <ele>923</ele>
        <time>2018-05-18T03:07:49Z</time>
      </trkpt>
      <trkpt lat="44.39822" lon="5.79694">
        <ele>923</ele>
        <time>2018-05-18T03:08:49Z</time>
      </trkpt>
      <trkpt lat="44.39772" lon="5.79697">
        <ele>924</ele>
        <time>2018-05-18T03:09:49Z</time>
      </trkpt>
      <trkpt lat="44.39733" lon="5.79702">
        <ele>927</ele>
        <time>2018-05-18T03:10:49Z</time>
      </trkpt>
      <trkpt lat="44.39697" lon="5.79702">
        <ele>928</ele>
        <time>2018-05-18T03:11:49Z</time>
      </trkpt>
      <trkpt lat="44.39666" lon="5.79704">
        <ele>929</ele>
        <time>2018-05-18T03:12:49Z</time>
      </trkpt>
      <trkpt lat="44.39636" lon="5.79711">
        <ele>931</ele>
        <time>2018-05-18T03:13:49Z</time>
      </trkpt>
      <trkpt lat="44.39602" lon="5.79717">
        <ele>933</ele>
        <time>2018-05-18T03:14:49Z</time>
      </trkpt>
      <trkpt lat="44.39577" lon="5.79728">
        <ele>937</ele>
        <time>2018-05-18T03:15:49Z</time>
      </trkpt>
      <trkpt lat="44.39547" lon="5.79734">
        <ele>937</ele>
        <time>2018-05-18T03:16:49Z</time>
      </trkpt>
      <trkpt lat="44.39521" lon="5.79751">
        <ele>942</ele>
        <time>2018-05-18T03:17:49Z</time>
      </trkpt>
      <trkpt lat="44.39491" lon="5.79762">
        <ele>945</ele>
        <time>2018-05-18T03:18:49Z</time>
      </trkpt>
      <trkpt lat="44.39482" lon="5.79762">
        <ele>945</ele>
        <time>2018-05-18T03:19:49Z</time>
      </trkpt>
      <trkpt lat="44.39441" lon="5.79769">
        <ele>946</ele>
        <time>2018-05-18T03:20:49Z</time>
      </trkpt>
      <trkpt lat="44.39434" lon="5.79772">
        <ele>947</ele>
        <time>2018-05-18T03:21:49Z</time>
      </trkpt>
      <trkpt lat="44.39304" lon="5.79764">
        <ele>929</ele>
        <time>2018-05-18T03:22:49Z</time>
      </trkpt>
      <trkpt lat="44.39283" lon="5.79851">
        <ele>951</ele>
        <time>2018-05-18T03:23:49Z</time>
      </trkpt>
      <trkpt lat="44.39241" lon="5.8003">
        <ele>953</ele>
        <time>2018-05-18T03:24:49Z</time>
      </trkpt>
      <trkpt lat="44.39205" lon="5.80053">
        <ele>942</ele>
        <time>2018-05-18T03:25:49Z</time>
      </trkpt>
      <trkpt lat="44.39183" lon="5.80177">
        <ele>950</ele>
        <time>2018-05-18T03:26:49Z</time>
      </trkpt>
      <trkpt lat="44.39165" lon="5.8032">
        <ele>950</ele>
        <time>2018-05-18T03:27:49Z</time>
      </trkpt>
      <trkpt lat="44.3914" lon="5.80382">
        <ele>948</ele>
        <time>2018-05-18T03:28:49Z</time>
      </trkpt>
      <trkpt lat="44.39024" lon="5.80343">
        <ele>923</ele>
        <time>2018-05-18T03:29:49Z</time>
      </trkpt>
      <trkpt lat="44.39028" lon="5.805">
        <ele>922</ele>
        <time>2018-05-18T03:30:49Z</time>
      </trkpt>
      <trkpt lat="44.38976" lon="5.80723">
        <ele>905</ele>
        <time>2018-05-18T03:31:49Z</time>
      </trkpt>
      <trkpt lat="44.3899" lon="5.80856">
        <ele>907</ele>
        <time>2018-05-18T03:32:49Z</time>
      </trkpt>
      <trkpt lat="44.38853" lon="5.80766">
        <ele>896</ele>
        <time>2018-05-18T03:33:49Z</time>
      </trkpt>
      <trkpt lat="44.38845" lon="5.80746">
        <ele>893</ele>
        <time>2018-05-18T03:34:49Z</time>
      </trkpt>
      <trkpt lat="44.38841" lon="5.80721">
        <ele>889</ele>
        <time>2018-05-18T03:35:49Z</time>
      </trkpt>
      <trkpt lat="44.38706" lon="5.80876">
        <ele>883</ele>
        <time>2018-05-18T03:36:49Z</time>
      </trkpt>
      <trkpt lat="44.38716" lon="5.80977">
        <ele>890</ele>
        <time>2018-05-18T03:37:49Z</time>
      </trkpt>
      <trkpt lat="44.38662" lon="5.80974">
        <ele>881</ele>
        <time>2018-05-18T03:38:49Z</time>
      </trkpt>
      <trkpt lat="44.38639" lon="5.81129">
        <ele>882</ele>
        <time>2018-05-18T03:39:49Z</time>
      </trkpt>
      <trkpt lat="44.38639" lon="5.81154">
        <ele>883</ele>
        <time>2018-05-18T03:40:49Z</time>
      </trkpt>
      <trkpt lat="44.38612" lon="5.81152">
        <ele>879</ele>
        <time>2018-05-18T03:41:49Z</time>
      </trkpt>
      <trkpt lat="44.38584" lon="5.81025">
        <ele>871</ele>
        <time>2018-05-18T03:42:49Z</time>
      </trkpt>
      <trkpt lat="44.38491" lon="5.80837">
        <ele>860</ele>
        <time>2018-05-18T03:43:49Z</time>
      </trkpt>
      <trkpt lat="44.38584" lon="5.80611">
        <ele>887</ele>
        <time>2018-05-18T03:44:49Z</time>
      </trkpt>
      <trkpt lat="44.38665" lon="5.8061">
        <ele>873</ele>
        <time>2018-05-18T03:45:49Z</time>
      </trkpt>
      <trkpt lat="44.38751" lon="5.80445">
        <ele>858</ele>
        <time>2018-05-18T03:46:49Z</time>
      </trkpt>
      <trkpt lat="44.38496" lon="5.80405">
        <ele>890</ele>
        <time>2018-05-18T03:47:49Z</time>
      </trkpt>
      <trkpt lat="44.38483" lon="5.80398">
        <ele>892</ele>
        <time>2018-05-18T03:48:49Z</time>
      </trkpt>
      <trkpt lat="44.38525" lon="5.80344">
        <ele>885</ele>
        <time>2018-05-18T03:49:49Z</time>
      </trkpt>
      <trkpt lat="44.38518" lon="5.80281">
        <ele>895</ele>
        <time>2018-05-18T03:50:49Z</time>
      </trkpt>
      <trkpt lat="44.38616" lon="5.80312">
        <ele>873</ele>
        <time>2018-05-18T03:51:49Z</time>
      </trkpt>
      <trkpt lat="44.38637" lon="5.80225">
        <ele>884</ele>
        <time>2018-05-18T03:52:49Z</time>
      </trkpt>
      <trkpt lat="44.38682" lon="5.80196">
        <ele>879</ele>
        <time>2018-05-18T03:53:49Z</time>
      </trkpt>
      <trkpt lat="44.3878" lon="5.80115">
        <ele>869</ele>
        <time>2018-05-18T03:54:49Z</time>
      </trkpt>
      <trkpt lat="44.38773" lon="5.80033">
        <ele>885</ele>
        <time>2018-05-18T03:55:49Z</time>
      </trkpt>
      <trkpt lat="44.38838" lon="5.79986">
        <ele>873</ele>
        <time>2018-05-18T03:56:49Z</time>
      </trkpt>
      <trkpt lat="44.38831" lon="5.79917">
        <ele>888</ele>
        <time>2018-05-18T03:57:49Z</time>
      </trkpt>
      <trkpt lat="44.38877" lon="5.79888">
        <ele>876</ele>
        <time>2018-05-18T03:58:49Z</time>
      </trkpt>
      <trkpt lat="44.38902" lon="5.79796">
        <ele>884</ele>
        <time>2018-05-18T03:59:49Z</time>
      </trkpt>
      <trkpt lat="44.38962" lon="5.79743">
        <ele>867</ele>
        <time>2018-05-18T04:00:49Z</time>
      </trkpt>
      <trkpt lat="44.38903" lon="5.79614">
        <ele>860</ele>
        <time>2018-05-18T04:01:49Z</time>
      </trkpt>
      <trkpt lat="44.38914" lon="5.79552">
        <ele>845</ele>
        <time>2018-05-18T04:02:49Z</time>
      </trkpt>
      <trkpt lat="44.38824" lon="5.79408">
        <ele>847</ele>
        <time>2018-05-18T04:03:49Z</time>
      </trkpt>
      <trkpt lat="44.3891" lon="5.7925">
        <ele>813</ele>
        <time>2018-05-18T04:04:49Z</time>
      </trkpt>
      <trkpt lat="44.388" lon="5.79174">
        <ele>803</ele>
        <time>2018-05-18T04:05:49Z</time>
      </trkpt>
      <trkpt lat="44.38763" lon="5.79222">
        <ele>817</ele>
        <time>2018-05-18T04:06:49Z</time>
      </trkpt>
      <trkpt lat="44.38765" lon="5.79147">
        <ele>805</ele>
        <time>2018-05-18T04:07:49Z</time>
      </trkpt>
      <trkpt lat="44.38726" lon="5.79107">
        <ele>818</ele>
        <time>2018-05-18T04:08:49Z</time>
      </trkpt>
      <trkpt lat="44.38814" lon="5.79031">
        <ele>789</ele>
        <time>2018-05-18T04:09:49Z</time>
      </trkpt>
      <trkpt lat="44.3878" lon="5.78972">
        <ele>796</ele>
        <time>2018-05-18T04:10:49Z</time>
      </trkpt>
      <trkpt lat="44.38827" lon="5.789">
        <ele>783</ele>
        <time>2018-05-18T04:11:49Z</time>
      </trkpt>
      <trkpt lat="44.38759" lon="5.78776">
        <ele>782</ele>
        <time>2018-05-18T04:12:49Z</time>
      </trkpt>
      <trkpt lat="44.38674" lon="5.78608">
        <ele>765</ele>
        <time>2018-05-18T04:13:49Z</time>
      </trkpt>
      <trkpt lat="44.38468" lon="5.78156">
        <ele>746</ele>
        <time>2018-05-18T04:14:49Z</time>
      </trkpt>
      <trkpt lat="44.38385" lon="5.77781">
        <ele>736</ele>
        <time>2018-05-18T04:15:49Z</time>
      </trkpt>
      <trkpt lat="44.38386" lon="5.77756">
        <ele>737</ele>
        <time>2018-05-18T04:16:49Z</time>
      </trkpt>
      <trkpt lat="44.38416" lon="5.77663">
        <ele>748</ele>
        <time>2018-05-18T04:17:49Z</time>
      </trkpt>
      <trkpt lat="44.38354" lon="5.77478">
        <ele>746</ele>
        <time>2018-05-18T04:18:49Z</time>
      </trkpt>
      <trkpt lat="44.38311" lon="5.77419">
        <ele>740</ele>
        <time>2018-05-18T04:19:49Z</time>
      </trkpt>
      <trkpt lat="44.38273" lon="5.7719">
        <ele>744</ele>
        <time>2018-05-18T04:20:49Z</time>
      </trkpt>
      <trkpt lat="44.38169" lon="5.77203">
        <ele>717</ele>
        <time>2018-05-18T04:21:49Z</time>
      </trkpt>
      <trkpt lat="44.38088" lon="5.77054">
        <ele>725</ele>
        <time>2018-05-18T04:22:49Z</time>
      </trkpt>
      <trkpt lat="44.38127" lon="5.76956">
        <ele>743</ele>
        <time>2018-05-18T04:23:49Z</time>
      </trkpt>
      <trkpt lat="44.38113" lon="5.76854">
        <ele>752</ele>
        <time>2018-05-18T04:24:49Z</time>
      </trkpt>
      <trkpt lat="44.38053" lon="5.76882">
        <ele>735</ele>
        <time>2018-05-18T04:25:49Z</time>
      </trkpt>
      <trkpt lat="44.37945" lon="5.769">
        <ele>715</ele>
        <time>2018-05-18T04:26:49Z</time>
      </trkpt>
      <trkpt lat="44.37904" lon="5.7676">
        <ele>724</ele>
        <time>2018-05-18T04:27:49Z</time>
      </trkpt>
      <trkpt lat="44.37833" lon="5.76718">
        <ele>705</ele>
        <time>2018-05-18T04:28:49Z</time>
      </trkpt>
      <trkpt lat="44.37765" lon="5.76607">
        <ele>699</ele>
        <time>2018-05-18T04:29:49Z</time>
      </trkpt>
      <trkpt lat="44.37661" lon="5.7662">
        <ele>683</ele>
        <time>2018-05-18T04:30:49Z</time>
      </trkpt>
      <trkpt lat="44.3759" lon="5.76452">
        <ele>687</ele>
        <time>2018-05-18T04:31:49Z</time>
      </trkpt>
      <trkpt lat="44.37544" lon="5.76487">
        <ele>684</ele>
        <time>2018-05-18T04:32:49Z</time>
      </trkpt>
      <trkpt lat="44.37449" lon="5.76776">
        <ele>664</ele>
        <time>2018-05-18T04:33:49Z</time>
      </trkpt>
      <trkpt lat="44.37261" lon="5.7689">
        <ele>657</ele>
        <time>2018-05-18T04:34:49Z</time>
      </trkpt>
      <trkpt lat="44.37013" lon="5.76913">
        <ele>645</ele>
        <time>2018-05-18T04:35:49Z</time>
      </trkpt>
      <trkpt lat="44.36841" lon="5.77084">
        <ele>653</ele>
        <time>2018-05-18T04:36:49Z</time>
      </trkpt>
      <trkpt lat="44.36807" lon="5.7717">
        <ele>654</ele>
        <time>2018-05-18T04:37:49Z</time>
      </trkpt>
      <trkpt lat="44.36803" lon="5.77198">
        <ele>656</ele>
        <time>2018-05-18T04:38:49Z</time>
      </trkpt>
      <trkpt lat="44.36723" lon="5.77309">
        <ele>658</ele>
        <time>2018-05-18T04:39:49Z</time>
      </trkpt>
      <trkpt lat="44.36524" lon="5.7741">
        <ele>669</ele>
        <time>2018-05-18T04:40:49Z</time>
      </trkpt>
      <trkpt lat="44.36419" lon="5.77626">
        <ele>669</ele>
        <time>2018-05-18T04:41:49Z</time>
      </trkpt>
      <trkpt lat="44.36293" lon="5.77753">
        <ele>668</ele>
        <time>2018-05-18T04:42:49Z</time>
      </trkpt>
      <trkpt lat="44.36195" lon="5.77879">
        <ele>663</ele>
        <time>2018-05-18T04:43:49Z</time>
      </trkpt>
      <trkpt lat="44.3607" lon="5.77696">
        <ele>651</ele>
        <time>2018-05-18T04:44:49Z</time>
      </trkpt>
      <trkpt lat="44.35962" lon="5.77696">
        <ele>654</ele>
        <time>2018-05-18T04:45:49Z</time>
      </trkpt>
      <trkpt lat="44.35852" lon="5.77774">
        <ele>656</ele>
        <time>2018-05-18T04:46:49Z</time>
      </trkpt>
      <trkpt lat="44.35878" lon="5.77995">
        <ele>670</ele>
        <time>2018-05-18T04:47:49Z</time>
      </trkpt>
      <trkpt lat="44.35801" lon="5.78153">
        <ele>671</ele>
        <time>2018-05-18T04:48:49Z</time>
      </trkpt>
      <trkpt lat="44.35794" lon="5.78156">
        <ele>670</ele>
        <time>2018-05-18T04:49:49Z</time>
      </trkpt>
      <trkpt lat="44.35875" lon="5.78396">
        <ele>681</ele>
        <time>2018-05-18T04:50:49Z</time>
      </trkpt>
      <trkpt lat="44.35711" lon="5.78461">
        <ele>671</ele>
        <time>2018-05-18T04:51:49Z</time>
      </trkpt>
      <trkpt lat="44.35702" lon="5.78461">
        <ele>671</ele>
        <time>2018-05-18T04:52:49Z</time>
      </trkpt>
      <trkpt lat="44.3559" lon="5.78561">
        <ele>668</ele>
        <time>2018-05-18T04:53:49Z</time>
      </trkpt>
      <trkpt lat="44.35424" lon="5.78695">
        <ele>654</ele>
        <time>2018-05-18T04:54:49Z</time>
      </trkpt>
      <trkpt lat="44.35385" lon="5.78658">
        <ele>657</ele>
        <time>2018-05-18T04:55:49Z</time>
      </trkpt>
      <trkpt lat="44.3538" lon="5.78676">
        <ele>659</ele>
        <time>2018-05-18T04:56:49Z</time>
      </trkpt>
      <trkpt lat="44.35357" lon="5.78678">
        <ele>662</ele>
        <time>2018-05-18T04:57:49Z</time>
      </trkpt>
      <trkpt lat="44.35365" lon="5.78729">
        <ele>662</ele>
        <time>2018-05-18T04:58:49Z</time>
      </trkpt>
      <trkpt lat="44.35256" lon="5.7875">
        <ele>677</ele>
        <time>2018-05-18T04:59:49Z</time>
      </trkpt>
      <trkpt lat="44.35266" lon="5.7866">
        <ele>678</ele>
        <time>2018-05-18T05:00:49Z</time>
      </trkpt>
      <trkpt lat="44.35249" lon="5.78546">
        <ele>688</ele>
        <time>2018-05-18T05:01:49Z</time>
      </trkpt>
      <trkpt lat="44.35144" lon="5.78577">
        <ele>715</ele>
        <time>2018-05-18T05:02:49Z</time>
      </trkpt>
      <trkpt lat="44.3513" lon="5.78545">
        <ele>720</ele>
        <time>2018-05-18T05:03:49Z</time>
      </trkpt>
      <trkpt lat="44.35119" lon="5.78513">
        <ele>726</ele>
        <time>2018-05-18T05:04:49Z</time>
      </trkpt>
      <trkpt lat="44.35096" lon="5.78533">
        <ele>732</ele>
        <time>2018-05-18T05:05:49Z</time>
      </trkpt>
      <trkpt lat="44.35092" lon="5.78521">
        <ele>734</ele>
        <time>2018-05-18T05:06:49Z</time>
      </trkpt>
      <trkpt lat="44.3506" lon="5.78547">
        <ele>739</ele>
        <time>2018-05-18T05:07:49Z</time>
      </trkpt>
    </trkseg>
  </trk>
</gpx>